[[{"header":{"parameterUnit":"m.s-1","parameterCategory":1,"la1":30.6,"la2":28.766,"lo1":-90.7593,"lo2":-88.6598,"dy":0.0162,"dx":0.0183,"nx":116,"ny":114,"refTime":"2024-05-01T00:00:00:Z","depth":0,"parameterNumber":2,"parameterNumberName":"U-component_of_WINDS"},"data":[0.0,0.0,0.0,0.0,0.0,0.0,0.0,0.0,0.0,0.0,0.0,0.0,0.0,0.0,0.0,0.0,0.0,0.0,0.0,0.0,0.0,0.0,0.0,0.0,0.0,0.0,0.0,0.0,0.0,0.0,0.0,0.0,0.0,0.0,0.0,0.0,0.0,0.0,0.0,0.0,0.0,0.0,0.0,0.0,0.0,0.0,0.0,0.0,0.0,0.0,0.0,0.0,0.0,0.0,0.0,0.0,0.0,0.0,0.0,0.0,0.0,0.0,0.0,0.0,0.0,0.0,0.0,0.0,0.0,0.0,0.0,0.0,0.0,0.0,0.0,0.0,0.0,0.0,0.0,0.0,0.0,0.0,0.0,0.0,0.0,0.0,0.0,0.0,0.0,0.0,0.0,0.0,0.0,0.0,0.0,0.0,0.0,0.0,0.0,0.0,0.0,0.0,0.0,0.0,0.0,0.0,0.0,0.0,0.0,0.0,0.0,0.0,0.0,0.0,0.0,0.0,0.0,0.0,0.0,0.0,0.0,0.0,0.0,0.0,0.0,0.0,0.0,0.0,0.0,0.0,0.0,0.0,0.0,0.0,0.0,0.0,0.0,0.0,0.0,0.0,0.0,0.0,0.0,0.0,0.0,0.0,0.0,0.0,0.0,0.0,0.0,0.0,0.0,0.0,0.0,0.0,0.0,0.0,0.0,0.0,0.0,0.0,0.0,0.0,0.0,0.0,0.0,0.0,0.0,0.0,0.0,0.0,0.0,0.0,0.0,0.0,0.0,0.0,0.0,0.0,0.0,0.0,0.0,0.0,0.0,0.0,0.0,0.0,0.0,0.0,0.0,0.0,0.0,0.0,0.0,0.0,0.0,0.0,0.0,0.0,0.0,0.0,0.0,0.0,0.0,0.0,0.0,0.0,0.0,0.0,0.0,0.0,0.0,0.0,0.0,0.0,0.0,0.0,0.0,0.0,0.0,0.0,0.0,0.0,0.0,0.0,0.0,0.0,0.0,0.0,0.0,0.0,0.0,0.0,0.0,0.0,0.0,0.0,0.0,0.0,0.0,0.0,0.0,0.0,0.0,0.0,0.0,0.0,0.0,0.0,0.0,0.0,0.0,0.0,0.0,0.0,0.0,0.0,0.0,0.0,0.0,0.0,0.0,0.0,0.0,0.0,0.0,0.0,0.0,0.0,0.0,0.0,0.0,0.0,0.0,0.0,0.0,0.0,0.0,0.0,0.0,0.0,0.0,0.0,0.0,0.0,0.0,0.0,0.0,0.0,0.0,0.0,0.0,0.0,0.0,0.0,0.0,0.0,0.0,0.0,0.0,0.0,0.0,0.0,0.0,0.0,0.0,0.0,0.0,0.0,0.0,0.0,0.0,0.0,0.0,0.0,0.0,0.0,0.0,0.0,0.0,0.0,0.0,0.0,0.0,0.0,0.0,0.0,0.0,0.0,0.0,0.0,0.0,0.0,0.0,0.0,0.0,0.0,0.0,0.0,0.0,0.0,0.0,0.0,0.0,0.0,0.0,0.0,0.0,0.0,0.0,0.0,0.0,0.0,0.0,0.0,0.0,0.0,0.0,0.0,0.0,0.0,0.0,0.0,0.0,0.0,0.0,0.0,0.0,0.0,0.0,0.0,0.0,0.0,0.0,0.0,0.0,0.0,0.0,0.0,0.0,0.0,0.0,0.0,0.0,0.0,0.0,0.0,0.0,0.0,0.0,0.0,0.0,0.0,0.0,0.0,0.0,0.0,0.0,0.0,0.0,0.0,0.0,0.0,0.0,0.0,0.0,0.0,0.0,0.0,0.0,0.0,0.0,0.0,0.0,0.0,0.0,0.0,0.0,0.0,0.0,0.0,0.0,0.0,0.0,0.0,0.0,0.0,0.0,0.0,0.0,0.0,0.0,0.0,0.0,0.0,0.0,0.0,0.0,0.0,0.0,0.0,0.0,0.0,0.0,0.0,0.0,0.0,0.0,0.0,0.0,0.0,0.0,0.0,0.0,0.0,0.0,0.0,0.0,0.0,0.0,0.0,0.0,0.0,0.0,0.0,0.0,0.0,0.0,0.0,0.0,0.0,0.0,0.0,0.0,0.0,0.0,0.0,0.0,0.0,0.0,0.0,0.0,0.0,0.0,0.0,0.0,0.0,0.0,0.0,0.0,0.0,0.0,0.0,0.0,0.0,0.0,0.0,0.0,0.0,0.0,0.0,0.0,0.0,0.0,0.0,0.0,0.0,0.0,0.0,0.0,0.0,0.0,0.0,0.0,0.0,0.0,0.0,0.0,0.0,0.0,0.0,0.0,0.0,0.0,0.0,0.0,0.0,0.0,0.0,0.0,0.0,0.0,0.0,0.0,0.0,0.0,0.0,0.0,0.0,0.0,0.0,0.0,0.0,0.0,0.0,0.0,0.0,0.0,0.0,0.0,0.0,0.0,0.0,0.0,0.0,0.0,0.0,0.0,0.0,0.0,0.0,0.0,0.0,0.0,0.0,0.0,0.0,0.0,0.0,0.0,0.0,0.0,0.0,0.0,0.0,0.0,0.0,0.0,0.0,0.0,0.0,0.0,0.0,0.0,0.0,0.0,0.0,0.0,0.0,0.0,0.0,0.0,0.0,0.0,0.0,0.0,0.0,0.0,0.0,0.0,0.0,0.0,0.0,0.0,0.0,0.0,0.0,0.0,0.0,0.0,0.0,0.0,0.0,0.0,0.0,0.0,0.0,0.0,0.0,0.0,0.0,0.0,0.0,0.0,0.0,0.0,0.0,0.0,0.0,0.0,0.0,0.0,0.0,0.0,0.0,0.0,0.0,0.0,0.0,0.0,0.0,0.0,0.0,0.0,0.0,0.0,0.0,0.0,0.0,0.0,0.0,0.0,0.0,0.0,0.0,0.0,0.0,0.0,0.0,0.0,0.0,0.0,0.0,0.0,0.0,0.0,0.0,0.0,0.0,0.0,0.0,0.0,0.0,0.0,0.0,0.0,0.0,0.0,0.0,0.0,0.0,0.0,0.0,0.0,0.0,0.0,0.0,0.0,0.0,0.0,0.0,0.0,0.0,0.0,0.0,0.0,0.0,0.0,0.0,0.0,0.0,0.0,0.0,0.0,0.0,0.0,0.0,0.0,0.0,0.0,0.0,0.0,0.0,0.0,0.0,0.0,0.0,0.0,0.0,0.0,0.0,0.0,0.0,0.0,0.0,0.0,0.0,0.0,0.0,0.0,0.0,0.0,0.0,0.0,0.0,0.0,0.0,0.0,0.0,0.0,0.0,0.0,0.0,0.0,0.0,0.0,0.0,0.0,0.0,0.0,0.0,0.0,0.0,0.0,0.0,0.0,0.0,0.0,0.0,0.0,0.0,0.0,0.0,0.0,0.0,0.0,0.0,0.0,0.0,0.0,0.0,0.0,0.0,0.0,0.0,0.0,0.0,0.0,0.0,0.0,0.0,0.0,0.0,0.0,0.0,0.0,0.0,0.0,0.0,0.0,0.0,0.0,0.0,0.0,0.0,0.0,0.0,0.0,0.0,0.0,0.0,0.0,0.0,0.0,0.0,0.0,0.0,0.0,0.0,0.0,0.0,0.0,0.0,0.0,0.0,0.0,0.0,0.0,0.0,0.0,0.0,0.0,0.0,0.0,0.0,0.0,0.0,0.0,0.0,0.0,0.0,0.0,0.0,0.0,0.0,0.0,0.0,0.0,0.0,0.0,0.0,0.0,0.0,0.0,0.0,0.0,0.0,0.0,0.0,0.0,0.0,0.0,0.0,0.0,0.0,0.0,0.0,0.0,0.0,0.0,0.0,0.0,0.0,0.0,0.0,0.0,0.0,0.0,0.0,0.0,0.0,0.0,0.0,0.0,0.0,0.0,0.0,0.0,0.0,0.0,0.0,0.0,0.0,0.0,0.0,0.0,0.0,0.0,0.0,0.0,0.0,0.0,0.0,0.0,0.0,0.0,0.0,0.0,0.0,0.0,0.0,0.0,0.0,0.0,0.0,0.0,0.0,0.0,0.0,0.0,0.0,0.0,0.0,0.0,0.0,0.0,0.0,0.0,0.0,0.0,0.0,0.0,0.0,0.0,0.0,0.0,0.0,0.0,0.0,0.0,0.0,0.0,0.0,0.0,0.0,0.0,0.0,0.0,0.0,0.0,0.0,0.0,0.0,0.0,0.0,0.0,0.0,0.0,0.0,0.0,0.0,0.0,0.0,0.0,0.0,0.0,0.0,0.0,0.0,0.0,0.0,0.0,0.0,0.0,0.0,0.0,0.0,0.0,0.0,0.0,0.0,0.0,0.0,0.0,0.0,0.0,0.0,0.0,0.0,0.0,0.0,0.0,0.0,0.0,0.0,0.0,0.0,0.0,0.0,0.0,0.0,0.0,0.0,0.0,0.0,0.0,0.0,0.0,0.0,0.0,0.0,0.0,0.0,0.0,0.0,0.0,0.0,0.0,0.0,0.0,0.0,0.0,0.0,0.0,0.0,0.0,0.0,0.0,0.0,0.0,0.0,0.0,0.0,0.0,0.0,0.0,0.0,0.0,0.0,0.0,0.0,0.0,0.0,0.0,0.0,0.0,0.0,0.0,0.0,0.0,0.0,0.0,0.0,0.0,0.0,0.0,0.0,0.0,0.0,0.0,0.0,0.0,0.0,0.0,0.0,0.0,0.0,0.0,0.0,0.0,0.0,0.0,0.0,0.0,0.0,0.0,0.0,0.0,0.0,0.0,0.0,0.0,0.0,0.0,0.0,0.0,0.0,0.0,0.0,0.0,0.0,0.0,0.0,0.0,0.0,0.0,0.0,0.0,0.0,0.0,0.0,0.0,0.0,0.0,0.0,0.0,0.0,0.0,0.0,0.0,0.0,0.0,0.0,0.0,0.0,0.0,0.0,0.0,0.0,0.0,0.0,0.0,0.0,0.0,0.0,0.0,0.0,0.0,0.0,0.0,0.0,0.0,0.0,0.0,0.0,0.0,0.0,0.0,0.0,0.0,0.0,0.0,0.0,0.0,0.0,0.0,0.0,0.0,0.0,0.0,0.0,0.0,0.0,0.0,0.0,0.0,0.0,0.0,0.0,0.0,0.0,0.0,0.0,0.0,0.0,0.0,0.0,0.0,0.0,0.0,0.0,0.0,0.0,0.0,0.0,0.0,0.0,0.0,0.0,0.0,0.0,0.0,0.0,0.0,0.0,0.0,0.0,0.0,0.0,0.0,0.0,0.0,0.0,0.0,0.0,0.0,0.0,0.0,0.0,0.0,0.0,0.0,0.0,0.0,0.0,0.0,0.0,0.0,0.0,0.0,0.0,0.0,0.0,0.0,0.0,0.0,0.0,0.0,0.0,0.0,0.0,0.0,0.0,0.0,0.0,0.0,0.0,0.0,0.0,0.0,0.0,0.0,0.0,0.0,0.0,0.0,0.0,0.0,0.0,0.0,0.0,0.0,0.0,0.0,0.0,0.0,0.0,0.0,0.0,0.0,0.0,0.0,0.0,0.0,0.0,0.0,0.0,0.0,0.0,0.0,0.0,0.0,0.0,0.0,0.0,0.0,0.0,0.0,0.0,0.0,0.0,0.0,0.0,0.0,0.0,0.0,0.0,0.0,0.0,0.0,0.0,0.0,0.0,0.0,0.0,0.0,0.0,0.0,0.0,0.0,0.0,0.0,0.0,0.0,0.0,0.0,0.0,0.0,0.0,0.0,0.0,0.0,0.0,0.0,0.0,0.0,0.0,0.0,0.0,0.0,0.0,0.0,0.0,0.0,0.0,0.0,0.0,0.0,0.0,0.0,0.0,0.0,0.0,0.0,0.0,0.0,0.0,0.0,0.0,0.0,0.0,0.0,0.0,0.0,0.0,0.0,0.0,0.0,0.0,0.0,0.0,0.0,0.0,0.0,0.0,0.0,0.0,0.0,0.0,0.0,0.0,0.0,0.0,0.0,0.0,0.0,0.0,0.0,0.0,0.0,0.0,0.0,0.0,0.0,0.0,0.0,0.0,0.0,0.0,0.0,0.0,0.0,0.0,0.0,0.0,0.0,0.0,0.0,0.0,0.0,0.0,0.0,0.0,0.0,0.0,0.0,0.0,0.0,0.0,-4.6487,0.0,0.0,0.0,0.0,0.0,0.0,0.0,0.0,0.0,0.0,0.0,0.0,0.0,0.0,0.0,0.0,0.0,0.0,0.0,0.0,0.0,0.0,0.0,0.0,-3.9383,-3.9673,-3.9235,-3.8963,-3.8494,-3.774,0.0,0.0,0.0,0.0,0.0,-3.6197,-3.6592,-3.6965,-3.7313,-3.8058,-3.8802,-3.9537,-3.9662,-3.9877,-4.0106,0.0,0.0,0.0,0.0,0.0,0.0,0.0,0.0,0.0,0.0,0.0,0.0,0.0,0.0,0.0,0.0,0.0,0.0,0.0,0.0,0.0,0.0,0.0,0.0,0.0,0.0,0.0,0.0,0.0,0.0,0.0,0.0,0.0,0.0,0.0,0.0,0.0,0.0,0.0,0.0,0.0,0.0,0.0,0.0,0.0,0.0,0.0,0.0,0.0,0.0,0.0,0.0,0.0,0.0,0.0,0.0,0.0,0.0,0.0,0.0,0.0,0.0,0.0,0.0,0.0,0.0,0.0,0.0,0.0,0.0,0.0,-4.6273,0.0,0.0,0.0,0.0,0.0,0.0,0.0,0.0,0.0,0.0,0.0,0.0,0.0,0.0,0.0,0.0,0.0,0.0,0.0,0.0,0.0,-3.7212,-3.7855,-3.8667,-3.9174,-3.9174,-3.9174,-3.8821,-3.7956,-3.8019,0.0,0.0,0.0,-3.6928,-3.6777,-3.703,-3.7401,-3.7864,-3.8753,-3.9503,-4.0113,-4.0113,-4.0319,-4.0745,-4.0577,0.0,0.0,0.0,0.0,0.0,0.0,0.0,0.0,0.0,0.0,0.0,0.0,0.0,0.0,0.0,0.0,0.0,0.0,0.0,0.0,0.0,0.0,0.0,0.0,0.0,0.0,0.0,0.0,0.0,0.0,0.0,0.0,0.0,0.0,0.0,0.0,0.0,0.0,0.0,0.0,0.0,0.0,0.0,0.0,0.0,0.0,0.0,0.0,0.0,0.0,0.0,0.0,0.0,0.0,0.0,0.0,0.0,0.0,0.0,0.0,0.0,0.0,0.0,-5.1088,-5.1397,-5.1825,-5.157,-5.1499,-5.1499,-4.9314,-4.8434,-4.8416,-4.7095,0.0,0.0,0.0,0.0,0.0,0.0,0.0,0.0,0.0,0.0,0.0,0.0,0.0,0.0,0.0,0.0,0.0,0.0,0.0,-3.7787,-3.7889,-3.9106,-3.9943,-3.9977,-3.9977,-3.9328,-3.7919,-3.848,-3.8194,-3.6795,-3.7373,-3.7455,-3.6736,-3.8035,-3.8405,-3.78,-3.9269,-4.0011,-4.0113,-4.0113,-4.0163,-4.0204,-4.0177,-4.0226,-4.0343,0.0,0.0,0.0,0.0,0.0,0.0,0.0,0.0,0.0,0.0,0.0,0.0,0.0,0.0,0.0,0.0,0.0,0.0,0.0,0.0,0.0,0.0,0.0,0.0,0.0,0.0,0.0,0.0,0.0,0.0,0.0,0.0,0.0,0.0,0.0,0.0,0.0,0.0,0.0,0.0,0.0,-5.0975,-5.2595,0.0,0.0,0.0,0.0,0.0,0.0,0.0,0.0,0.0,0.0,0.0,0.0,0.0,-5.0719,-5.1334,-5.2934,-5.3224,-5.2269,-5.4372,-5.4902,-5.397,-5.3943,-5.4326,-5.4913,-5.3885,0.0,-4.9427,-4.9206,0.0,0.0,0.0,0.0,0.0,0.0,0.0,0.0,0.0,0.0,0.0,0.0,0.0,0.0,0.0,0.0,0.0,0.0,0.0,0.0,0.0,-3.9469,-3.9927,-3.948,-3.985,-3.9451,-3.7908,-3.8533,-3.8282,-3.6783,-3.7051,-3.7077,-3.6724,-3.7767,-3.8373,-3.842,-3.9554,-3.9876,-3.942,-3.9901,-4.0113,-4.0113,-4.0113,-4.0113,-4.0138,-4.0343,0.0,0.0,0.0,0.0,0.0,0.0,0.0,0.0,0.0,0.0,0.0,0.0,0.0,0.0,0.0,0.0,0.0,0.0,0.0,0.0,0.0,0.0,0.0,0.0,0.0,0.0,0.0,0.0,0.0,0.0,0.0,0.0,0.0,0.0,0.0,0.0,0.0,0.0,0.0,-4.9527,-5.1528,-5.1806,-5.2506,-5.1829,0.0,0.0,0.0,0.0,0.0,0.0,0.0,0.0,0.0,-5.166,-5.2344,-5.3069,-5.3922,-5.4895,-5.5453,-5.5618,-5.623,-5.6491,-5.6418,-5.6418,-5.6381,-5.6235,-5.5904,-5.4436,-5.2234,-5.1316,-4.9481,-4.7168,0.0,0.0,0.0,0.0,-4.4856,-4.4856,0.0,0.0,0.0,0.0,0.0,0.0,0.0,0.0,0.0,0.0,0.0,0.0,-3.8622,-3.9362,-3.948,-3.869,-3.9156,-3.8941,-3.7557,-3.8189,-3.8047,-3.6737,-3.688,-3.688,-3.6679,-3.7186,-3.7833,-3.8635,-3.9209,-3.9209,-3.8635,-3.9394,-3.9765,-3.9791,-4.0003,-4.0113,-4.0113,-4.0113,-4.0113,-4.0113,0.0,0.0,0.0,0.0,0.0,0.0,0.0,0.0,0.0,0.0,0.0,0.0,0.0,0.0,0.0,0.0,0.0,0.0,0.0,0.0,0.0,0.0,0.0,0.0,0.0,0.0,0.0,0.0,0.0,0.0,0.0,0.0,0.0,0.0,0.0,0.0,0.0,-5.0912,-5.2307,-5.1499,-5.3296,-5.2932,0.0,0.0,0.0,0.0,0.0,0.0,-5.3441,-5.392,-5.4184,-5.4195,-5.51,-5.5859,-5.6514,-5.681,-5.7328,-5.7997,-5.7409,-5.7409,-5.7997,-5.7776,-5.7373,-5.6785,-5.6602,-5.5684,-5.4289,-5.2894,-5.0839,-4.8563,-4.7736,-4.6782,-4.5883,-4.5663,-4.559,-4.5572,0.0,0.0,0.0,0.0,0.0,0.0,0.0,0.0,0.0,0.0,0.0,-3.7892,-3.7866,-3.8506,-3.8663,-3.7937,-3.7908,-3.7557,-3.6722,-3.7411,-3.7499,-3.666,-3.735,-3.7408,-3.6599,-3.6629,-3.7053,-3.7879,-3.7908,-3.7908,-3.7879,-3.8608,-3.8962,-3.8989,-3.974,-4.0113,-4.0113,-4.0113,-4.0113,-4.0113,-4.0113,0.0,0.0,0.0,0.0,0.0,0.0,0.0,0.0,0.0,0.0,0.0,0.0,0.0,0.0,0.0,0.0,0.0,0.0,0.0,0.0,0.0,0.0,0.0,0.0,0.0,0.0,0.0,0.0,0.0,0.0,0.0,0.0,0.0,0.0,0.0,0.0,0.0,0.0,-5.3167,-5.5192,0.0,0.0,0.0,0.0,-5.2382,-5.3907,-5.5209,-5.5951,-5.6752,-5.7698,-5.8851,-5.8924,-5.8998,-5.9001,-5.9048,-5.8717,-5.7997,-5.796,-5.796,-5.796,-5.7226,-5.6859,-5.6748,-5.5978,-5.517,-5.4326,-5.3482,-5.172,-4.9463,-4.8563,-4.7278,-4.581,-4.5039,-4.4764,-4.4674,0.0,0.0,0.0,-3.2837,-3.3518,-3.4053,-3.4276,-3.4301,-3.4725,-3.5934,-3.6293,-3.6808,-3.7704,-3.8032,-3.7876,-3.7084,-3.7499,-3.7265,-3.5975,-3.66,-3.6692,-3.5911,-3.6164,-3.6415,-3.66,-3.66,-3.6722,-3.7024,-3.756,-3.756,-3.7054,-3.8298,-3.8908,-3.8935,-3.974,-4.0113,-4.0113,-4.0113,-4.0113,-4.0113,-4.0113,-4.0113,0.0,0.0,0.0,0.0,0.0,0.0,0.0,0.0,0.0,0.0,0.0,0.0,0.0,0.0,0.0,0.0,0.0,0.0,0.0,0.0,0.0,0.0,0.0,0.0,0.0,0.0,0.0,0.0,0.0,0.0,0.0,0.0,0.0,0.0,0.0,0.0,0.0,-5.5574,-5.7666,0.0,-5.5354,-5.5831,-5.6228,-5.6055,-5.7088,-5.8047,-5.8858,-5.9167,-5.9283,-5.9208,-5.9184,-5.9184,-5.9184,-5.8694,-5.8547,-5.8767,-5.8253,-5.7997,-5.796,-5.7189,-5.6528,-5.5978,-5.517,-5.4363,-5.3592,-5.2747,-5.161,-5.0325,-5.0031,-4.8893,-4.7425,-4.7131,-4.6447,-4.5682,0.0,-2.9812,0.0,-3.1469,-3.233,-3.3016,-3.3246,-3.3463,-3.411,-3.5518,-3.571,-3.6111,-3.7284,-3.7381,-3.7086,-3.6321,-3.6692,-3.6569,-3.5554,-3.5943,-3.6006,-3.5522,-3.5519,-3.5718,-3.6228,-3.6228,-3.6228,-3.6228,-3.6753,-3.6722,-3.6259,-3.7526,-3.8129,-3.8157,-3.8968,-3.9322,-3.9348,-3.9878,-4.0112,-4.0113,-4.0113,-4.0248,-4.0392,0.0,0.0,0.0,0.0,0.0,0.0,0.0,0.0,0.0,0.0,0.0,0.0,0.0,0.0,0.0,0.0,0.0,0.0,0.0,0.0,0.0,0.0,0.0,0.0,0.0,0.0,0.0,0.0,0.0,0.0,0.0,0.0,0.0,0.0,0.0,-5.7519,-5.7262,-5.9832,-6.0676,-5.8253,-5.8988,-5.9501,-5.9245,-5.9979,-6.0505,-6.0786,-6.108,-6.086,-6.0052,-6.0015,-5.9758,-5.9184,-5.8694,-5.8547,-5.8804,-5.8253,-5.7997,-5.796,-5.6895,-5.6088,-5.5559,-5.4473,-5.3555,-5.2747,-5.2197,-5.1213,-5.0081,-5.0301,-4.9554,-4.8233,-4.7682,-4.6788,-4.5818,-2.7585,-2.8128,-2.8811,-2.9484,-3.0706,-3.1784,-3.2474,-3.3125,-3.4058,-3.5463,-3.5628,-3.5859,-3.6506,-3.6569,-3.629,-3.5554,-3.5519,-3.5519,-3.5519,-3.5519,-3.5519,-3.5519,-3.5519,-3.5519,-3.5519,-3.5519,-3.5519,-3.5519,-3.5519,-3.5519,-3.5519,-3.6259,-3.66,-3.663,-3.744,-3.7793,-3.7883,-3.9392,-4.0007,-4.0062,-4.0121,-4.062,-4.117,0.0,0.0,0.0,0.0,0.0,0.0,0.0,0.0,0.0,0.0,0.0,0.0,0.0,0.0,0.0,0.0,0.0,0.0,0.0,0.0,0.0,0.0,0.0,0.0,0.0,0.0,0.0,0.0,0.0,0.0,0.0,0.0,0.0,-5.4509,-5.7262,-5.9001,-5.8327,-6.1741,-6.3209,-6.0786,-6.1998,-6.2585,-6.1741,-6.2401,-6.2511,-6.1704,-6.2401,-6.2438,-6.1594,-6.1557,-6.0786,-5.9184,-5.9148,-5.8767,-5.7997,-5.7997,-5.7997,-5.796,-5.6308,-5.5596,-5.55,-5.3922,-5.2726,-5.1993,-5.1956,-5.0617,-4.8656,-4.9334,-4.9021,-4.8065,-4.6452,-4.551,-4.4715,-2.7585,-2.8128,-2.8835,-2.9497,-3.028,-3.1003,-3.1683,-3.1954,-3.2593,-3.3935,-3.4088,-3.4547,-3.5695,-3.5814,-3.5718,-3.5522,-3.5519,-3.5519,-3.5519,-3.5519,-3.5519,-3.5519,-3.5519,-3.5519,-3.5519,-3.5519,-3.5519,-3.5519,-3.5519,-3.5519,-3.5519,-3.6259,-3.66,-3.663,-3.744,-3.7793,-3.7822,-3.8245,-3.844,-3.8595,-4.0809,-4.1813,-4.1982,0.0,0.0,0.0,0.0,0.0,0.0,0.0,0.0,0.0,0.0,0.0,0.0,0.0,0.0,0.0,0.0,0.0,0.0,0.0,0.0,0.0,0.0,0.0,0.0,0.0,0.0,0.0,0.0,0.0,0.0,0.0,-5.3885,-5.6345,-5.6932,-5.9281,-6.152,-6.3099,-6.4787,-6.5338,-6.409,-6.4897,-6.4897,-6.3503,-6.3613,-6.3649,-6.3429,-6.3025,-6.2181,-6.0786,-6.075,-5.9979,-5.8364,-5.8327,-5.8217,-5.7997,-5.7997,-5.7997,-5.796,-5.6308,-5.5596,-5.55,-5.3922,-5.2769,-5.2005,-5.0867,-4.9771,-4.8734,-4.885,-4.8049,-4.6789,-4.5831,-4.4432,-4.2777,-2.7585,-2.8128,-2.8727,-2.9116,-2.9894,-3.0642,-3.1002,-3.1331,-3.1989,-3.3335,-3.3484,-3.3993,-3.537,-3.5519,-3.5519,-3.5519,-3.5519,-3.5519,-3.5519,-3.5519,-3.5519,-3.5519,-3.5519,-3.5519,-3.5519,-3.5519,-3.5519,-3.5519,-3.5519,-3.5519,-3.5519,-3.5943,-3.6134,-3.6165,-3.6631,-3.6845,-3.6875,-3.752,-3.7765,-3.7949,-4.0394,-4.1538,-4.1909,-4.2517,-4.2489,-4.2117,-4.2117,-4.1914,-4.1542,-4.0798,0.0,0.0,0.0,0.0,0.0,0.0,0.0,0.0,0.0,0.0,0.0,0.0,0.0,0.0,0.0,0.0,0.0,0.0,0.0,0.0,0.0,0.0,0.0,0.0,-5.6418,-5.8951,-6.0786,-6.1961,-6.3429,-6.5558,-6.6512,-6.6806,-6.6366,-6.6733,-6.6329,-6.4714,-6.4604,-6.431,-6.3576,-6.3099,-6.2218,-6.0933,-6.0566,-5.9795,-5.851,-5.818,-5.7997,-5.7997,-5.7666,-5.7483,-5.7446,-5.5831,-5.5097,-5.5023,-5.3441,-5.2132,-5.1066,-4.9875,-4.8615,0.0,0.0,0.0,0.0,0.0,-4.3278,-4.1531,-2.7705,-2.8248,-2.8727,-2.8816,-2.9744,-3.0522,-3.0612,-3.1122,-3.1989,-3.3335,-3.3484,-3.3993,-3.537,-3.5519,-3.5519,-3.5519,-3.5519,-3.5519,-3.5519,-3.5519,-3.5519,-3.5519,-3.5519,-3.5519,-3.5519,-3.5519,-3.5519,-3.5519,-3.5519,-3.5519,-3.5519,-3.5519,-3.5519,-3.5519,-3.5519,-3.5519,-3.5614,-3.6903,-3.7435,-3.7591,-3.9214,-4.0386,-4.1313,-4.2747,-4.3333,-4.34,-4.3483,-4.3098,-4.2455,-4.1711,0.0,0.0,0.0,0.0,0.0,0.0,0.0,0.0,0.0,0.0,0.0,0.0,0.0,0.0,0.0,0.0,0.0,0.0,0.0,0.0,0.0,0.0,0.0,0.0,-5.898,-6.1679,-6.4982,-6.4824,-6.4934,-6.6439,-6.7247,-6.7614,-6.743,-6.7504,-6.6953,-6.5411,-6.5228,-6.4567,-6.3147,0.0,0.0,0.0,0.0,-6.0015,-5.9184,-5.84,-5.7997,-5.7997,-5.7189,-5.6822,-5.6748,-5.5133,-5.4356,-5.4195,-5.2658,-5.1105,-4.9634,-4.8886,-4.7321,-4.5477,-4.5989,-4.6068,-4.5703,-4.3875,-4.2199,-4.0733,-2.8397,-2.8936,-2.9535,-3.0043,-3.0342,-3.0702,-3.1212,-3.1421,-3.1989,-3.3335,-3.3484,-3.3993,-3.537,-3.5519,-3.5519,-3.5519,-3.5519,-3.5519,-3.5519,-3.5519,-3.5519,-3.5519,-3.5519,-3.5519,-3.5519,-3.5519,-3.5519,-3.5519,-3.5519,-3.5519,-3.5519,-3.5519,-3.5519,-3.5519,-3.5519,-3.5519,-3.5519,-3.5804,-3.5929,-3.6116,-3.8148,-3.9787,-4.1136,-4.2137,-4.2829,-4.3389,-4.4119,-4.4276,-4.4012,-4.3234,-4.297,-4.2861,-4.2117,-4.1847,0.0,0.0,0.0,0.0,0.0,0.0,0.0,0.0,0.0,0.0,0.0,0.0,0.0,0.0,0.0,0.0,0.0,0.0,0.0,-5.7191,-5.9832,-6.2549,-6.581,-6.6145,-6.6402,-6.7357,-6.7614,-6.7173,-6.5888,-6.6366,-6.6329,-6.5375,-6.4714,-6.4457,-6.4824,-6.3539,-6.2438,-6.163,-6.0823,-6.0015,-5.9184,-5.84,-5.7997,-5.7997,0.0,0.0,-5.6748,-5.5133,-5.4085,-5.3445,-5.1904,-5.0401,-4.8977,-4.7649,-4.6167,-4.4803,-4.4906,-4.4175,-4.3022,-4.2618,-4.1546,-4.0254,-2.9564,-2.9834,-3.0133,-3.0462,-3.0791,-3.1092,-3.1451,-3.1511,-3.1989,-3.3335,-3.3484,-3.3993,-3.537,-3.5519,-3.5519,-3.5519,-3.5519,-3.5519,-3.5519,-3.5519,-3.5519,-3.5519,-3.5519,-3.5519,-3.5519,-3.5519,-3.5519,-3.5519,-3.5848,-3.5998,-3.5998,-3.6327,-3.6297,-3.5998,-3.6327,-3.6297,-3.5998,-3.5998,-3.5998,-3.6091,-3.7188,-3.8073,-3.9057,-4.1689,-4.2707,-4.2867,-4.4477,-4.4812,-4.447,-4.4136,-4.4012,-4.3876,-4.3098,-4.2591,-4.2219,0.0,0.0,0.0,0.0,0.0,0.0,0.0,0.0,0.0,0.0,0.0,0.0,0.0,0.0,-4.8005,-5.0172,0.0,-5.5314,-5.9187,-6.1458,-6.3595,-6.6094,-6.6848,-6.71,-6.71,-6.71,-6.6769,-6.5999,-6.6256,-6.6329,-6.5925,-6.5154,-6.4714,-6.4714,-6.3099,-6.2034,-6.1594,-6.0419,-5.9588,-5.9184,-5.84,-5.7997,-5.7997,-5.6785,-5.6198,-5.6124,-5.4546,-5.3375,-5.2618,-5.1144,-4.968,-4.8162,-4.5944,-4.4429,-4.3464,-4.3464,-4.299,-4.2252,-4.188,-4.1035,-4.0113,-3.0492,-3.0612,-3.0702,-3.0702,-3.1122,-3.1511,-3.1511,-3.1511,-3.1989,-3.3335,-3.3484,-3.3993,-3.537,-3.5519,-3.5519,-3.5519,-3.5519,-3.5519,-3.5519,-3.5639,-3.5639,-3.5519,-3.5639,-3.5699,-3.5699,-3.5699,-3.5759,-3.5878,-3.6417,-3.6656,-3.6686,-3.7165,-3.7135,-3.6686,-3.7195,-3.7135,-3.6656,-3.6656,-3.6656,-3.6686,-3.6806,-3.6866,-3.7278,-4.0968,-4.2102,-4.2077,-4.4424,-4.4801,-4.4233,-4.4697,-4.4615,-4.4282,-4.3809,-4.3335,-4.2861,-4.2422,-4.2828,0.0,0.0,0.0,0.0,0.0,0.0,0.0,0.0,0.0,-4.5128,-4.7394,-4.8951,-5.0694,-5.3435,-5.5118,-5.7339,-6.1129,-6.2944,-6.4524,-6.6365,-6.7258,-6.7393,-6.6586,-6.6623,-6.6659,-6.6512,-6.6366,-6.6256,-6.6256,-6.5375,-6.4604,-6.4127,-6.2511,-6.1594,-6.1594,-6.0052,-5.9184,-5.9184,-5.8253,-5.785,-5.796,-5.6198,-5.5427,-5.5537,-5.3814,-5.2504,-5.1611,-4.9918,-4.8399,-4.6975,-4.4429,-4.3064,-4.2489,-4.2185,-4.2083,-4.2016,-4.1407,-4.073,-4.0113,-3.0492,-3.0972,-3.1391,-3.1391,-3.1451,-3.1511,-3.1511,-3.1511,-3.1989,-3.3335,-3.3484,-3.3993,-3.537,-3.5519,-3.5519,-3.5519,-3.5519,-3.5519,-3.5519,-3.6058,-3.6118,-3.5519,-3.6058,-3.6387,-3.6387,-3.6387,-3.6656,-3.7195,-3.7255,-3.7315,-3.7315,-3.7375,-3.7375,-3.7315,-3.7375,-3.7375,-3.7315,-3.7315,-3.7315,-3.7345,-3.7943,-3.8182,-3.8307,-3.942,-4.0266,-4.1258,-4.3649,-4.4045,-4.3641,-4.5105,-4.4688,-4.3639,-4.4248,-4.4857,-4.4925,-4.2895,-4.2828,-4.2929,-4.0722,-4.0764,-4.188,-4.3768,-4.4276,-4.5224,0.0,0.0,-4.9018,-5.1217,-5.2367,-5.3517,-5.5144,-5.667,-5.8735,-6.2114,-6.3357,-6.4741,-6.7204,-6.766,-6.7393,-6.6586,-6.7136,-6.7283,-6.6549,-6.5852,-6.5448,-6.5448,-6.398,-6.3392,-6.4053,-6.2511,-6.1594,-6.1594,-6.0052,-5.9184,-5.9184,-5.7703,-5.7299,-5.796,-5.5647,-5.4913,-5.5537,-5.3281,-5.1479,-5.0064,-4.7355,-4.5728,-4.4862,-4.3836,-4.3341,-4.3166,-4.1847,-4.1339,-4.1305,-4.1238,-4.073,-4.0113,-3.1062,-3.1301,-3.1511,-3.1511,-3.1511,-3.1511,-3.1511,-3.1511,-3.1989,-3.3335,-3.3484,-3.3993,-3.537,-3.5519,-3.5519,-3.5519,-3.5519,-3.5519,-3.5519,-3.6118,-3.6357,-3.6088,-3.6686,-3.7015,-3.7015,-3.7015,-3.7165,-3.7404,-3.8182,-3.8571,-3.8601,-3.9349,-3.9529,-3.917,-3.9559,-3.929,-3.8571,-3.8571,-3.8362,-3.8003,-3.8272,-3.8153,-3.7883,-3.8571,-3.8822,-3.913,-4.1461,-4.2398,0.0,-4.3455,-4.3574,-4.3443,-4.3809,-4.3809,-4.3538,-4.2557,-4.2828,-4.3301,-4.2855,-4.2956,-4.3504,0.0,-4.5872,-4.7056,-4.9018,-4.956,-5.0135,-5.1928,-5.3619,-5.5108,-5.6156,-5.7915,-5.9803,0.0,-6.3411,-6.4906,-6.5987,-6.7053,-6.7393,-6.6586,-6.721,-6.7357,-6.6586,-6.5778,-6.5485,-6.5962,-6.4494,-6.3723,-6.4053,-6.2071,-6.0896,-6.0896,-5.9355,-5.851,-5.851,-5.785,-5.7446,-5.7299,-5.5794,-5.4773,-5.4213,-5.2736,-5.0865,-4.8627,-4.7039,-4.5399,-4.3842,-4.3064,-4.2523,-4.2016,-4.0967,-4.0561,-4.0561,-4.0561,-4.0383,-4.0113,-3.1511,-3.1511,-3.1511,-3.1511,-3.1511,-3.1511,-3.1511,-3.1511,-3.1989,-3.3335,-3.3484,-3.3993,-3.537,-3.5519,-3.5519,-3.5519,-3.5519,-3.5519,-3.5519,-3.6267,-3.6656,-3.6507,-3.7255,-3.7764,-3.7973,-3.7973,-3.8123,-3.8512,-3.9499,-3.9948,-3.9978,-4.0935,-4.1115,-4.0696,-4.1175,-4.0846,-3.9948,-3.9948,-3.9679,-3.923,-3.923,-3.8811,-3.8272,-3.8571,-3.8272,-3.7901,-3.9588,-4.0474,-4.0896,-4.1469,-4.2033,-4.2528,-4.2729,-4.2699,-4.2523,-4.2117,-4.2219,-4.2726,-4.3673,-4.4276,0.0,-4.6007,-4.7567,-4.8987,-4.9729,-5.0507,-5.1386,-5.2672,-5.4431,-5.6055,-5.7205,-5.8896,-6.0495,-6.1783,-6.3481,-6.4732,-6.4966,-6.6151,-6.6765,-6.6181,-6.6663,-6.6806,-6.6219,-6.5632,-6.5448,-6.5815,-6.431,-6.3392,-6.3392,-6.13,-6.0089,-6.0089,-5.8731,-5.7997,-5.7997,-5.7776,-5.7373,-5.6785,-5.5757,-5.4588,-5.3255,-5.1633,-4.9552,-4.7169,-4.6504,-4.5263,-4.3673,-4.2929,-4.2185,-4.1441,-4.0696,-4.0282,-4.0113,-4.0113,-4.0113,-4.0113,-3.1511,-3.1511,-3.1511,-3.1511,-3.1511,-3.1511,-3.1511,-3.1511,-3.1989,-3.3335,-3.3484,-3.3993,-3.537,-3.5519,-3.5519,-3.5519,-3.5519,-3.5519,-3.5519,-3.6686,-3.7105,-3.6507,-3.7674,-3.8661,-3.9313,-3.9313,-3.9978,-4.1265,-4.1332,-4.1324,-4.1324,-4.1392,-4.1422,-4.1354,-4.1422,-4.1392,-4.1324,-4.1324,-4.1362,-4.1332,-4.1332,-4.0905,-4.0247,-3.9619,-3.896,-3.8412,-3.8659,-3.8305,-3.7966,-3.9556,-4.0134,-4.0337,-4.1036,-4.2211,-4.3071,-4.1644,-4.073,-4.0519,-4.1948,-4.3464,-4.5094,-4.7293,-4.9461,-5.1286,-5.2029,-5.2807,-5.3619,-5.4363,-5.5141,-5.6393,-5.8558,-5.9573,-6.0894,-6.3224,-6.3684,-6.4042,-6.4866,-6.5095,-6.517,-6.517,-6.5278,-6.5375,0.0,-6.5301,-6.5007,-6.4237,-6.2622,-6.1667,-6.1667,-6.0126,-5.9221,-5.9221,-5.8437,-5.7997,-5.7997,-5.7226,-5.6822,-5.6785,-5.5207,-5.4018,-5.3195,-4.9573,-4.7141,-4.5732,-4.4987,-4.4649,-4.4513,-4.3707,-4.2929,-4.2185,-4.1441,-4.073,-4.0113,-4.0113,-4.0113,-4.0113,-3.1511,-3.191,-3.2216,-3.2216,-3.2598,-3.2891,-3.2891,-3.2104,-3.1989,-3.3335,-3.4262,0.0,0.0,0.0,0.0,0.0,-3.5519,-3.5519,-3.5519,-3.6327,-3.6716,-3.6507,-3.7704,-3.8721,-3.9373,-3.9858,-4.0487,-4.1422,-4.1871,-4.2252,-4.2671,-4.2671,-4.315,-4.3928,-4.306,-4.2671,-4.2641,-4.2222,-4.1811,-4.1354,-4.0905,-4.0606,-4.0217,-3.8661,-3.7943,-3.7618,0.0,-3.7022,-3.7623,-3.7715,-3.8128,-3.8695,-3.9429,-4.0023,-4.0427,-4.0466,-4.0629,-4.1136,-4.2625,-4.4147,-4.5974,-4.868,-5.0304,-5.1523,-5.2807,-5.3315,-5.3585,-5.3822,-5.4059,-5.4634,-5.5852,-5.707,-5.8499,-6.0291,-6.1939,-6.3065,-6.338,-6.391,-6.3743,-6.2205,-6.3488,0.0,0.0,0.0,0.0,-6.3319,-6.2732,-6.2144,-6.163,-6.0566,-6.0015,-6.0015,-5.8694,-5.7997,-5.7997,-5.7189,-5.6528,-5.5978,-5.3423,-5.1551,-5.0321,-4.8643,-4.7053,-4.5703,-4.5432,-4.5026,-4.4513,-4.32,-4.2523,-4.2185,-4.0959,-4.0316,-4.0113,-4.0113,-4.0113,-4.0113,0.0,-3.2625,-3.2975,-3.2975,-3.3135,0.0,0.0,0.0,0.0,0.0,0.0,0.0,0.0,0.0,0.0,0.0,0.0,-3.504,-3.4801,-3.54,-3.5878,-3.6118,-3.7135,-3.8123,-3.902,-3.9469,-4.0008,-4.0696,-4.1354,-4.1983,-4.2641,-4.288,-4.3569,-4.4556,-4.3678,-4.329,-4.326,-4.2641,-4.2021,-4.1324,-4.0666,-4.0098,-3.9529,-3.7973,-3.7285,0.0,-3.5878,-3.6086,-3.6778,-3.6349,-3.6722,-3.7499,-3.8274,-3.8881,-3.9487,-4.0264,-4.0832,-4.1644,-4.3673,-4.5162,-4.6752,-4.9424,-5.0845,-5.186,-5.2841,-5.3281,-5.3416,-5.3145,-5.3078,-5.3315,-5.4059,-5.5209,-5.6494,-5.7983,-5.9718,-6.1007,-6.1282,-6.1847,-6.175,-6.0554,-6.1798,-6.222,0.0,0.0,0.0,-6.2377,-6.2108,-6.1594,-6.0786,-5.9979,-5.9538,-5.9538,-5.8547,-5.7997,-5.7997,-5.7483,-5.6585,-5.5186,-5.1882,-4.9695,-4.8474,-4.7544,-4.6447,-4.5297,-4.5297,-4.5026,-4.4513,-4.32,-4.2523,-4.2185,-4.0967,-4.035,-4.0113,-4.0113,-4.0113,-4.0113,0.0,0.0,-3.3675,0.0,0.0,0.0,0.0,0.0,0.0,0.0,0.0,0.0,0.0,0.0,0.0,0.0,0.0,0.0,-3.3636,-3.4114,-3.4741,-3.5429,-3.6088,-3.7045,-3.8302,-3.8362,-3.8721,-3.9373,-4.0038,-4.0696,-4.1354,-4.1961,-4.2581,-4.32,-4.311,-4.311,-4.311,-4.2491,-4.1901,-4.1235,-4.0576,-3.9529,-3.8302,-3.7614,-3.6985,-3.6387,-3.5729,-3.5519,-3.5519,-3.5519,-3.6006,-3.6813,-3.765,0.0,0.0,-4.1035,-4.1271,-4.1948,-4.4857,-4.621,-4.7327,-4.9492,-5.1116,-5.2198,-5.2232,-5.2841,-5.3179,-5.2367,-5.2164,-5.2367,0.0,0.0,-5.4905,-5.6393,-5.734,-5.8152,-5.8896,-5.9112,-5.9424,0.0,0.0,0.0,0.0,0.0,0.0,-6.1372,0.0,-6.0052,-5.9221,-5.8474,-5.807,-5.807,-5.8033,-5.7997,-5.7997,-5.79,-5.6682,-5.4361,-5.0708,-4.8508,-4.7692,-4.6385,-4.5331,-4.4615,-4.4615,-4.4615,-4.4547,-4.3707,-4.2929,-4.2219,-4.1441,-4.0696,-4.0113,-4.0113,-4.0113,-4.0113,0.0,0.0,0.0,0.0,0.0,0.0,0.0,0.0,0.0,0.0,0.0,0.0,0.0,0.0,0.0,0.0,0.0,0.0,-3.5062,-3.4212,-3.4053,-3.4711,-3.54,-3.6357,-3.7644,-3.8153,-3.8721,-3.9373,-3.9553,-4.0008,-4.0636,-4.0307,-4.0786,-4.1833,-4.0846,-4.0696,-4.1115,-4.0457,-4.0068,-3.9858,-3.917,-3.8691,-3.8272,-3.7135,-3.6626,-3.6387,-3.5729,-3.5519,-3.5519,-3.5519,0.0,0.0,0.0,-4.0147,-4.1068,0.0,0.0,-4.3166,-4.4519,-4.5805,-4.7192,-4.8883,-4.9965,-5.0811,-5.1352,-5.1657,-5.1589,-5.0811,-5.0202,-4.9729,-4.939,-5.0845,0.0,-5.4093,-5.6325,0.0,-5.8896,-5.905,0.0,-5.7051,0.0,-5.9088,-5.8188,-5.9016,0.0,0.0,-5.9848,-6.0052,-5.9221,-5.9001,-5.8914,-5.8914,-5.8327,-5.7997,-5.7997,-5.6332,-5.4325,-5.1973,-5.0445,-4.8781,-4.7043,-4.667,-4.5805,-4.4615,-4.4615,-4.4615,-4.4513,-4.3132,-4.2455,-4.2151,-4.0891,-4.0282,-4.0113,-4.0113,-4.0113,-4.0113,0.0,0.0,0.0,0.0,0.0,0.0,0.0,0.0,0.0,0.0,0.0,0.0,0.0,0.0,0.0,0.0,0.0,0.0,0.0,-3.3696,-3.3365,-3.4023,-3.4412,-3.522,-3.6537,-3.6926,-3.7165,-3.7255,-3.7853,-3.8332,-3.8691,-3.8871,-3.9529,-4.0487,-3.9738,-3.9619,-3.9918,-3.926,-3.8811,0.0,0.0,-3.7375,-3.7045,-3.6327,-3.6058,-3.5998,-3.5639,-3.5929,-3.6589,0.0,0.0,-3.952,-4.0696,-4.1577,-4.232,-4.3064,0.0,-4.3673,-4.479,-4.5669,-4.6684,-4.8173,-4.9086,-4.9729,-5.0135,-5.0507,-5.0439,-4.9357,-4.8545,-4.7902,-4.7496,-4.8984,-5.0642,0.0,0.0,0.0,-5.7476,-5.7848,-5.7577,0.0,-5.7292,0.0,-5.6963,-5.7405,-5.7666,0.0,-5.869,-5.9053,-5.8227,-5.8493,-5.8694,-5.8694,-5.8253,-5.7697,-5.7036,-5.5094,-5.3112,-5.1162,-4.9752,-4.825,-4.6786,-4.6447,-4.5669,-4.4615,0.0,-4.4615,-4.4479,-4.2956,-4.2286,-4.2151,-4.0688,-4.0113,-4.0113,-4.0113,-4.0113,-4.0113,0.0,0.0,0.0,0.0,0.0,0.0,0.0,0.0,0.0,0.0,-3.8025,-3.8602,-3.8161,-3.8012,0.0,0.0,0.0,0.0,0.0,0.0,-3.3006,-3.391,-3.3727,-3.4265,-3.5621,-3.5554,-3.5254,-3.4781,-3.5854,-3.646,-3.6688,-3.7567,-3.8402,-3.9013,-3.8936,-3.8901,-3.8835,-3.8272,-3.7674,-3.7105,-3.6567,-3.6028,-3.5519,0.0,-3.5549,-3.5639,-3.5639,-3.6523,-3.7935,0.0,-4.0691,-4.1498,-4.244,-4.3198,-4.3842,-4.4519,-4.4248,-4.3978,-4.5229,-4.5703,-4.6143,-4.7432,-4.8376,-4.8984,-4.8883,-4.9357,-4.939,-4.7906,-4.709,-4.6616,-4.6515,-4.7699,-4.9018,-4.9932,0.0,-5.4634,-5.5581,-5.6258,-5.663,-5.6528,-5.6596,-5.6642,-5.6595,-5.5939,-5.5841,-5.6534,-5.7211,-5.7361,-5.6757,-5.734,-5.7666,-5.7666,-5.7617,-5.6903,-5.5527,-5.3993,-5.2509,-5.1095,-4.9035,-4.7631,-4.6786,-4.6143,-4.5399,-4.4615,-4.4615,-4.4547,-4.4344,-4.2895,-4.2219,-4.2016,-4.0654,-4.0113,-4.0113,-4.0113,-4.0113,-4.0113,0.0,0.0,0.0,0.0,0.0,0.0,0.0,0.0,0.0,-3.8495,-3.8293,-3.8479,0.0,0.0,0.0,0.0,0.0,0.0,0.0,0.0,0.0,-3.6144,-3.5003,-3.4998,-3.6384,-3.5814,-3.5753,-3.623,-3.5874,-3.6316,-3.7543,-3.6496,-3.6388,-3.706,-3.6444,-3.6178,-3.6178,-3.6058,-3.5938,-3.5818,-3.5729,-3.5609,-3.5519,-3.5519,0.0,0.0,-3.6327,-3.6886,-3.7966,-4.0194,-4.1439,-4.244,-4.4481,-4.5211,-4.5331,-4.5466,-4.5399,-4.5229,-4.4857,-4.5669,-4.665,-4.6921,-4.8003,-4.8849,-4.824,-4.8176,0.0,0.0,-4.5974,-4.5703,-4.506,-4.6177,-4.78,-4.9763,-5.1555,-5.3416,-5.5446,-5.5818,-5.5683,0.0,-5.5513,-5.5685,-5.5043,-5.4873,0.0,0.0,-5.513,-5.5402,-5.5865,-5.6031,-5.6114,-5.6114,-5.5499,-5.4732,-5.3851,-5.239,-5.1204,-5.0212,-4.9278,-4.8105,-4.6786,-4.665,-4.5872,-4.4615,-4.4615,0.0,-4.3538,-4.2658,-4.1948,-4.1305,-4.0451,-4.0113,-4.0113,-4.0113,-4.0113,-4.0113,0.0,0.0,0.0,0.0,0.0,0.0,-3.6694,-3.7415,-3.8159,-3.8903,-3.87,-3.887,-3.9977,-3.9774,-3.9556,0.0,0.0,0.0,0.0,0.0,0.0,-3.6758,-3.6077,-3.6187,-3.7203,-3.6874,-3.6506,-3.6073,0.0,-3.6476,-3.6104,-3.6075,-3.607,-3.6006,-3.5651,-3.5519,-3.5519,-3.5519,-3.5519,-3.5519,-3.5519,-3.5519,-3.5549,0.0,0.0,0.0,0.0,0.0,0.0,-4.0321,-4.1815,-4.3264,-4.5568,-4.6278,-4.621,-4.5805,-4.5432,-4.5026,-4.4716,-4.5399,-4.6312,-4.6684,-4.7631,-4.824,-4.7496,0.0,0.0,0.0,-4.5128,-4.5026,-4.4682,-4.5833,-4.7124,-4.8206,-5.027,-5.2266,-5.3721,-5.4634,-5.5006,-5.4634,-5.4905,-5.4837,-5.4093,-5.4025,-5.4025,-5.4025,-5.402,-5.4359,-5.5084,-5.5495,-5.5511,-5.515,-5.4788,-5.3851,-5.2334,-5.1644,-5.0685,-4.9492,-4.9168,-4.824,-4.6786,-4.6786,-4.6003,-4.4615,-4.4615,-4.4378,-4.3944,-4.276,-4.2083,-4.1644,-4.0553,-4.0113,-4.0113,-4.0113,-4.0113,-4.0113,0.0,0.0,0.0,0.0,0.0,0.0,-3.6907,-3.7652,-3.8396,-3.914,-3.9242,-3.9469,-4.0045,-3.9977,-3.9859,0.0,0.0,0.0,0.0,0.0,0.0,0.0,0.0,0.0,0.0,0.0,0.0,-3.6326,-3.7303,0.0,0.0,0.0,0.0,0.0,-3.5554,-3.5519,-3.5519,-3.5519,-3.5519,0.0,0.0,-3.5579,0.0,0.0,0.0,0.0,0.0,0.0,0.0,0.0,-4.1596,-4.3015,-4.5127,-4.6245,-4.665,-4.594,-4.5399,-4.5089,-4.5089,-4.5602,-4.6312,-4.6887,-4.7597,-4.7902,-4.6989,-4.6786,0.0,-4.4919,-4.4615,-4.4615,-4.4615,-4.5563,-4.6481,-4.6955,-4.8984,-5.0947,-5.2131,-5.3348,-5.416,-5.4329,-5.4363,0.0,-5.3551,-5.3518,0.0,-5.3518,-5.3348,-5.3478,-5.4083,-5.463,-5.4636,-5.3886,-5.371,-5.2793,-5.107,-5.0897,-5.0227,-4.9018,-4.8849,-4.8071,-4.6786,-4.6616,-4.5838,-4.4615,-4.4615,-4.4513,-4.4215,-4.2861,-4.2185,-4.1914,-4.062,-4.0113,-4.0113,-4.0113,-4.0113,-4.0113,0.0,0.0,0.0,0.0,0.0,0.0,-3.7686,-3.843,-3.914,-3.991,-4.0011,-4.0011,-4.0079,-3.9503,-3.9059,0.0,0.0,0.0,0.0,0.0,0.0,0.0,0.0,0.0,0.0,0.0,0.0,-3.8619,-3.8044,0.0,0.0,0.0,0.0,0.0,0.0,-3.5519,-3.5519,-3.5519,0.0,0.0,0.0,0.0,0.0,0.0,0.0,0.0,0.0,0.0,0.0,0.0,0.0,-4.0414,-4.2013,-4.45,-4.665,-4.594,0.0,0.0,-4.6583,-4.7158,-4.7703,-4.777,-4.8376,-4.8545,-4.7124,0.0,-4.638,-4.4919,-4.4615,-4.4615,-4.4615,-4.4716,-4.5432,-4.7496,-4.8007,-4.9156,-5.1928,-5.2435,-5.2773,-5.3518,0.0,0.0,-5.3518,-5.3518,-5.3518,-5.3518,-5.2841,-5.2434,-5.2533,-5.2564,-5.2257,-5.1543,-5.0861,-5.0422,-5.0193,-4.9548,-4.9145,-4.8984,-4.8342,-4.7597,-4.6786,-4.6109,-4.5365,-4.4615,-4.4615,-4.4181,0.0,-4.2625,-4.1914,-4.1204,-4.0417,-4.0113,-4.0113,-4.0113,-4.0113,-4.0113,0.0,0.0,0.0,0.0,0.0,0.0,-3.7787,-3.8531,-3.9242,-4.0011,-4.0113,-4.0113,-4.0113,-3.9842,-3.9649,-3.9603,-3.961,0.0,0.0,0.0,0.0,0.0,0.0,0.0,0.0,0.0,-3.9334,-3.9627,-3.8864,0.0,0.0,0.0,0.0,0.0,0.0,-3.6165,-3.6165,-3.6165,0.0,0.0,0.0,0.0,0.0,0.0,0.0,0.0,0.0,0.0,-3.8552,-3.9637,0.0,0.0,-3.9814,-4.1211,0.0,0.0,-4.451,-4.5568,-4.6007,-4.7022,-4.7906,-4.7906,-4.8108,-4.797,-4.6481,-4.6143,-4.5568,-4.3606,-4.3972,-4.4479,-4.3978,-4.4248,-4.4886,-4.5771,-4.6278,-4.7158,-4.8748,-4.9763,-5.0777,-5.1995,-5.2131,0.0,0.0,0.0,-5.2773,-5.2773,-5.2063,-5.1454,-5.098,-5.142,-5.1319,-5.0574,-5.0236,-4.9864,-4.9424,-4.9154,-4.9018,-4.8984,-4.8274,-4.753,-4.6752,-4.6041,-4.5297,-4.4615,-4.4615,-4.4147,0.0,-4.2591,-4.188,-4.1136,-4.0383,-4.0113,-4.0113,-4.0113,-4.0113,-4.0113,0.0,0.0,0.0,0.0,0.0,-3.728,-3.7821,-3.87,-3.9537,-4.0045,-4.0113,-4.0113,-4.0113,-4.0113,-4.0113,-4.0113,-4.0113,0.0,0.0,0.0,0.0,0.0,0.0,0.0,0.0,0.0,-4.022,-4.0419,-3.986,-3.9434,0.0,0.0,-3.7698,-3.7727,0.0,0.0,0.0,0.0,0.0,0.0,0.0,0.0,0.0,0.0,0.0,0.0,0.0,0.0,0.0,0.0,0.0,0.0,0.0,0.0,0.0,0.0,-4.3198,-4.4798,-4.5747,-4.7124,-4.824,-4.824,-4.8041,-4.7567,-4.6312,-4.5872,-4.5196,-4.3335,-4.3836,-4.4445,-4.3876,-4.4215,-4.4682,-4.4886,-4.5365,-4.6041,-4.6989,-4.8037,-4.9154,-5.0405,0.0,-5.0845,0.0,-5.186,-5.1961,-5.1961,-5.1285,-5.0642,-5.0135,-5.0405,-5.0304,-4.9796,-4.9763,-4.9526,-4.9018,-4.9018,-4.8883,-4.868,-4.7936,-4.7192,-4.6447,-4.5703,-4.4959,-4.4248,-4.4513,-4.4012,0.0,-4.2523,-4.188,-4.1136,-4.0383,-4.0113,-4.0087,-3.985,-3.974,-3.9714,0.0,0.0,0.0,0.0,0.0,-3.7889,-3.7922,-3.914,-4.0079,-4.0113,-4.0113,-4.0113,-4.0113,-4.0113,-4.0113,-4.0113,-4.0113,0.0,0.0,0.0,0.0,0.0,0.0,0.0,-4.0113,-4.0113,-4.046,-4.1178,-4.1178,-4.0724,-3.99,-4.0013,-3.9166,-3.7591,0.0,0.0,0.0,0.0,0.0,0.0,0.0,0.0,-3.8452,0.0,0.0,0.0,0.0,0.0,0.0,0.0,0.0,0.0,0.0,-3.6586,-3.7246,-4.0315,-4.2782,-4.4846,-4.6372,-4.7868,-4.8984,-4.8984,-4.8443,-4.7703,-4.6955,-4.621,-4.55,-4.475,-4.4581,-4.4615,-4.4581,-4.4615,-4.4852,-4.5568,-4.5703,-4.621,-4.7669,-4.7906,-4.8176,0.0,0.0,-4.9323,-5.0033,-5.0777,-5.1185,-5.1185,-5.0541,0.0,-5.0101,-4.9424,-4.9018,-4.9018,-4.9018,-4.9018,-4.9018,-4.9018,-4.8646,-4.7906,-4.7158,-4.6413,-4.5703,-4.4925,-4.4181,-4.3443,-4.4248,-4.3735,0.0,-4.2286,-4.188,-4.1136,-4.0383,-4.0113,-3.9978,-3.9209,-3.8908,-3.8799,0.0,0.0,0.0,0.0,0.0,0.0,-3.8565,-3.9503,-4.0113,-4.0113,-4.0113,-4.0113,-4.0113,-4.0113,-4.0113,-4.0113,-4.0113,0.0,0.0,0.0,0.0,0.0,0.0,0.0,-4.0113,-4.0595,-4.1204,-4.1948,-4.1458,-4.1577,-4.2242,-4.0733,-3.9997,-3.9876,-3.8695,-3.7836,0.0,0.0,0.0,0.0,0.0,-3.8661,-3.911,0.0,0.0,0.0,0.0,0.0,0.0,0.0,0.0,0.0,0.0,0.0,0.0,-3.7618,-4.0062,-4.2597,-4.4052,-4.5602,-4.6752,-4.6752,-4.6583,-4.6075,-4.479,-4.4722,-4.4277,-4.1899,-4.2617,-4.3367,-4.2272,-4.296,-4.3809,-4.4042,-4.4548,-4.5094,0.0,0.0,0.0,-4.8173,-4.9154,-4.983,0.0,0.0,-4.9932,-5.0405,-4.9763,-4.9357,-4.9357,-4.912,-4.9018,-4.9018,-4.9018,-4.9018,-4.9018,-4.8511,-4.8108,-4.7872,-4.665,-4.594,-4.5669,-4.4384,-4.3639,-4.3375,-4.3132,-4.2455,-4.1542,-4.1542,-4.1102,-4.0451,-4.018,-3.974,-3.9262,-3.8989,-3.858,-3.8104,0.0,0.0,0.0,0.0,0.0,0.0,-3.8937,-3.9639,-4.0113,-4.0113,-4.0113,-4.0113,-4.0113,-4.0113,-4.0214,-4.0493,-4.0519,0.0,0.0,0.0,0.0,0.0,0.0,0.0,-4.0493,-4.0967,-4.1847,-4.3193,-4.2719,-4.3079,-4.4131,-4.2422,-4.1511,-4.1309,-3.9811,-3.8717,0.0,0.0,0.0,0.0,-3.8512,-3.902,-3.9343,0.0,0.0,0.0,0.0,0.0,0.0,0.0,0.0,0.0,0.0,0.0,0.0,0.0,-3.7953,-3.9859,-4.1621,-4.3451,-4.4733,-4.4434,-4.4175,-4.371,-4.275,-4.2684,-4.2303,-4.034,-4.1069,-4.1764,-4.0761,-4.1389,-4.2143,-4.2407,-4.2894,-4.3418,0.0,0.0,0.0,-4.6812,0.0,0.0,0.0,-4.912,-4.9187,-4.9627,-4.9018,-4.8714,-4.8984,-4.8477,-4.8308,-4.8578,-4.8578,-4.8578,-4.8578,-4.7868,-4.7361,-4.7056,-4.6143,-4.5568,-4.5229,-4.3978,-4.3267,-4.2963,-4.2489,-4.1711,0.0,-4.1102,-4.0764,-4.0087,-3.9765,-3.9342,-3.8827,-3.8241,-3.7729,-3.7324,0.0,0.0,0.0,0.0,0.0,0.0,-3.9073,-3.9673,-4.0113,-4.0113,-4.0113,-4.0113,-4.0113,-4.0113,-4.0417,-4.1136,-4.1204,0.0,0.0,0.0,0.0,0.0,0.0,-4.0493,-4.1271,-4.1407,-4.2489,-4.4615,-4.466,-4.4959,-4.5555,-4.4772,-4.3551,-4.2013,-4.0471,-3.9292,0.0,0.0,0.0,-3.8452,-3.914,-3.9379,0.0,0.0,0.0,0.0,0.0,0.0,0.0,0.0,0.0,0.0,0.0,0.0,0.0,0.0,0.0,0.0,0.0,-4.1346,-4.2906,-4.2198,-4.1528,-4.1016,-4.0984,-4.0439,0.0,-3.9834,-3.9866,-3.99,-3.9903,-3.9934,-4.0188,-4.0862,-4.1022,0.0,0.0,-4.31,0.0,0.0,-4.6027,0.0,-4.772,-4.8486,-4.8923,-4.8984,-4.8342,-4.8206,-4.8883,-4.7564,-4.7124,-4.7804,-4.777,-4.777,-4.7804,-4.709,-4.638,-4.5703,-4.5669,-4.5263,-4.4581,-4.3707,-4.2963,0.0,-4.2185,-4.1365,-4.0146,-4.0832,-4.0671,-3.9927,-3.9209,-3.8827,-3.8547,-3.7112,-3.6569,-3.6415,0.0,0.0,0.0,0.0,0.0,0.0,0.0,0.0,0.0,0.0,-4.0113,-4.0113,-4.0113,-4.0113,-4.0417,0.0,0.0,0.0,0.0,0.0,0.0,0.0,-4.1238,-4.1271,-4.2016,-4.3227,-4.4073,-4.4615,-4.502,-4.5629,-4.6484,-4.558,-4.4331,-4.2815,-4.1917,-4.0091,0.0,0.0,-3.8392,-3.8452,-3.914,-3.911,0.0,0.0,0.0,0.0,-3.6926,-3.7015,0.0,0.0,0.0,0.0,0.0,0.0,0.0,0.0,-3.6165,-3.66,-3.6562,0.0,-4.0059,-4.0467,-4.0407,-4.0118,0.0,-3.9734,-3.9649,-3.8403,-3.8623,-3.8962,-3.8791,-3.932,-3.9999,-4.0653,0.0,-4.2045,-4.2877,0.0,0.0,-4.5201,-4.5846,-4.6413,-4.6841,-4.7502,-4.8225,-4.8956,-4.8342,-4.7973,-4.8142,-4.7293,-4.6887,-4.7056,-4.6515,-4.6481,-4.7056,-4.6346,-4.5872,-4.5703,-4.5128,-4.4784,-4.4547,-4.3166,-4.2455,-4.2219,-4.1128,-4.0417,-4.0113,-4.0282,-3.9882,-3.9183,-3.8962,-3.8185,-3.7114,-3.6722,-3.6259,-3.5718,0.0,0.0,0.0,0.0,0.0,0.0,0.0,0.0,0.0,0.0,-4.0113,-4.0113,-4.0113,-4.0113,-4.0553,0.0,0.0,0.0,0.0,0.0,0.0,-4.2286,-4.1914,-4.2049,-4.2794,-4.3272,-4.4179,-4.5602,-4.5502,-4.6046,-4.7151,-4.5864,-4.469,-4.3519,-4.207,-4.0287,-3.8362,-3.8721,-3.8871,-3.8901,-3.926,0.0,0.0,0.0,0.0,0.0,-3.6267,-3.6237,0.0,-3.5729,-3.5729,-3.5968,0.0,0.0,0.0,0.0,-3.5782,-3.6071,-3.6038,-3.6909,-3.7924,-3.8362,-3.8183,-3.7904,-3.781,-3.7873,-3.7685,0.0,0.0,0.0,-3.7087,-3.7725,0.0,0.0,-3.9871,0.0,0.0,0.0,-4.3675,-4.4488,-4.4871,-4.5591,0.0,-4.701,-4.7375,-4.8419,-4.7402,-4.6968,-4.7365,-4.638,-4.594,-4.6278,-4.5568,-4.5534,-4.6278,-4.5568,-4.5196,-4.5196,-4.4818,-4.4615,-4.4547,-4.2997,-4.2286,-4.2219,-4.0756,-4.0113,-4.0087,-3.9688,-3.9289,-3.8827,-3.8129,-3.732,-3.6538,-3.6228,-3.5846,-3.5519,0.0,0.0,0.0,0.0,0.0,0.0,0.0,0.0,0.0,0.0,0.0,0.0,0.0,0.0,0.0,0.0,0.0,0.0,0.0,0.0,-4.321,-4.2496,-4.2328,-4.2631,-4.3378,-4.2821,-4.3879,-4.6604,-4.5814,-4.6158,-4.7572,-4.5911,-4.4689,-4.3824,-4.161,-4.0187,-3.9373,-3.9373,-3.9373,-3.9373,-3.9373,0.0,0.0,0.0,0.0,0.0,0.0,0.0,0.0,-3.5519,-3.5519,-3.5519,-3.5519,0.0,0.0,0.0,0.0,0.0,-3.6259,-3.6507,-3.6567,-3.6539,-3.6007,-3.5639,-3.6207,0.0,0.0,0.0,0.0,0.0,0.0,-3.6237,0.0,0.0,0.0,0.0,-4.0516,-4.1265,-4.2146,-4.347,-4.3667,0.0,-4.6645,-4.6228,-4.6243,-4.7245,-4.6043,-4.5611,-4.6376,-4.5274,-4.4886,-4.55,-4.4925,-4.4823,-4.5365,-4.4823,-4.4615,-4.4615,-4.4479,-4.4445,-4.435,-4.2828,-4.2117,-4.2049,0.0,0.0,-4.0062,-3.9236,-3.8827,-3.8608,-3.7142,-3.6538,-3.6353,-3.5718,-3.5519,-3.5519,0.0,0.0,0.0,0.0,0.0,0.0,0.0,0.0,0.0,0.0,0.0,0.0,0.0,0.0,0.0,0.0,0.0,0.0,0.0,-4.3905,-4.3839,-4.3171,-4.2543,-4.2576,-4.3304,-4.3809,-4.4599,-4.5713,-4.534,-4.5987,-4.7539,-4.5718,-4.42,-4.2922,-4.1212,-4.0064,-3.9373,-3.9373,-3.9373,-3.9373,-3.9373,0.0,0.0,0.0,0.0,0.0,0.0,0.0,0.0,-3.5519,-3.5519,-3.5519,-3.5519,0.0,0.0,0.0,0.0,0.0,-3.5651,-3.6075,-3.6539,-3.6567,-3.6066,-3.5519,-3.5639,0.0,0.0,0.0,0.0,0.0,0.0,-3.7195,-3.7674,0.0,0.0,-4.1242,0.0,0.0,-4.289,-4.2672,0.0,-4.3427,-4.3533,-4.3903,-4.4358,-4.4753,-4.4621,-4.4634,-4.4757,-4.4649,-4.4649,-4.4784,-4.4682,-4.4316,-4.3747,-4.4316,-4.4615,-4.4615,-4.391,-4.3606,-4.3538,-4.2049,-4.1373,-4.1305,0.0,-4.0113,-4.0062,-3.9236,-3.8525,-3.7876,-3.6964,-3.6228,-3.5651,-3.5522,-3.5519,-3.5519,0.0,0.0,0.0,0.0,0.0,0.0,0.0,0.0,0.0,0.0,0.0,0.0,0.0,0.0,0.0,0.0,0.0,0.0,0.0,-4.3485,-4.3487,-4.3292,-4.2428,-4.2365,-4.3259,-4.3548,-4.401,-4.4724,-4.4522,-4.5128,-4.6538,-4.5278,-4.3556,-4.1486,-4.1218,-4.048,-3.9403,-3.9798,-3.9738,-3.9403,0.0,0.0,0.0,0.0,0.0,0.0,0.0,0.0,0.0,0.0,-3.5519,-3.5519,-3.5519,0.0,0.0,0.0,0.0,0.0,-3.5519,-3.5729,-3.6037,-3.6457,-3.6293,-3.6028,-3.6028,-3.5759,0.0,0.0,0.0,0.0,0.0,0.0,-3.8512,-4.0187,0.0,-4.1542,-4.1841,-4.2102,-4.2312,0.0,0.0,-4.2946,-4.3319,-4.3162,-4.3215,-4.3581,-4.3196,-4.317,-4.3786,-4.3481,-4.3489,-4.3944,-4.3572,-4.3166,-4.2828,-4.3166,-4.3538,-4.3944,-4.3606,-4.3375,-4.3341,-4.188,-4.1204,-4.117,0.0,-4.0113,-4.0037,-3.8772,-3.8104,-3.7677,-3.6477,-3.5814,-3.5519,-3.5519,-3.5519,-3.5519,0.0,0.0,0.0,0.0,0.0,0.0,0.0,0.0,0.0,0.0,0.0,0.0,0.0,0.0,0.0,0.0,0.0,0.0,0.0,-4.275,-4.2844,-4.2678,-4.2382,-4.2442,-4.2938,-4.2781,-4.3151,-4.4042,-4.3997,-4.4538,-4.5594,-4.4695,-4.3153,-4.1123,-4.165,-4.1151,-3.9918,-4.0427,-4.0337,-3.9918,0.0,0.0,0.0,0.0,0.0,0.0,0.0,0.0,0.0,0.0,0.0,0.0,0.0,0.0,0.0,-3.5519,-3.5519,-3.5519,-3.5519,-3.5609,-3.5818,-3.6178,-3.6267,-3.6327,-3.6626,-3.6297,0.0,0.0,0.0,0.0,0.0,-3.8093,0.0,-4.1085,-4.1504,-4.1654,-4.1833,-4.1833,-4.2013,-4.256,-4.25,-4.2628,-4.3174,-4.2448,-4.2028,-4.2212,-4.1741,-4.1828,-4.2647,-4.2389,-4.2464,-4.3099,-4.2611,-4.2219,-4.2049,-4.2185,-4.2591,-4.3166,-4.2997,-4.2868,-4.2834,-4.1542,-4.0933,-4.0899,-4.035,-3.9978,-3.9714,-3.8362,-3.7706,-3.7383,-3.6037,-3.5519,-3.5519,-3.5519,-3.5519,-3.5519,0.0,0.0,0.0,0.0,0.0,0.0,0.0,0.0,0.0,0.0,0.0,0.0,0.0,0.0,0.0,0.0,0.0,0.0,-4.006,-4.1693,-4.2155,-4.0925,-4.2792,-4.3203,-4.1856,-4.1783,-4.2435,-4.3811,-4.431,-4.4825,-4.5308,-4.4008,-4.3279,-4.305,-4.2569,-4.194,-4.1235,-4.1294,-4.1294,-4.1242,-4.0636,0.0,0.0,0.0,0.0,0.0,0.0,0.0,0.0,0.0,0.0,0.0,0.0,0.0,-3.5519,-3.5519,-3.5519,-3.5519,-3.5519,-3.5938,-3.6267,-3.5729,-3.5579,-3.5878,-3.7075,-3.7315,0.0,-3.7345,0.0,0.0,0.0,-3.8482,-3.9798,-4.1145,-4.1931,-4.2491,-4.308,0.0,-4.317,-4.323,-4.2731,-4.2209,-4.1618,-4.0943,-4.0321,-3.9709,-4.0335,-4.082,-4.0894,-4.1748,-4.2232,-4.229,-4.2305,-4.1982,-4.1305,-4.1948,-4.232,-4.2354,-4.1677,-4.1373,-4.1339,-4.0527,-4.018,-4.018,-4.0113,-3.9662,-3.8908,-3.8104,-3.7352,-3.6631,-3.5814,-3.5519,-3.5519,-3.5519,-3.5519,-3.5519,0.0,0.0,0.0,0.0,0.0,0.0,0.0,0.0,0.0,0.0,0.0,-4.2671,-4.2898,0.0,0.0,0.0,0.0,0.0,-3.9701,-4.0689,-4.1107,-4.0721,-4.1375,-4.149,-4.0916,-4.2358,-4.3265,-4.3563,-4.497,-4.5303,-4.4676,-4.4586,-4.3898,-4.2731,-4.25,-4.2021,-4.1452,-4.1841,-4.1782,-4.1392,-4.1115,-4.0367,0.0,0.0,0.0,0.0,0.0,0.0,0.0,0.0,-3.5519,-3.5519,-3.5519,-3.5519,-3.5519,-3.5519,-3.5519,-3.5519,-3.5519,-3.5699,-3.5908,-3.6058,-3.5818,0.0,0.0,-3.6836,-3.7075,-3.7853,-3.7883,0.0,0.0,0.0,-4.0337,-4.1235,-4.1961,-4.262,-4.32,-4.3,-4.2731,-4.2731,-4.2201,-4.1542,-4.0816,-4.0546,-4.0127,-3.9433,-3.9702,-3.9947,-4.007,-3.9974,-4.0246,-4.0852,-4.0431,-4.0287,-4.0493,-4.079,-4.0925,-4.0925,-4.1102,-4.1204,-4.117,-4.0451,-4.0113,-4.0113,-4.0113,-3.9636,-3.8854,-3.8104,-3.7322,-3.6538,-3.5782,-3.5519,-3.5519,-3.5519,-3.5519,-3.5519,0.0,0.0,0.0,0.0,0.0,0.0,0.0,0.0,-4.1224,0.0,0.0,0.0,0.0,-4.1263,0.0,0.0,0.0,0.0,-3.8683,-3.9556,-4.0058,-3.9968,-4.0507,-4.0661,-4.0397,-4.2501,-4.3526,-4.3359,-4.5155,-4.5633,-4.4945,-4.4975,-4.4257,-4.301,-4.259,-4.2141,-4.1752,-4.1991,-4.1841,-4.1354,-4.1145,-4.0516,0.0,0.0,0.0,0.0,0.0,0.0,0.0,0.0,-3.5519,-3.5519,-3.5519,-3.5519,-3.5519,-3.5519,-3.5519,-3.5519,-3.5519,-3.5519,-3.5609,0.0,0.0,0.0,-3.6327,-3.6806,-3.7345,-3.8212,-3.8033,0.0,-3.8601,0.0,0.0,0.0,-4.1662,-4.2261,-4.2641,-4.2342,-4.2081,-4.2081,-4.1512,-4.0876,-4.0457,-4.0217,-3.9828,-3.914,-3.908,-3.9063,-3.8987,-3.8542,-3.8716,-3.9662,-3.9194,-3.9289,-4.0113,-4.0113,-4.0113,-4.0113,-4.0595,-4.0832,-4.0832,-4.035,-4.0113,-4.0113,-4.0113,-3.9506,-3.8497,-3.8023,-3.7205,-3.6196,-3.5716,-3.5519,-3.5519,-3.5519,-3.5519,-3.5519,0.0,0.0,0.0,0.0,0.0,0.0,0.0,0.0,-4.0704,-3.9991,-3.99,0.0,0.0,0.0,0.0,0.0,0.0,0.0,-3.6543,-3.8302,-3.911,-3.8422,-4.0511,-4.125,-4.0434,-4.1918,-4.2897,-4.329,-4.4646,-4.5633,-4.6219,-4.4945,-4.4317,-4.4227,-4.298,-4.241,-4.2351,-4.1692,-4.1422,-4.1324,-4.0666,-4.0397,-4.0247,0.0,0.0,0.0,0.0,0.0,0.0,0.0,-3.5519,-3.5519,-3.5519,-3.5519,-3.5519,-3.5519,-3.5519,-3.5519,-3.5519,-3.5519,-3.5489,0.0,0.0,0.0,-3.6327,-3.7464,-3.8392,-3.8392,-3.8392,-3.8601,-3.929,-3.9373,0.0,-4.0277,-4.0935,-4.1422,-4.1422,-4.1384,-4.1422,-4.1422,-4.0786,-4.0397,-4.0397,-3.9798,-3.914,-3.8452,-3.8392,-3.8093,-3.7434,-3.751,-3.7966,-3.8756,-3.8828,-3.9262,-4.0087,-4.0087,-4.0113,-4.0113,-4.0113,-4.0113,-4.0113,-4.0113,-4.0087,-4.0087,-4.0087,-3.9209,-3.7793,-3.7793,-3.6906,-3.5519,-3.5519,-3.5519,-3.5519,-3.5519,-3.5519,-3.5519,0.0,0.0,0.0,0.0,0.0,0.0,0.0,0.0,-3.943,-3.9255,-3.964,0.0,0.0,0.0,0.0,0.0,0.0,0.0,-3.654,-3.7434,-3.8123,-3.8392,-3.9033,-3.9485,-3.9709,-4.1535,-4.3012,-4.4018,-4.4885,-4.5155,-4.4885,-4.4496,-4.3808,-4.298,-4.256,-4.2141,-4.1692,-4.1474,-4.1422,-4.1324,-4.0666,-4.0397,-4.0247,0.0,0.0,0.0,0.0,0.0,0.0,0.0,0.0,0.0,-3.5519,-3.5519,-3.5519,-3.5519,-3.5519,-3.5519,-3.5519,-3.516,0.0,-3.537,0.0,0.0,0.0,-3.6447,0.0,0.0,-3.8781,-3.902,-3.8751,0.0,0.0,-3.9679,-4.0277,-4.0846,-4.1324,-4.0995,-4.0696,-4.0696,-4.0098,-3.9709,-3.9709,-3.908,-3.8601,-3.8392,-3.7973,-3.7434,-3.6806,-3.677,-3.696,-3.7216,-3.7268,-3.793,-3.9262,-3.9262,-3.9558,-4.0113,-4.0113,-4.0113,-4.0087,-3.9532,-3.9262,-3.9262,-3.9262,-3.8353,-3.6904,-3.6384,-3.591,-3.5519,-3.5519,-3.5519,-3.5519,-3.5519,-3.5519,-3.5519,0.0,0.0,0.0,0.0,0.0,0.0,-3.7763,-3.8364,-3.862,-3.8028,-3.8341,-3.865,0.0,0.0,0.0,-3.7798,-3.7345,0.0,-3.6507,-3.6836,-3.7315,-3.7973,-3.8242,-3.896,-4.0157,-4.1662,-4.28,-4.3539,-4.4466,-4.4556,-4.3888,-4.3888,-4.3359,-4.241,-4.241,-4.1901,-4.0965,-4.0696,-4.0457,-4.0157,-3.9768,-3.9768,-3.9888,0.0,0.0,0.0,0.0,0.0,0.0,0.0,0.0,0.0,-3.5519,-3.5519,-3.5519,-3.5519,-3.5519,-3.5519,-3.5519,-3.519,0.0,-3.54,-3.519,-3.4981,-3.54,0.0,0.0,0.0,0.0,-3.8571,-3.8422,-3.8721,0.0,-3.9379,-3.9738,-4.0157,-4.0546,-4.0277,-3.9918,-3.9649,-3.926,-3.8901,-3.8661,-3.8242,-3.7883,-3.7644,-3.7255,-3.6776,-3.6118,-3.6088,-3.6239,-3.66,-3.66,-3.7203,-3.8442,-3.8745,-3.9156,-3.9636,-3.9952,-4.0113,-4.0087,-3.9262,-3.8908,-3.8881,-3.8241,-3.7467,-3.6538,-3.5814,-3.5519,-3.5519,-3.5519,-3.5519,-3.5519,-3.5519,-3.5519,-3.5519,0.0,0.0,-3.869,-3.869,0.0,0.0,-3.7529,-3.7991,-3.7918,-3.658,-3.6387,-3.6626,0.0,0.0,0.0,-3.8123,-3.7165,-3.6447,0.0,-3.6387,-3.6716,-3.7375,-3.8153,-3.9469,-4.1482,-4.2021,-4.2351,-4.241,-4.3569,-4.3808,-4.311,-4.317,-4.288,-4.2321,-4.2321,-4.1572,-4.0277,-3.9619,-3.8931,-3.8302,-3.8362,-3.8781,-3.926,-3.8631,0.0,0.0,0.0,0.0,0.0,0.0,0.0,0.0,-3.5519,-3.5519,-3.5519,-3.5519,-3.5519,-3.5519,-3.5519,-3.5459,0.0,-3.5489,-3.5519,0.0,-3.5519,-3.5968,-3.6567,-3.7195,0.0,-3.7584,-3.8182,-3.8302,-3.8512,-3.914,-3.9254,-3.932,-3.926,-3.9254,-3.908,-3.8392,-3.8302,-3.8063,-3.7464,-3.7375,-3.7075,-3.6537,-3.6417,-3.6118,-3.5549,-3.5519,-3.5814,-3.6477,-3.6508,-3.6873,-3.7706,-3.8358,-3.8772,-3.8908,-3.9636,-3.9978,-3.9952,-3.9183,-3.8772,-3.8635,-3.7144,-3.6538,-3.6538,-3.5814,-3.5519,-3.5519,-3.5519,-3.5519,-3.5519,-3.5519,-3.5519,-3.5519,0.0,0.0,-3.7083,-3.7083,0.0,0.0,-3.5961,-3.6082,-3.6077,-3.5761,-3.5729,-3.5968,-3.6596,-3.6567,0.0,-3.6866,-3.6656,-3.6267,-3.5759,-3.5729,-3.6237,-3.7375,-3.905,-4.0666,-4.2141,-4.1811,-4.1871,-4.241,-4.268,-4.25,-4.1803,-4.2342,-4.2261,-4.1632,-4.1632,-4.0876,-3.9589,-3.8901,-3.8242,-3.7674,-3.8182,-3.8482,-3.8601,-3.8452,-3.8302,0.0,0.0,0.0,0.0,0.0,0.0,0.0,-3.5519,-3.5519,-3.5519,-3.5519,-3.5519,-3.5519,-3.5519,-3.51,0.0,0.0,-3.5519,-3.5519,-3.5519,-3.5609,-3.5908,-3.6537,-3.7075,-3.7464,-3.7584,-3.7614,-3.7674,-3.7823,-3.8272,-3.8422,-3.7913,-3.8272,-3.8362,-3.7704,-3.7614,-3.7554,-3.7434,-3.6956,-3.6626,-3.6507,-3.5998,-3.5639,-3.5519,-3.5519,-3.5554,-3.5718,-3.5718,-3.6101,-3.6843,-3.7024,-3.77,-3.8908,-3.9069,-3.9183,-3.9123,-3.8386,-3.7703,-3.7054,-3.6102,-3.607,-3.6538,-3.5814,-3.5519,-3.5519,-3.5519,-3.5519,-3.5519,-3.5519,-3.5519,-3.5519,0.0,0.0,0.0,0.0,0.0,0.0,0.0,0.0,-3.5519,-3.5519,-3.5519,-3.5759,-3.6417,-3.6477,0.0,0.0,-3.6656,-3.6327,-3.5998,-3.5669,-3.6088,-3.7345,-3.932,-4.0726,-4.1452,-4.1384,-4.1384,-4.1452,-4.1452,-4.1452,-4.1384,-4.1782,-4.1752,-4.1384,-4.1752,-4.0793,-3.8931,-3.8901,-3.8302,-3.7434,-3.7793,-3.8302,-3.8811,-3.8153,-3.7913,-3.7793,-3.6836,0.0,0.0,0.0,0.0,0.0,0.0,0.0,-3.5519,-3.5519,-3.5519,-3.5519,-3.5519,0.0,0.0,-3.54,0.0,-3.5519,-3.5519,-3.5519,-3.5609,-3.5938,-3.6267,-3.6596,-3.6896,-3.6956,-3.7075,-3.7375,-3.7704,-3.7793,-3.7464,-3.7704,-3.7674,-3.7045,-3.6956,-3.6836,-3.6537,-3.6207,-3.6028,-3.6028,-3.5699,-3.5519,-3.5519,-3.5519,-3.5519,-3.5519,-3.5519,-3.5686,-3.607,-3.6415,-3.6993,-3.7815,-3.8189,-3.8189,-3.7787,-3.7411,-3.6814,-3.607,-3.5683,-3.5718,-3.6038,-3.5651,-3.5519,-3.5519,-3.5519,-3.5519,-3.5519,-3.5519,-3.5519,-3.5519,0.0,0.0,0.0,0.0,0.0,0.0,0.0,0.0,0.0,-3.5519,-3.5519,-3.5699,-3.6267,-3.6327,-3.6537,0.0,0.0,0.0,-3.6327,-3.5908,-3.6237,-3.7524,-3.929,-4.0337,-4.0576,-4.0995,-4.0935,-4.0397,-4.0277,-4.0696,-4.1572,-4.1324,-4.1265,-4.1414,-4.1871,-4.0703,-3.8422,-3.8871,-3.8302,-3.7075,-3.7195,-3.7913,-3.8781,-3.7674,-3.7255,-3.7165,-3.6537,-3.5968,-3.5519,-3.5519,0.0,0.0,0.0,0.0,-3.5519,-3.5519,-3.5519,-3.5519,-3.5519,0.0,-3.5519,-3.5519,-3.5519,0.0,-3.5519,-3.5519,-3.5519,-3.5519,-3.5519,-3.5669,-3.6207,-3.6327,-3.6477,-3.6985,-3.7165,-3.7195,-3.7105,-3.7165,-3.7015,-3.6387,-3.6327,-3.6118,-3.5549,-3.5519,-3.5519,-3.5519,-3.5519,-3.5519,-3.5519,-3.5519,-3.5519,-3.5519,-3.5519,-3.5519,-3.5519,-3.6102,-3.6477,-3.66,-3.7263,-3.7233,-3.66,-3.6477,-3.6101,-3.5519,-3.5519,-3.5429,-3.534,-3.5459,-3.5429,-3.534,-3.5459,-3.5519,-3.5519,-3.5519,-3.5519,-3.5519,0.0,0.0,0.0,0.0,0.0,0.0,0.0,0.0,0.0,0.0,-3.5519,-3.5549,-3.5639,-3.5639,-3.5669,-3.5759,-3.5699,-3.5639,-3.5639,0.0,0.0,-3.8212,-3.908,-4.0098,-4.1235,-4.0786,-4.0487,-4.0397,-3.9828,-4.0457,-4.2231,-4.1055,-4.0816,-4.1392,-4.0876,-3.9828,-3.8362,-3.7883,-3.6926,-3.5818,-3.6387,-3.6716,-3.6866,-3.6686,-3.6596,-3.6537,-3.5878,-3.5579,-3.5519,-3.5519,-3.5519,0.0,0.0,0.0,-3.5519,-3.5519,-3.5519,-3.5519,0.0,0.0,-3.5519,0.0,-3.5519,-3.5519,0.0,0.0,-3.5519,0.0,-3.5519,-3.5519,-3.5609,-3.5639,-3.5669,-3.5759,-3.6237,-3.6417,-3.5848,-3.6237,-3.6357,-3.5699,-3.5639,-3.5609,-3.5519,-3.5519,-3.5519,-3.5519,-3.5519,-3.5519,-3.5519,-3.5519,-3.5519,-3.5519,-3.5519,-3.5519,-3.5519,-3.5587,-3.5975,-3.66,-3.6691,-3.6691,-3.6569,-3.5943,-3.5587,-3.5519,-3.5519,-3.516,-3.4683,-3.525,-3.516,-3.4713,-3.528,-3.5519,-3.5519,-3.5519,-3.5519,-3.5519,0.0,0.0,0.0,0.0,0.0,0.0,0.0,0.0,0.0,0.0,0.0,-3.5519,-3.5519,-3.5519,-3.5519,-3.5519,-3.5519,-3.5519,-3.5519,-3.6118,-3.6746,-3.7285,-3.8302,-3.8931,-3.914,-3.923,-3.911,-3.8721,-3.8422,-3.932,-4.1235,-4.0277,-4.0786,-4.2432,-4.1414,-4.0217,-3.8931,-3.8242,-3.7434,-3.65,-3.5908,-3.5884,-3.6148,-3.538,-3.5321,-3.5654,-3.5565,-3.5519,-3.5519,-3.5519,-3.5519,-3.5519,-3.5519,0.0,0.0,0.0,-3.5519,-3.5519,-3.5519,-3.5519,-3.5519,0.0,-3.5519,-3.5519,-3.5519,0.0,-3.5519,-3.5519,-3.5519,-3.5519,-3.5519,-3.5519,-3.5519,-3.5519,-3.5759,-3.5848,-3.5549,-3.5759,-3.5818,-3.5549,-3.5519,-3.5519,-3.5519,-3.5519,-3.5519,-3.5519,-3.5519,-3.5519,-3.5519,-3.5519,-3.5519,-3.5519,-3.5519,-3.5519,-3.5519,-3.5519,-3.5683,-3.5975,-3.5975,-3.5975,-3.5975,-3.5651,-3.5519,-3.5519,-3.5519,-3.534,-3.507,-3.537,-3.534,-3.507,-3.54,-3.5519,-3.5519,-3.5519,-3.5519,-3.5519,0.0,0.0,0.0,0.0,0.0,0.0,0.0,0.0,0.0,0.0,0.0,-3.5519,-3.5519,0.0,0.0,0.0,-3.5519,-3.5519,-3.5519,-3.5968,-3.6297,-3.6477,-3.7554,-3.7913,-3.7434,-3.8063,-3.8063,-3.7404,-3.7404,-3.8512,-4.0636,-3.9654,-4.0609,-4.3078,-4.1748,-4.0397,-3.911,-3.8422,-3.7714,-3.6936,-3.5363,-3.4887,-3.5025,-3.4013,-3.3956,-3.4438,-3.4949,-3.5133,-3.5166,-3.5392,-3.5519,-3.5519,-3.5519,-3.5519,0.0,0.0,0.0,0.0,0.0,0.0,-3.5519,-3.5519,-3.5519,-3.5519,0.0,0.0,-3.5519,0.0,-3.5519,-3.5519,-3.5519,-3.5519,-3.5519,-3.5519,-3.5519,-3.5519,-3.5519,-3.5519,-3.5519,-3.5519,-3.5519,-3.5519,-3.5519,-3.5519,-3.5519,-3.5519,-3.5519,-3.5519,-3.5519,-3.5519,-3.5519,-3.5519,-3.5519,-3.5519,-3.5519,-3.534,-3.516,-3.4981,-3.4981,-3.4981,-3.4981,-3.4981,-3.4981,-3.5011,-3.516,-3.504,-3.4771,-3.4921,-3.4981,-3.5011,-3.519,-3.534,-3.5519,-3.5519,-3.5519,-3.5519,0.0,0.0,0.0,0.0,0.0,0.0,0.0,0.0,0.0,0.0,0.0,-3.5519,-3.5519,-3.5519,-3.5519,-3.5519,-3.5519,-3.5519,-3.5519,-3.5549,-3.5848,-3.6447,-3.7105,0.0,-3.7404,-3.8063,-3.8063,-3.7404,-3.7404,-3.8751,-4.1324,-3.9488,-4.0072,-4.2562,-4.1104,-3.9709,-3.8392,-3.7734,-3.6921,-3.5941,-3.4594,-3.3555,-3.2747,-3.2692,-3.2692,-3.2861,-3.3739,-3.4075,-3.4211,-3.5166,-3.5519,-3.5519,-3.5519,-3.5519,-3.5519,0.0,0.0,0.0,0.0,-3.5519,0.0,-3.5519,-3.5519,0.0,0.0,0.0,0.0,-3.5519,-3.5519,-3.5519,-3.5519,-3.5519,-3.5519,-3.5519,-3.5519,-3.5519,-3.5519,-3.5519,-3.5519,-3.5519,-3.5519,-3.5519,-3.5519,-3.5519,-3.5519,-3.5519,-3.5519,-3.5519,-3.5519,-3.5519,-3.5519,-3.5519,-3.5519,-3.5519,-3.5519,-3.4861,-3.4234,-3.3604,-3.3604,-3.3604,-3.3604,-3.3604,-3.3604,-3.3634,-3.4294,-3.3814,-3.2706,-3.3335,-3.3604,-3.3664,-3.4292,-3.4921,-3.5519,-3.5519,-3.5519,-3.5519,0.0,0.0,0.0,0.0,0.0,0.0,0.0,0.0,0.0,0.0,0.0,0.0,0.0,-3.5519,-3.5519,-3.5519,-3.5519,-3.5519,-3.5519,-3.5519,-3.5609,-3.5848,-3.6866,-3.7225,-3.6836,-3.7434,-3.7129,-3.5862,-3.5453,-3.5845,-3.7034,-3.6682,-3.7052,-3.7974,-3.8246,-3.8307,-3.8069,-3.5894,-3.4973,-3.4826,-3.2946,-3.1983,-3.1719,-3.1719,-3.1719,0.0,0.0,0.0,-3.3255,-3.4211,-3.4543,-3.4643,-3.5294,-3.5519,-3.5519,-3.5519,-3.5519,0.0,0.0,0.0,0.0,-3.5519,-3.5519,-3.5519,-3.5519,-3.5519,-3.5519,-3.5519,-3.5519,-3.5519,-3.5519,-3.5519,-3.5519,-3.5519,-3.5519,-3.5519,-3.5519,-3.5519,-3.5519,-3.5519,-3.5519,-3.5519,-3.5519,-3.5519,-3.5519,-3.5519,-3.5519,-3.5519,-3.5519,-3.5519,-3.531,-3.4861,-3.528,-3.528,-3.4861,-3.4623,-3.4174,-3.3484,-3.3484,-3.3484,-3.3484,-3.3484,-3.3275,-3.2886,-3.3125,-3.3185,-3.3155,-3.3395,-3.3754,-3.4174,-3.4414,-3.4891,-3.5519,-3.5519,-3.5519,-3.5519,0.0,0.0,0.0,0.0,0.0,-3.6716,-3.6507,-3.6118,-3.5759,-3.5519,0.0,0.0,0.0,0.0,-3.5519,-3.5519,-3.5519,-3.5519,-3.5519,-3.5519,-3.5519,-3.5519,-3.6412,-3.6596,-3.5976,-3.6225,-3.5739,-3.4441,-3.3817,-3.3874,-3.4621,-3.4553,-3.4741,-3.5217,-3.5238,-3.5995,-3.704,-3.4785,-3.3918,-3.3816,-3.1942,-3.1007,-3.0759,-3.0941,0.0,0.0,0.0,0.0,0.0,-3.3192,-3.3533,-3.3705,-3.4706,-3.5231,-3.5519,-3.5519,-3.5519,0.0,-3.5519,0.0,0.0,0.0,0.0,-3.5519,-3.5519,0.0,-3.5519,-3.5519,-3.5519,-3.5519,-3.5519,-3.5519,-3.5519,-3.5519,-3.5519,-3.5519,-3.5519,-3.5519,-3.5579,-3.5818,-3.5639,-3.5579,-3.5818,-3.5639,-3.5519,-3.5519,-3.5519,0.0,-3.5519,-3.5519,-3.531,-3.4863,-3.4831,-3.4622,-3.4174,-3.3933,-3.3484,-3.2826,-3.2826,-3.2826,-3.2826,-3.2826,-3.2587,-3.2138,-3.2138,-3.2437,-3.2856,-3.3066,-3.3544,-3.4204,-3.4414,-3.4891,-3.5519,-3.5519,-3.5519,-3.5519,0.0,0.0,-3.8392,-3.8422,-3.7853,-3.7195,-3.6596,-3.6507,-3.6267,-3.5609,0.0,0.0,0.0,0.0,0.0,-3.5519,-3.5519,-3.5519,-3.5519,-3.5457,-3.5457,-3.5457,-3.5729,-3.5547,-3.4909,-3.4584,-3.4103,-3.3386,-3.2853,-3.3228,-3.4426,-3.331,-3.3449,-3.4586,-3.2373,-3.2828,-3.5206,-3.4534,-3.3821,-3.3024,-3.1679,-3.0646,-2.988,0.0,0.0,0.0,-3.1434,-3.1593,0.0,-3.2236,0.0,0.0,0.0,-3.4677,-3.5519,-3.5489,-3.5489,0.0,0.0,0.0,0.0,0.0,0.0,0.0,-3.5519,0.0,-3.5519,-3.5519,-3.5519,-3.5519,-3.5519,-3.5519,-3.5519,-3.5519,-3.5519,-3.5519,-3.5519,-3.5519,-3.5759,-3.6417,-3.5908,-3.5759,-3.6417,-3.5878,-3.5519,-3.5519,-3.5519,-3.5519,-3.5519,-3.5459,-3.5459,-3.5459,-3.4173,-3.3455,-3.3455,-3.2826,-3.2138,-3.1511,-3.1511,-3.1511,-3.1511,-3.1511,-3.1511,-3.1511,-3.1511,-3.1511,-3.154,-3.2198,-3.2886,-3.3544,-3.4234,-3.4861,-3.5489,-3.5489,-3.5519,-3.5519,0.0,-3.8512,-3.8542,-3.905,-3.7823,-3.6836,-3.7105,-3.6776,-3.6417,0.0,0.0,0.0,-3.6267,-3.6207,-3.6207,-3.6207,-3.6207,-3.5998,-3.5549,-3.4806,-3.4413,-3.4413,-3.4654,-3.4743,-3.4538,-3.4889,-3.4421,-3.3096,-3.2508,-3.1812,-3.1138,-3.1161,-3.14,-3.1745,-3.1524,-3.1599,-3.1901,-3.1306,-3.1383,-3.1786,-3.0649,-3.0277,0.0,0.0,0.0,0.0,0.0,-3.0305,-3.0305,0.0,-3.1609,-3.1784,0.0,0.0,-3.54,-3.4921,-3.513,0.0,-3.5519,0.0,0.0,0.0,0.0,0.0,-3.5519,-3.5519,-3.5519,-3.5519,-3.5519,-3.5519,-3.5519,-3.5519,-3.5519,-3.5519,-3.5519,-3.5519,-3.5519,-3.5519,-3.5759,-3.6417,-3.5908,-3.5759,-3.6417,-3.5878,-3.5519,0.0,-3.5519,-3.5519,-3.5519,-3.4592,-3.4053,-3.4053,-3.3215,-3.2796,-3.2796,-3.2587,-3.2138,-3.1511,-3.1511,-3.1511,-3.1511,-3.1511,-3.1511,-3.1511,-3.1511,-3.1511,-3.1511,-3.169,-3.2168,-3.2856,-3.3514,-3.4173,-3.4863,-3.531,-3.5519,-3.5519,-3.8751,-3.8811,-3.896,-3.9313,-3.8482,-3.7734,-3.7793,-3.7285,-3.6866,0.0,0.0,0.0,-3.6896,-3.5889,-3.5403,-3.5844,-3.5273,-3.4714,-3.4337,-3.3739,-3.3429,-3.3429,-3.3606,-3.3734,-3.3734,-3.3697,-3.3212,-3.2329,-3.1487,-3.0637,-2.9804,-3.0131,-3.0281,-3.0281,-3.0583,-3.0557,-3.0256,-2.993,-3.0156,0.0,-3.0055,0.0,0.0,-3.0181,-2.998,0.0,0.0,0.0,-2.9895,-3.0419,-3.0857,-3.1336,-3.2066,-3.3214,0.0,-3.4303,0.0,0.0,0.0,0.0,0.0,0.0,0.0,0.0,-3.5519,-3.5519,-3.5519,0.0,-3.5519,-3.5519,-3.5519,-3.5519,-3.5519,-3.5519,-3.5519,-3.5519,-3.5519,-3.5519,-3.5848,-3.6776,-3.6297,-3.6267,-3.7195,-3.6447,-3.5908,-3.5908,-3.5669,-3.5519,-3.5519,-3.4233,-3.3634,-3.3903,-3.2736,-3.2198,-3.2527,-3.2198,-3.1899,-3.1511,-3.1511,-3.1511,-3.1511,-3.1511,-3.1511,-3.1511,-3.1511,-3.1511,-3.1511,-3.1511,-3.1899,-3.2587,-3.3544,-3.4174,-3.4593,-3.525,-3.5519,-3.5519,0.0,-3.9379,-3.9373,-3.9373,-3.9349,-3.9074,-3.834,-3.7709,-3.7317,0.0,-3.6793,-3.6674,-3.7297,-3.5045,-3.3879,-3.4838,-3.3564,-3.2676,-3.2593,-3.2486,-3.2451,-3.2451,-3.2528,-3.2555,-3.2555,-3.1833,-3.1411,-3.1311,-3.0407,-2.9905,-2.9804,-2.9804,-2.9804,-2.9804,-2.9804,-2.9804,-2.9804,-2.9804,-2.9804,-2.9804,-2.9804,-2.9829,0.0,0.0,-3.0231,-2.9854,-3.0357,-3.0206,-2.9804,-2.9804,-3.0419,-3.1204,-3.1088,-3.1775,0.0,0.0,-3.3785,0.0,0.0,0.0,0.0,0.0,-3.5519,0.0,-3.5519,-3.5519,-3.5519,-3.5519,-3.5519,-3.5519,-3.5519,-3.5519,-3.5457,-3.5359,-3.5424,-3.5519,-3.5519,-3.5579,-3.6058,-3.7255,-3.6926,-3.7075,-3.8272,-3.7225,-3.6477,-3.6477,-3.5878,-3.5459,-3.54,-3.4173,-3.3724,-3.4264,-3.2467,-3.178,-3.2378,-3.1809,-3.1511,-3.1511,-3.1511,-3.1511,-3.1511,-3.1511,-3.1511,-3.1511,-3.1511,-3.1511,-3.1511,-3.1511,-3.1839,-3.2497,-3.3844,-3.4384,-3.4503,-3.522,-3.5519,-3.5519,-3.8571,-3.905,-3.9373,-3.9373,-3.896,-3.8264,-3.723,-3.7005,-3.6761,-3.6406,-3.6263,-3.6431,-3.7097,-3.5381,-3.4297,-3.4483,-3.3817,-3.319,-3.2648,-3.1901,-3.1462,-3.1462,-3.1177,-3.1012,-3.1012,-3.1694,-3.1637,-3.0758,-3.0984,-3.0633,-2.9804,-2.9804,-2.9804,-2.9804,-2.9804,-2.9804,-2.9804,-2.9804,-2.9804,-2.9804,-2.9804,0.0,-3.0407,-3.008,-2.988,-2.9804,-2.9905,-2.988,-2.9804,-2.9804,-3.0419,-3.1088,-3.0566,-3.1388,0.0,-3.2152,0.0,0.0,0.0,0.0,0.0,0.0,0.0,0.0,-3.5519,-3.5519,-3.5519,-3.5519,-3.5519,-3.5519,-3.5519,-3.5519,-3.5261,-3.4413,-3.4971,-3.5519,-3.5519,-3.5968,-3.6567,-3.7315,-3.7315,-3.7524,-3.8302,-3.7225,-3.6477,-3.6477,-3.5878,-3.525,-3.4743,-3.3933,-3.3305,-3.2916,-3.1989,-3.157,-3.169,-3.157,-3.1511,-3.1511,-3.1511,-3.1511,-3.1511,-3.1511,-3.1511,-3.1511,-3.1511,-3.1511,-3.1511,-3.1511,-3.157,-3.1839,-3.3185,-3.3694,-3.3844,-3.504,-3.5519,-3.5519,-3.8193,-3.8348,-3.8435,-3.789,-3.7526,-3.7109,-3.6551,-3.625,-3.6087,-3.6156,-3.5722,-3.5737,-3.6573,-3.466,-3.3396,-3.3711,-3.2726,-3.1864,-3.1246,-3.0771,-3.0495,-3.0495,-3.0556,-3.0733,-3.0984,-3.126,-3.1286,-3.1009,-3.0733,-3.0331,-2.9804,-2.9804,-2.9804,-2.9804,-2.9804,-2.9804,-2.9804,-2.9804,-2.9804,-2.9804,-2.9804,0.0,-3.0181,-2.9905,-2.9804,-2.9804,-2.9804,-2.9804,-2.9804,-2.9804,-3.0101,0.0,0.0,-3.0537,-3.1251,0.0,-3.1622,-3.2092,0.0,0.0,0.0,-3.4509,0.0,0.0,0.0,-3.5519,-3.5519,-3.5519,-3.5519,-3.5519,-3.5519,-3.5519,-3.5166,-3.4177,-3.4839,-3.5133,-3.4206,-3.5167,-3.6357,-3.7285,-3.7404,-3.7793,-3.8811,-3.7734,-3.6686,-3.6058,-3.5699,-3.534,-3.5011,-3.4352,-3.3694,-3.3036,-3.2348,-3.1839,-3.1511,-3.1511,-3.1511,-3.1511,-3.1511,-3.1511,-3.1511,-3.1511,-3.1511,-3.1511,-3.1511,-3.1511,-3.1511,-3.1511,-3.1511,-3.16,-3.2617,-3.3215,-3.3604,-3.4622,-3.522,-3.5519,-3.7663,-3.751,-3.7214,-3.6369,-3.6212,-3.6132,-3.5934,-3.5511,-3.5311,-3.5723,-3.495,-3.4692,-3.5494,-3.3368,-3.2133,-3.2672,-3.1326,-3.0306,-2.998,-2.9854,-2.9804,-2.9804,-3.0206,-3.0658,-3.106,-3.0783,-3.0758,-3.1085,-3.0331,-2.9905,-2.9804,-2.9804,-2.9804,-2.9804,-2.9585,-2.9585,-2.9804,-2.9585,0.0,-2.9482,0.0,-2.9585,-2.9804,-2.9804,-2.9804,-2.9804,-2.9804,-2.9804,-2.9804,-2.9804,-2.9804,-2.9804,-2.9804,-2.9804,0.0,0.0,0.0,0.0,0.0,0.0,0.0,0.0,0.0,-3.3945,0.0,0.0,0.0,0.0,0.0,0.0,0.0,0.0,0.0,0.0,0.0,0.0,0.0,-3.4375,0.0,-3.6744,-3.7134,-3.7874,-3.8971,-3.8077,-3.6896,-3.5609,-3.5519,-3.5519,-3.5519,-3.4861,-3.4264,-3.3694,-3.2916,-3.2228,-3.169,-3.157,-3.1511,-3.1511,-3.1511,-3.1511,-3.1511,-3.1511,-3.1511,-3.1511,-3.1511,-3.1511,-3.1511,-3.1511,-3.1511,-3.157,-3.2407,-3.3036,-3.3604,-3.4414,-3.504,-3.5519,-3.6408,-3.6369,-3.633,-3.6251,-3.6212,-3.5894,-3.502,-3.4803,-3.4616,-3.4219,-3.3672,-3.3326,-3.3428,-3.1852,-3.0999,-3.1539,-3.0536,-3.0055,-3.0482,-3.0055,-2.9804,-2.9804,-2.9854,-2.9905,-2.998,-3.0407,-3.0407,-2.998,-3.0357,-3.0281,-2.9804,-2.9804,-2.9804,-2.974,-2.8727,-2.8846,-2.974,0.0,-2.8307,0.0,-2.8307,-2.8885,0.0,-2.9804,-2.9804,-2.9804,-2.9804,-2.9804,-2.9804,0.0,-2.9804,-2.9804,0.0,-2.9804,-2.9818,-2.9934,0.0,0.0,0.0,0.0,0.0,0.0,-3.2735,0.0,0.0,0.0,-3.3185,-3.4007,0.0,0.0,0.0,0.0,0.0,0.0,0.0,0.0,-3.4007,-3.4806,-3.5339,-3.4769,-3.6306,-3.7564,-3.7953,-3.7624,-3.6896,-3.5609,-3.5519,-3.5519,-3.5519,-3.4861,-3.4474,-3.4384,-3.3155,-3.2437,-3.2378,-3.1809,-3.1511,-3.1511,-3.1511,-3.1511,-3.1511,-3.1511,-3.1511,-3.1511,-3.1511,-3.1511,-3.1511,-3.1511,-3.1511,-3.163,-3.2886,-3.3425,-3.3634,-3.4921,-3.5429,-3.5519,-3.5197,-3.5319,-3.5116,-3.4526,-3.4402,-3.4262,-3.3827,-3.3742,-3.3675,-3.3481,-3.3262,-3.3111,-3.3111,0.0,0.0,0.0,0.0,-3.0557,0.0,0.0,-3.0131,-2.9804,-3.0105,-3.0256,-3.0256,-3.0181,-3.0181,-3.0256,-3.0181,-3.003,-2.9804,-2.9804,-2.9804,-2.974,-2.8609,0.0,-2.8767,0.0,-2.8084,0.0,0.0,0.0,0.0,-2.8131,-2.7891,-2.7971,-2.8569,-2.8806,-2.8885,0.0,-2.9804,0.0,0.0,0.0,0.0,0.0,0.0,0.0,0.0,0.0,0.0,0.0,0.0,0.0,-3.2486,0.0,-3.27,0.0,0.0,0.0,0.0,0.0,0.0,0.0,-3.424,0.0,0.0,0.0,-3.5522,0.0,0.0,0.0,-3.7022,-3.6926,-3.6477,-3.5579,-3.5519,-3.5519,-3.5519,-3.522,-3.4891,-3.4503,-3.3574,-3.2886,-3.2527,-3.1839,-3.1511,-3.1511,-3.1511,-3.1511,-3.1511,-3.1511,-3.1511,-3.1511,-3.1511,-3.1511,-3.1511,-3.1511,-3.172,-3.2168,-3.3125,-3.3484,-3.3604,-3.4562,-3.516,-3.5519,-3.4121,-3.4262,-3.4037,-3.324,-3.3111,-3.3111,-3.3111,-3.2943,-3.2893,-3.3068,-3.2943,-3.2842,-3.2842,-3.2692,0.0,0.0,-3.1336,-3.0909,0.0,0.0,-3.0206,-2.9804,-3.0181,0.0,-3.0382,-3.0005,-2.998,-3.0382,-2.998,-2.9804,-2.9804,-2.9804,-2.9804,-2.974,-2.8609,-2.8084,-2.8084,0.0,-2.7481,-2.7174,-2.7174,-2.7012,-2.6685,-2.6543,-2.6524,-2.6607,-2.736,-2.7844,-2.8227,-2.9067,-2.9546,0.0,-2.9804,0.0,-2.9804,0.0,0.0,0.0,-2.9804,0.0,0.0,0.0,0.0,0.0,0.0,0.0,0.0,0.0,0.0,0.0,0.0,0.0,0.0,0.0,0.0,-3.5001,0.0,-3.4606,0.0,0.0,0.0,0.0,0.0,-3.6387,-3.6207,-3.5549,-3.5519,-3.5519,-3.5519,-3.5519,-3.528,-3.4771,-3.4113,-3.3455,-3.2796,-3.2108,-3.169,-3.1511,-3.1511,-3.1511,-3.1511,-3.1511,-3.1511,-3.1511,-3.1511,-3.16,-3.178,-3.178,-3.2168,-3.2856,-3.3514,-3.3754,-3.3844,-3.4533,-3.507,-3.5519,-3.3154,-3.3154,-3.3154,-3.3111,-3.3111,-3.3111,-3.3111,-3.2591,-3.2441,-3.2993,0.0,0.0,0.0,0.0,0.0,0.0,0.0,-3.0834,-3.1311,0.0,-2.9804,0.0,0.0,-2.9829,0.0,-2.9804,-2.9804,-2.9829,-2.9804,-2.9804,-2.9804,-2.9804,-2.9804,-2.974,-2.8609,-2.8084,-2.8044,-2.6994,-2.5922,-2.4914,-2.4914,-2.4253,-2.3517,0.0,-2.6524,-2.6524,-2.6565,0.0,0.0,-2.8124,-2.8885,0.0,0.0,0.0,0.0,0.0,0.0,0.0,0.0,0.0,0.0,-2.9818,0.0,0.0,0.0,0.0,-3.0139,0.0,0.0,0.0,0.0,0.0,0.0,-3.2735,0.0,0.0,0.0,0.0,0.0,0.0,0.0,0.0,0.0,-3.6118,-3.6207,0.0,-3.5519,-3.5519,-3.5519,-3.5519,-3.5489,-3.5459,-3.4801,-3.4174,-3.3455,-3.2796,-3.2138,-3.1511,-3.1511,-3.1511,-3.1511,-3.1511,-3.1511,-3.1511,-3.1511,-3.1869,-3.2467,-3.2467,-3.2856,-3.3514,-3.4204,-3.4474,-3.4563,-3.522,-3.5489,-3.5519,-3.3111,-3.3111,-3.3111,-3.3111,-3.3111,-3.3111,-3.3111,-3.2918,-3.2993,0.0,0.0,0.0,0.0,-3.3169,-3.2817,0.0,0.0,-3.1436,-3.0909,-3.121,0.0,0.0,0.0,-3.0884,0.0,0.0,-3.0156,-2.9804,-2.9804,-2.9804,-2.9804,-2.9804,-2.9804,-2.974,-2.8609,-2.7683,0.0,0.0,0.0,0.0,0.0,-2.4125,-2.3169,0.0,-2.4274,-2.4339,-2.5083,-2.563,0.0,-2.7602,-2.8347,-2.8806,-2.9585,-2.9804,-2.9804,-2.9804,-2.9804,-2.9804,0.0,0.0,-2.9804,-2.9804,0.0,0.0,0.0,0.0,0.0,0.0,0.0,0.0,0.0,0.0,-3.3705,-3.2735,-3.424,0.0,0.0,0.0,0.0,0.0,0.0,0.0,0.0,0.0,0.0,0.0,-3.4718,0.0,-3.5489,-3.5519,-3.5519,-3.5519,-3.4863,-3.4384,-3.4174,-3.3066,-3.2378,-3.2138,-3.172,-3.1511,-3.1511,-3.1511,-3.1511,-3.1511,-3.1511,-3.1869,-3.2527,-3.2527,-3.3155,-3.4173,-3.4414,-3.4773,-3.519,-3.5429,-3.5519,-3.5519,-3.3162,-3.3111,-3.3111,0.0,0.0,-3.2842,-3.3086,-3.3111,0.0,0.0,-3.4073,0.0,-3.4198,0.0,-3.3596,0.0,-3.2441,-3.1838,-3.0959,-3.1361,0.0,-2.9854,-3.0783,0.0,0.0,0.0,-3.0156,-2.9804,-2.9804,-2.9804,-2.9804,-2.9804,-2.9804,-2.974,-2.9028,-2.7867,-2.6524,-2.6524,-2.5588,0.0,0.0,-2.3757,0.0,0.0,-2.3101,-2.3212,0.0,-2.4467,-2.5041,-2.6438,-2.7197,-2.7723,-2.8846,-2.9184,-2.9287,-2.9663,-2.9804,-2.9804,-2.9804,-2.9804,0.0,-2.9804,-2.9804,0.0,-2.9804,0.0,-2.9804,0.0,0.0,0.0,0.0,0.0,0.0,-3.22,-3.3705,-3.51,0.0,-3.5519,0.0,0.0,0.0,0.0,0.0,0.0,-3.425,-3.4163,-3.4247,-3.4569,0.0,-3.537,-3.5519,-3.5519,-3.507,-3.4711,-3.4503,-3.3634,-3.2976,-3.2467,-3.2049,-3.172,-3.1511,-3.1511,-3.163,-3.1839,-3.1839,-3.2348,-3.3215,-3.3215,-3.3844,-3.4831,-3.4831,-3.513,-3.5519,-3.5519,-3.5519,-3.5519,-3.3194,-3.3111,-3.3136,0.0,-3.2667,0.0,0.0,0.0,-3.3233,0.0,-3.422,-3.4524,-3.4524,-3.4095,-3.377,-3.372,-3.2746,-3.1872,-3.1297,-3.0798,0.0,0.0,-2.9699,-2.9674,-2.9624,0.0,0.0,-2.9702,-2.9829,-2.9829,-2.9804,-2.9804,-2.9804,-2.9804,-2.974,-2.8514,-2.6524,-2.6442,-2.5147,-2.3101,-2.3101,-2.3101,-2.3101,-2.3101,-2.3101,-2.3101,-2.3101,-2.38,-2.4702,-2.4787,-2.5504,-2.6584,-2.7683,-2.8004,-2.8227,-2.9326,-2.9624,-2.9663,-2.9702,-2.9702,-2.9702,-2.9804,-2.9804,0.0,0.0,0.0,-2.9804,0.0,0.0,0.0,0.0,0.0,0.0,-3.1204,-3.277,0.0,0.0,0.0,0.0,0.0,0.0,0.0,0.0,-3.4551,-3.4093,-3.4467,-3.4134,-3.4093,0.0,-3.5098,-3.5424,-3.5519,-3.5519,-3.519,-3.4563,-3.4533,-3.3844,-3.2617,-3.2527,-3.2168,-3.16,-3.157,-3.1899,-3.2557,-3.2557,-3.3275,-3.4503,-3.4503,-3.4891,-3.5519,-3.5519,-3.5519,-3.5519,-3.5519,-3.5519,-3.5519,-3.3136,-3.3111,-3.3345,0.0,-3.3495,-3.2893,0.0,0.0,0.0,0.0,-3.2606,-3.2335,-3.2335,-3.2172,-3.1803,-3.109,-3.0721,0.0,0.0,0.0,0.0,-2.7861,-2.8268,-2.8171,-2.7366,-2.8974,0.0,-2.8569,-2.9762,-3.0206,-2.9804,-2.9804,-2.9804,-2.974,-2.8885,-2.7787,-2.6442,-2.5588,-2.4425,-2.3101,-2.3101,-2.3101,-2.3101,0.0,-2.3101,-2.3101,-2.3101,-2.3299,-2.3671,-2.4489,-2.4999,-2.542,-2.6543,-2.6912,-2.6953,-2.7261,-2.7342,-2.7504,-2.8307,-2.8569,-2.8727,-2.9585,-2.9804,-2.9804,0.0,0.0,0.0,0.0,0.0,0.0,0.0,0.0,0.0,0.0,0.0,0.0,0.0,0.0,0.0,-3.5519,0.0,0.0,0.0,-3.3924,-3.3785,-3.4122,-3.3161,-3.3365,-3.5158,0.0,-3.4739,-3.5457,-3.5519,-3.5429,-3.525,-3.4773,-3.4324,-3.3963,-3.2976,-3.2677,-3.2976,-3.2467,-3.2617,-3.3245,-3.3245,-3.3724,-3.4503,-3.4503,-3.4891,-3.5519,-3.5519,-3.5519,-3.5519,-3.5519,-3.5519,-3.5519,-3.2499,-3.2264,0.0,-3.2836,0.0,0.0,-3.2861,-3.282,0.0,-3.2721,-3.2507,0.0,-3.2397,-3.1837,-3.127,-3.0734,-3.0239,0.0,-2.8901,0.0,0.0,-2.716,-2.7469,-2.731,-2.6547,-2.7732,0.0,-2.8084,-2.8578,-2.9123,-2.9804,-2.9287,-2.9326,-2.974,-2.9145,-2.7947,-2.64,-2.4766,-2.3671,-2.3101,-2.3101,-2.3101,0.0,-2.3101,-2.3101,-2.3101,-2.3101,-2.3101,-2.3212,-2.3844,-2.4039,-2.4253,-2.5378,-2.5755,-2.5839,-2.6337,-2.6524,-2.6648,-2.7238,-2.74,-2.7562,-2.8211,-2.8355,-2.8355,-2.8355,-2.8712,-2.9067,0.0,-2.9443,-2.9804,0.0,0.0,0.0,0.0,0.0,0.0,0.0,0.0,0.0,0.0,-3.4904,0.0,0.0,-3.3568,-3.3277,-3.4145,-3.3173,-3.3115,-3.4365,0.0,-3.4509,-3.424,-3.4639,-3.4839,-3.4839,-3.4456,-3.4327,-3.4503,-3.3724,-3.3425,-3.3484,-3.3125,-3.3305,-3.3933,-3.3933,-3.4292,-3.4921,-3.4921,-3.516,-3.5519,-3.5519,-3.5519,-3.5519,-3.5519,-3.5519,-3.5519,-3.1716,-3.1245,0.0,0.0,0.0,0.0,0.0,-3.2947,0.0,-3.2348,0.0,-3.2829,-3.2829,-3.1802,-3.1086,-3.102,0.0,-2.9478,-2.8883,-2.8446,-2.7832,-2.6866,-2.6778,-2.6557,-2.6179,-2.6349,-2.6926,0.0,-2.7021,-2.7615,-2.9546,-2.8426,-2.841,-2.9365,-2.9209,0.0,0.0,-2.393,-2.3101,-2.3101,-2.3101,-2.3101,-2.3101,-2.3101,-2.3101,-2.3101,-2.3101,-2.3101,-2.3101,-2.3101,-2.3101,-2.3256,-2.4253,-2.4575,-2.4745,-2.5755,-2.6069,-2.611,-2.6235,-2.6276,-2.6318,-2.6483,-2.6524,-2.6524,-2.6524,-2.7197,-2.7884,-2.7884,-2.8688,-2.9404,0.0,0.0,0.0,0.0,0.0,0.0,0.0,0.0,0.0,0.0,0.0,0.0,0.0,-3.356,-3.3027,-3.453,-3.37,-3.3177,-3.3396,0.0,-3.4409,-3.2806,-3.3463,-3.3876,-3.3979,-3.3876,-3.4022,-3.4433,-3.4343,-3.4046,-3.3569,-3.3602,-3.3993,-3.4653,-3.4653,-3.4951,-3.5519,-3.5519,-3.5519,-3.5519,-3.5519,-3.5519,-3.5519,-3.5519,-3.5519,-3.5519,-3.1472,0.0,0.0,0.0,0.0,-3.0705,-3.0715,-3.0464,-3.0206,-3.0092,-2.957,-2.9181,-2.9181,-2.8991,-2.8745,-2.8384,-2.8224,0.0,0.0,0.0,0.0,-2.5498,-2.5071,-2.4671,-2.4275,-2.562,-2.6454,-2.6771,-2.7054,-2.7571,-2.8386,-2.7302,-2.6894,-2.7058,-2.6088,0.0,-2.3671,-2.3256,0.0,-2.3101,-2.3101,-2.3101,-2.3101,-2.3101,-2.3101,-2.3101,-2.3101,-2.3101,-2.3101,-2.3101,-2.3101,-2.3144,-2.3343,-2.3387,-2.343,-2.3647,-2.3691,-2.3887,-2.483,-2.5083,-2.5336,-2.6276,-2.6524,-2.6524,-2.6524,-2.6648,-2.6771,-2.6771,-2.6935,-2.7204,-2.7654,0.0,0.0,0.0,0.0,0.0,0.0,0.0,0.0,0.0,0.0,-3.318,0.0,0.0,-3.4403,-3.528,-3.3933,-3.3678,-3.502,0.0,-3.3325,0.0,-3.3157,-3.3192,0.0,0.0,-3.3268,-3.4071,-3.3578,-3.3521,-3.3931,-3.4214,-3.4681,-3.531,-3.531,-3.54,-3.5519,-3.5519,-3.5519,-3.5519,-3.5519,-3.5519,-3.5519,-3.5519,-3.5519,-3.5519,0.0,0.0,0.0,0.0,0.0,0.0,0.0,-2.9702,-2.953,-2.9515,-2.9178,-2.8906,-2.8906,-2.8569,-2.8203,-2.8008,-2.7845,-2.7402,-2.6758,-2.6309,-2.5781,-2.5145,-2.4863,-2.4453,-2.3809,-2.4596,-2.5194,-2.563,-2.5274,-2.5869,-2.7238,-2.613,-2.5922,-2.6442,0.0,-2.451,0.0,0.0,0.0,-2.3101,-2.3101,-2.3101,-2.3101,-2.3101,-2.3101,-2.3101,-2.3101,-2.3101,-2.3101,-2.3101,-2.3101,-2.3101,-2.3101,-2.3101,-2.3101,-2.3101,-2.3101,-2.3212,-2.3757,-2.393,-2.4059,-2.4595,-2.4723,-2.4723,-2.4723,-2.5168,-2.563,-2.563,-2.589,-2.6308,-2.6836,-2.74,0.0,0.0,0.0,0.0,0.0,0.0,0.0,0.0,0.0,0.0,0.0,0.0,0.0,0.0,0.0,-3.303,-3.2873,0.0,-3.2371,0.0,0.0,0.0,-3.2522,0.0,-3.2343,-3.3262,-3.298,-3.3249,-3.4013,-3.4159,-3.4709,-3.5519,-3.5519,-3.5519,-3.5519,-3.5519,-3.5519,-3.5519,-3.5519,-3.5519,-3.5519,-3.5519,-3.5519,-3.5519,0.0,-2.9219,0.0,0.0,-2.9277,0.0,-2.9512,-2.9626,-2.9565,-2.9516,-2.9425,-2.9405,-2.9507,-2.88,-2.832,-2.8418,-2.8047,-2.7617,-2.7187,-2.6758,-2.6172,-2.5439,-2.5254,-2.4844,-2.4082,-2.3965,-2.4271,-2.4934,-2.3687,-2.4145,-2.6088,-2.4957,-2.4935,-2.5735,0.0,0.0,0.0,0.0,-2.3101,-2.3101,-2.3101,-2.3101,-2.3101,-2.3101,-2.3101,-2.3101,-2.3101,-2.3101,-2.3101,-2.3101,-2.3101,-2.3101,-2.3101,-2.3101,-2.3101,-2.3101,-2.3101,-2.3101,-2.3101,-2.3101,-2.3101,-2.3101,-2.3101,-2.3101,-2.3101,-2.38,-2.4425,-2.4425,-2.4972,-2.5569,-2.6024,-2.6464,0.0,0.0,0.0,0.0,0.0,0.0,0.0,0.0,0.0,0.0,-3.1309,0.0,0.0,0.0,0.0,-3.2546,-3.1226,-3.1774,-3.1612,0.0,0.0,-3.1082,-3.1499,0.0,-3.1352,-3.2307,-3.2307,-3.27,-3.3429,-3.3808,-3.4442,-3.5166,-3.5392,-3.5519,-3.5519,-3.5519,-3.5519,-3.5519,-3.5519,-3.5519,-3.5519,-3.5519,-3.5519,-3.5519,0.0,0.0,0.0,0.0,0.0,0.0,-2.957,-2.9626,-2.9587,-2.9561,-2.9207,-2.9109,-2.9557,-2.8839,-2.8437,-2.8828,-2.8476,-2.8047,-2.7637,-2.7207,-2.6738,-2.6289,-2.5879,-2.5449,-2.5008,-2.4551,-2.4666,0.0,-2.3827,-2.3757,-2.4914,-2.38,-2.3299,0.0,0.0,0.0,0.0,-2.3144,-2.3101,-2.3101,-2.3101,-2.3101,-2.3101,-2.3101,-2.3101,-2.3101,-2.3101,-2.3101,-2.3101,-2.3101,-2.3101,-2.3101,-2.3101,-2.3101,-2.3101,-2.3101,-2.3101,-2.3101,-2.3101,-2.3101,-2.3101,-2.3101,-2.3101,-2.3101,-2.3101,-2.3169,-2.3256,-2.3256,-2.3756,-2.4198,-2.4381,-2.4452,-2.499,0.0,0.0,0.0,0.0,0.0,-2.8116,-2.7561,0.0,0.0,0.0,-3.149,0.0,0.0,-3.2449,-3.335,-3.3659,-3.1717,-3.1137,-3.2307,-3.0771,-3.0733,-3.2451,-3.0771,-3.0381,-3.1315,-3.1315,-3.1389,-3.1536,-3.3192,-3.4047,-3.4211,-3.51,-3.5519,-3.5519,-3.5519,-3.5519,-3.5519,-3.5519,-3.5519,-3.5519,-3.5519,-3.5519,-3.5519,0.0,0.0,0.0,0.0,0.0,0.0,0.0,-3.0371,-3.0273,-2.998,-2.9336,-2.8984,-2.916,-2.8652,-2.8359,-2.8535,-2.8398,-2.8125,-2.7748,-2.7266,-2.6836,-2.6406,-2.5977,-2.5527,-2.5125,-2.4648,-2.4427,0.0,0.0,0.0,-2.3757,-2.3619,-2.3379,0.0,0.0,-2.3101,-2.3101,-2.3101,-2.3101,-2.3101,-2.3101,-2.3101,-2.3101,-2.3101,-2.3101,-2.3101,-2.3101,-2.3101,-2.3101,-2.3101,-2.3101,-2.3101,-2.3101,-2.3101,-2.3101,-2.3101,-2.3101,-2.3101,-2.3101,-2.3101,-2.3101,-2.3101,-2.3101,-2.3101,-2.3101,-2.3101,-2.3101,-2.3101,-2.3094,-2.3202,-2.3575,-2.374,-2.4088,-2.5013,0.0,0.0,0.0,0.0,0.0,-2.6806,0.0,-2.8431,0.0,-2.9733,0.0,0.0,0.0,-3.2556,-3.1885,-3.1208,-3.0882,-3.0921,0.0,-3.0139,-3.0921,-3.0177,-3.0011,-3.0343,-3.0343,-3.0658,-3.1204,-3.1983,-3.2912,-3.4075,-3.5067,-3.5519,-3.5519,-3.5519,-3.5519,-3.5519,-3.5519,-3.5519,-3.5519,-3.5519,-3.5519,-3.5392,-3.084,0.0,-3.0351,0.0,-3.0625,-3.0508,-3.084,-3.0781,-3.0625,-3.043,-2.9648,-2.9101,-2.9101,-2.8613,-2.834,-2.8457,-2.8359,-2.8164,-2.7924,-2.7441,-2.7012,-2.6602,-2.6152,0.0,-2.5273,-2.4824,-2.4394,-2.3965,-2.3848,0.0,0.0,0.0,0.0,0.0,-2.3101,-2.3101,-2.3101,-2.3101,-2.3101,-2.3101,-2.3101,-2.3101,-2.3101,-2.3101,-2.3101,-2.3101,-2.3101,-2.3101,-2.3101,-2.3101,-2.3101,-2.3101,-2.3101,-2.3101,-2.3101,-2.3101,-2.3101,-2.3101,-2.3101,-2.3101,-2.3101,-2.3101,-2.3101,-2.3101,-2.3101,-2.3101,-2.3101,-2.3101,-2.2867,-2.2771,-2.3022,-2.3145,-2.3407,-2.4098,0.0,0.0,0.0,-2.5405,0.0,-2.6437,-2.7025,-2.7331,-2.7318,-2.8543,0.0,0.0,0.0,-3.1694,-3.1083,-3.0687,-3.0439,0.0,0.0,0.0,-3.0216,-2.9934,-2.9804,-2.9804,-2.9804,-3.0139,-3.0809,-3.1082,-3.22,-3.4013,-3.4773,-3.5228,-3.5519,-3.5519,-3.5519,-3.5519,-3.5519,-3.5519,-3.5519,-3.5519,-3.5326,-3.4968,-3.0723,-3.0508,-3.0351,-3.082,-3.0879,-3.0879,-3.0898,-3.0508,-3.0371,-3.082,-3.0117,-2.957,-2.957,-2.8809,-2.8457,-2.8867,-2.8535,-2.8301,-2.8281,-2.7891,-2.7461,0.0,0.0,-2.6172,-2.5693,-2.5293,-2.4844,-2.4414,0.0,0.0,-2.3101,0.0,-2.3101,-2.3101,-2.3101,-2.3101,-2.3101,-2.3101,-2.3101,-2.3101,-2.3101,-2.3101,-2.3101,-2.3101,-2.3101,-2.3101,-2.3101,-2.3101,-2.3101,-2.3101,-2.3101,-2.3101,-2.3101,-2.3101,-2.3101,-2.3101,-2.3101,-2.3101,-2.3101,-2.3101,-2.3101,-2.3101,-2.3101,-2.3101,-2.3101,-2.3101,-2.3101,-2.3101,-2.3081,-2.2964,-2.2578,-2.25,-2.2862,-2.4012,0.0,0.0,0.0,-2.5256,0.0,-2.6373,-2.709,-2.7451,-2.7297,-2.8273,0.0,0.0,0.0,0.0,0.0,0.0,0.0,-3.113,-3.0266,0.0,-3.1167,-3.0266,-2.9804,-2.9804,-2.9804,-2.9804,-2.9856,-3.0771,-3.22,-3.3979,-3.4013,-3.4576,-3.5519,-3.5519,-3.5519,-3.5519,-3.5519,-3.5519,-3.5519,-3.5519,-3.4872,-3.4013,-3.084,-3.0762,-3.0723,-3.0859,-3.0898,-3.0898,-3.0898,-3.0762,-3.0508,-3.0059,-3.0,-2.9668,-2.8789,-2.8711,-2.8769,0.0,-2.8535,-2.8301,0.0,-2.7891,-2.7598,-2.7461,-2.6777,-2.6328,-2.6191,-2.5449,-2.5047,-2.4863,0.0,0.0,0.0,-2.3374,-2.3101,-2.3101,-2.3101,-2.3101,-2.3101,-2.3101,-2.3101,-2.3101,-2.3101,-2.3101,-2.3101,-2.3101,-2.3101,-2.3101,-2.3101,-2.3101,-2.3101,-2.3101,-2.3101,-2.295,-2.212,-2.2448,-2.3101,-2.3101,-2.3101,-2.3101,-2.3101,-2.3101,-2.3101,-2.3101,-2.3101,-2.3101,-2.3101,-2.3101,-2.3101,-2.3101,-2.3101,-2.3062,-2.2925,-2.2652,-2.2627,-2.2988,-2.267,0.0,-2.3509,0.0,-2.3957,-2.5321,-2.535,-2.5396,-2.5684,-2.7002,0.0,0.0,0.0,0.0,0.0,0.0,0.0,0.0,-2.9972,0.0,-3.0254,-2.9934,-2.9804,-2.9804,-2.9804,-2.9804,-2.9818,-3.0771,-3.1536,-3.2164,-3.3463,-3.3808,-3.363,-3.4968,-3.51,-3.4543,-3.5231,-3.5519,-3.5519,-3.5519,-3.4872,-3.391,-3.0898,-3.0898,-3.0898,-3.0898,-3.0898,-3.0898,-3.0898,-3.0742,-3.0488,-3.0117,-3.0,-2.9726,-2.9082,-2.8965,0.0,-2.8691,-2.8437,-2.8301,-2.8301,-2.8047,-2.7885,-2.7728,-2.7148,-2.6719,-2.6387,-2.584,0.0,-2.5106,-2.4902,-2.4687,-2.4394,-2.3711,-2.3379,-2.3379,-2.3159,-2.3101,-2.3101,-2.3101,-2.3101,-2.3101,-2.3101,-2.3101,-2.3101,-2.3101,-2.3101,-2.3101,-2.3101,-2.3101,-2.3101,-2.3101,-2.2818,-2.2315,-2.1525,-2.148,-2.1765,-2.1765,-2.1765,-2.1854,-2.2315,-2.2403,-2.2536,-2.2994,-2.3101,-2.3101,-2.3101,-2.3101,-2.3101,-2.3101,-2.3101,-2.3101,-2.3101,-2.2886,-2.2754,-2.2754,-2.2519,-2.2397,-2.2575,0.0,-2.2961,0.0,0.0,0.0,0.0,-2.6116,-2.6714,0.0,0.0,0.0,0.0,0.0,-3.0419,-2.9818,-2.9804,-2.9804,-2.9804,-2.9804,-2.9804,-2.9804,-2.9804,-2.9804,-2.9818,-3.0419,-3.0857,-3.1278,-3.2451,-3.2806,-3.27,-3.3905,-3.4041,-3.3567,-3.4543,-3.4938,-3.4938,-3.4938,-3.4341,-3.3359,-3.0898,-3.0898,-3.0898,0.0,-3.0898,-3.0898,-3.0898,-3.0527,-3.0391,-3.0801,-3.0156,-2.9785,-3.0117,-2.9434,-2.8789,-2.8379,0.0,0.0,-2.8301,-2.8301,-2.8125,-2.7787,-2.7728,-2.7337,-2.6484,-2.6445,-2.6016,-2.5204,-2.4687,-2.4473,-2.4453,-2.4023,-2.3828,-2.3809,-2.3418,-2.3159,-2.314,-2.314,-2.312,-2.3101,-2.3101,-2.3101,-2.3101,-2.3101,-2.3101,-2.3101,-2.3101,-2.3101,-2.3101,-2.3101,-2.2315,-2.1302,-2.1194,-2.0342,-1.9405,-1.9497,-1.9497,-1.977,-2.0881,-2.115,-2.148,-2.2668,-2.3057,-2.3101,-2.3101,-2.3101,-2.3101,-2.3101,-2.3101,-2.3101,-2.3101,-2.3101,-2.3101,-2.3101,-2.3101,-2.2945,-2.2539,-2.2168,-2.2487,0.0,0.0,0.0,-2.5289,-2.548,-2.5365,0.0,0.0,0.0,0.0,0.0,-2.9804,-2.9804,-2.9804,-2.9804,-2.9804,-2.9804,-2.9804,-2.9804,-2.9804,-2.9804,-2.9804,-2.9804,-3.0292,-3.1119,-3.1167,-3.1683,-3.2415,-3.2522,-3.2558,-3.2593,-3.3533,-3.391,-3.391,-3.391,-3.3325,-3.2379,0.0,0.0,-3.0898,-3.0898,-3.0898,-3.0898,-3.0898,-3.0801,-3.0644,-3.0391,-3.0488,-3.0351,-2.9785,-2.9531,-2.9238,-2.8809,-2.8476,-2.8301,-2.8301,-2.8301,-2.8242,-2.8144,-2.7832,-2.763,-2.7415,-2.7031,-2.6602,-2.6074,-2.5293,-2.4922,-2.4902,-2.4473,-2.4277,-2.4258,-2.416,-2.3945,-2.3633,-2.3633,-2.3437,-2.3101,-2.3101,-2.3101,-2.3101,-2.3101,-2.3101,-2.3101,-2.3101,-2.3101,-2.3101,-2.3101,-2.2315,-2.115,-2.0206,-1.9085,-1.8319,-1.9222,-1.9497,-1.9542,-1.9861,-1.9951,-2.0223,-2.1436,-2.2403,-2.3101,-2.3101,-2.3101,-2.3101,-2.3101,-2.3101,-2.3101,-2.3101,-2.3101,-2.3101,-2.3101,-2.3101,-2.2847,-2.2129,-2.2227,-2.2504,0.0,-2.288,-2.302,-2.3792,-2.453,-2.5137,0.0,0.0,-2.8297,-2.9167,-2.9588,-2.9804,-2.9804,-2.9804,-2.9804,-2.9804,-2.9804,-2.9804,-2.9804,-2.9804,-2.9804,-2.9804,-2.9804,-2.9934,-3.0177,-3.0895,-3.0895,-3.057,-3.201,-3.2164,-3.1609,-3.2558,-3.2912,-3.2912,-3.2912,-3.2343,-3.1499,-3.0898,-3.0898,-3.0898,-3.0898,-3.0898,-3.0898,-3.0898,-3.0898,-3.0801,-3.0547,-3.0547,-3.0391,-2.9902,-2.9512,-2.918,-2.8945,-2.8535,-2.8301,-2.8301,-2.8301,-2.8301,-2.8301,-2.8066,-2.7871,-2.7728,-2.7441,-2.7012,-2.6387,-2.5898,-2.5566,-2.5371,-2.4922,-2.4707,-2.4707,-2.4512,-2.4297,-2.4062,-2.3867,-2.3652,-2.3418,-2.3179,-2.3101,-2.3101,-2.3101,-2.3101,-2.3101,-2.3101,-2.3218,-2.331,-2.2568,-2.1607,-2.052,-1.9134,-1.7809,-1.6936,-1.7623,-1.7809,-1.7933,-1.8503,-1.8688,-1.9085,-2.0836,-2.1791,-2.2403,-2.295,-2.3101,-2.3101,-2.3101,-2.3101,-2.3101,-2.3101,-2.3101,-2.3101,-2.3101,-2.3101,-2.2867,-2.2266,-2.2363,-2.2535,-2.2615,-2.2542,-2.2692,-2.316,-2.3712,-2.4406,-2.5261,-2.6117,0.0,-2.8211,-2.8291,-2.853,-2.9028,-2.9546,-2.9546,-2.9028,-2.977,-3.0281,-3.0532,-3.0532,-3.0532,-3.0507,-3.0281,-3.0181,-3.0195,-3.0471,-3.0292,-2.9856,-3.0884,-3.1033,-3.0658,-3.1573,-3.1947,-3.1947,-3.1947,-3.1646,-3.1156,-3.0898,-3.0898,-3.0898,-3.0898,-3.0898,-3.0898,-3.0898,-3.0898,-3.0898,-3.0898,-3.0547,-3.0293,-3.0293,-2.959,-2.9121,-2.9121,-2.873,-2.8437,-2.8301,-2.8301,-2.8301,-2.8301,-2.8301,-2.8125,-2.7826,-2.7748,-2.7356,-2.6582,-2.6445,-2.6191,-2.5771,-2.5371,-2.5176,-2.5156,-2.4785,-2.457,-2.4492,-2.4141,-2.3945,-2.3848,-2.3477,-2.3296,-2.3296,-2.3296,-2.3296,-2.3296,-2.3296,-2.3574,-2.3693,-2.224,-2.1197,-2.0198,-1.8613,-1.7269,-1.6191,-1.6013,-1.5965,-1.6143,-1.7211,-1.7618,-1.8257,-2.0268,-2.1016,-2.1569,-2.258,-2.295,-2.3101,-2.3101,-2.3101,-2.3101,-2.3101,-2.3101,-2.3101,-2.3101,-2.3101,-2.2945,-2.2578,0.0,-2.2578,-2.2519,-2.2559,-2.2711,-2.3062,-2.3101,-2.3541,-2.4702,-2.4787,-2.5294,-2.6442,-2.6524,-2.683,-2.7602,-2.8785,-2.9056,-2.8322,-2.9714,-3.0773,-3.1386,-3.1386,-3.1386,-3.1361,-3.0934,-3.0683,-3.0583,-3.0131,-2.9854,-2.9804,-2.9804,-2.9804,-2.9856,-3.0696,-3.097,-3.097,-3.097,-3.097,-3.0857,-3.0898,-3.0898,-3.0898,-3.0898,-3.0898,-3.0898,-3.0898,-3.0898,-3.0898,-3.0898,-3.082,-3.0781,-3.0781,-3.0312,-3.0,-3.0,-2.9609,-2.9062,-2.834,-2.8301,-2.8301,-2.8301,-2.8301,-2.8262,-2.8203,-2.7851,-2.765,-2.7513,-2.6738,-2.6348,-2.6269,-2.584,-2.5625,-2.5577,-2.5518,-2.5332,-2.5008,-2.4902,-2.4648,-2.4316,-2.4238,-2.4219,-2.4219,-2.4219,-2.4219,-2.4219,-2.4219,-2.4258,-2.4251,-2.399,-2.3159,-2.1978,-2.0564,-1.9268,-1.8018,-1.6914,-1.6567,-1.6563,-1.6516,-1.7241,-1.8075,-1.821,-1.9798,-2.1346,-2.1525,-2.2359,-2.3101,-2.3101,-2.3101,-2.3101,-2.3101,-2.3101,-2.3101,-2.3101,-2.3101,-2.2945,-2.2578,0.0,-2.2867,-2.2559,-2.2789,-2.3023,-2.3081,-2.3101,-2.3541,-2.4702,-2.4787,-2.5294,-2.6442,-2.6524,-2.613,-2.5336,-2.6738,-2.8133,-2.9374,-2.9636,-3.0316,-3.1386,-3.1386,-3.1386,-3.1386,-3.1311,-3.1035,-3.0608,-3.0532,-3.0231,-2.9804,-2.9804,-2.9804,-2.9818,-2.9972,-3.0011,-3.0011,-3.0011,-3.0011,-3.0011,-3.0898,-3.0898,-3.0898,-3.0898,-3.0898,-3.0898,-3.0898,-3.0898,-3.0898,-3.0898,-3.0898,-3.0898,-3.0898,-3.0469,-3.0195,-3.0195,-2.9805,-2.945,-2.9004,-2.875,-2.8535,-2.8301,-2.8301,-2.8301,-2.8301,-2.8105,-2.7891,-2.7728,-2.7317,-2.6836,-2.6387,-2.6191,-2.5957,-2.5693,-2.5693,-2.5625,-2.541,-2.5176,-2.4988,-2.4746,-2.4512,-2.4414,-2.4414,-2.4414,-2.4414,-2.4414,-2.4414,-2.457,-2.4633,-2.3729,-2.3222,-2.2607,-2.0297,-1.9179,-1.8459,-1.71,-1.67,-1.6673,-1.654,-1.6944,-1.7477,-1.8012,-1.8956,-2.0168,-2.1564,-2.2171,-2.261,-2.3318,-2.3257,-2.3101,-2.3101,-2.3101,-2.3101,-2.3101,-2.3101,-2.3023,-2.2828,-2.2984,-2.3023,-2.2828,-2.2984,-2.3101,-2.3101,-2.3101,-2.3541,-2.4702,-2.4211,-2.4382,-2.5504,-2.502,-2.4549,-2.4274,-2.5505,-2.7128,-2.9022,-2.9738,-3.0438,-3.1308,-3.197,-3.229,-3.229,-3.1964,-3.1712,-3.1436,-3.0859,-3.0633,-3.0633,-3.0357,-3.0231,-3.0231,-3.0231,-3.0055,-2.9804,-2.9804,-2.9804,-2.9804,-3.0898,-3.0898,-3.0898,-3.0898,-3.0898,-3.0898,-3.0898,-3.0898,-3.0898,-3.0898,-3.0898,-3.0898,-3.0898,-3.0566,-3.0351,-3.0351,-3.0059,-2.9844,-2.9726,-2.9394,-2.8984,-2.8457,-2.834,-2.8301,-2.8301,-2.8301,-2.8125,-2.7812,-2.7767,-2.7376,-2.668,-2.6582,-2.6348,-2.5986,-2.5986,-2.5927,-2.581,-2.5527,-2.5312,-2.5195,-2.4863,-2.4727,-2.4727,-2.4727,-2.4727,-2.4727,-2.4727,-2.4941,-2.5013,-2.3767,-2.3573,-2.3341,-2.0327,-1.941,-1.9064,-1.7406,-1.6914,-1.6887,-1.674,-1.6754,-1.7045,-1.7846,-1.8311,-1.9082,-2.1449,-2.1877,-2.2162,-2.3519,-2.3516,-2.3257,-2.3257,-2.3257,-2.3257,-2.3257,0.0,-2.3101,-2.3101,-2.3101,-2.3101,-2.3101,-2.3101,-2.3101,-2.3101,-2.3101,-2.3474,-2.4339,-2.3584,-2.3474,-2.4382,-2.3584,-2.334,-2.3769,-2.48,-2.6241,-2.8185,-2.9238,-3.0113,-3.0798,-3.1777,-3.2394,-3.263,-3.2166,-3.1988,-3.1964,-3.116,-3.0959,-3.116,-3.0633,-3.0557,-3.0783,-3.0658,-3.0357,-3.0005,-3.0131,-3.008,-3.0005,-3.0898,-3.0898,-3.0898,-3.0898,-3.0898,-3.0898,-3.0898,-3.0898,-3.0898,-3.0898,-3.0898,-3.0898,-3.0898,-3.0859,-3.084,-3.084,-3.082,-3.0605,-3.0176,-3.0117,-2.9726,-2.8906,-2.8496,-2.8301,-2.8301,-2.8301,-2.8281,-2.8242,-2.7851,-2.7689,-2.7611,-2.7168,-2.6953,-2.6914,-2.6914,-2.6699,-2.6348,-2.6309,-2.6055,-2.5635,-2.5596,-2.5596,-2.5596,-2.5596,-2.5596,-2.5596,-2.5596,-2.5615,-2.5635,-2.5499,-2.5518,-2.508,-2.2331,-2.1476,-2.0969,-1.8324,-1.7515,-1.7395,-1.6847,-1.6901,-1.7099,-1.6867,-1.7683,-1.8886,-2.0377,-2.1298,-2.2162,-2.3519,-2.3769,-2.375,-2.375,-2.375,-2.375,-2.375,0.0,0.0,-2.3101,-2.3101,-2.3101,-2.3101,-2.3101,-2.3101,-2.3101,-2.3101,-2.3144,-2.3212,-2.3144,-2.3144,-2.3212,-2.3144,-2.334,-2.3769,-2.4643,-2.5732,-2.7024,-2.7539,-2.838,-2.9533,-2.9624,-3.0283,-3.1356,-3.1264,-3.1345,-3.1436,-3.1361,-3.1085,-3.0633,-3.008,-3.0432,-3.1286,-3.0809,-3.0583,-3.0608,-3.1085,-3.0959,-3.0633,-3.0898,-3.0898,-3.0898,-3.0898,-3.0898,-3.0898,-3.0898,-3.0898,-3.0898,-3.0898,-3.0898,-3.0898,-3.0898,-3.0898,-3.0898,-3.0898,-3.0898,-3.082,-3.0644,-3.0351,-2.9805,-2.8945,-2.8516,-2.8301,-2.8301,-2.8301,-2.8301,-2.8301,-2.8125,-2.793,-2.7708,-2.75,-2.7285,-2.7012,-2.7012,-2.6934,-2.6777,-2.6777,-2.6543,-2.6133,-2.6133,-2.5977,-2.5693,-2.5693,-2.5693,-2.5693,-2.5693,-2.5693,-2.5693,-2.5693,-2.5693,-2.5273,-2.2758,-2.1841,-2.1135,-1.8394,-1.7582,-1.7528,-1.7315,-1.7328,-1.7447,-1.7275,-1.7609,-1.8556,-2.0782,-2.1308,-2.1922,-2.4151,-2.4375,-2.418,-2.418,-2.3965,-2.3789,-2.3789,0.0,-2.3101,-2.3101,-2.3101,-2.3101,-2.3101,-2.3101,-2.3101,-2.3101,-2.3101,-2.3101,-2.3101,-2.3101,-2.3101,-2.3101,-2.3398,-2.3613,-2.3789,-2.4675,-2.5342,-2.5792,-2.6993,-2.7814,-2.8262,-2.905,-2.9624,-3.0079,-3.0079,-3.0498,-3.1277,-3.0895,-3.1294,-3.2089,-3.1537,-3.1336,-3.1361,-3.1185,-3.0683,-3.0181,-3.0708,-3.0783,-3.0683,-3.0898,-3.0898,-3.0898,-3.0898,-3.0898,-3.0898,-3.0898,-3.0898,-3.0898,-3.0898,-3.0898,-3.0898,-3.0898,-3.0898,-3.0898,-3.0898,-3.0898,-3.0898,-3.0898,-3.0449,-2.9883,-2.916,-2.8848,-2.8691,-2.8691,-2.8555,-2.8496,-2.8496,-2.8359,-2.8144,-2.7871,-2.7871,-2.7715,-2.7422,-2.7422,-2.7344,-2.7226,-2.7226,-2.6973,-2.6582,-2.6582,-2.6328,-2.5908,-2.6044,-2.5927,-2.5713,-2.5898,-2.581,-2.5713,-2.5849,-2.5937,-2.5602,-2.3615,-2.2567,-2.1732,-1.9821,-1.9184,-1.906,-1.906,-1.8988,-1.8812,-1.8342,-1.8551,-1.9457,-2.1794,-2.1977,-2.2292,-2.4612,-2.4824,-2.4629,-2.4629,-2.4375,-2.4141,-2.4004,-2.3633,-2.3257,-2.312,-2.3101,-2.3101,-2.3101,-2.3101,-2.3101,-2.3101,-2.3101,-2.3101,-2.3101,-2.3101,-2.3159,-2.3296,-2.3633,-2.3848,-2.3984,-2.4687,-2.5106,-2.5106,-2.6377,-2.6982,-2.703,-2.7861,-2.8448,-2.8819,-2.8819,-2.9602,-3.0917,-3.0561,-3.1326,-3.2767,-3.219,-3.1938,-3.1888,-3.1712,-3.121,-3.0608,-3.1185,-3.1286,-3.1185,-3.0898,-3.0898,-3.0898,-3.0898,-3.0898,-3.0898,-3.0898,-3.0898,-3.0898,-3.0898,-3.0898,-3.0898,-3.0898,-3.0898,-3.0898,-3.0898,-3.0898,-3.0898,-3.0898,-3.0449,-3.0019,-2.9646,-2.957,-2.9626,-2.9626,-2.9141,-2.8926,-2.8926,-2.8496,-2.8301,-2.8301,-2.8301,-2.8301,-2.8301,-2.8301,-2.8066,-2.7728,-2.7728,-2.7422,-2.7031,-2.7031,-2.6777,-2.6445,-2.6855,-2.6434,-2.5752,-2.625,-2.6113,-2.5771,-2.625,-2.6387,-2.6245,-2.5282,-2.4018,-2.2908,-2.2908,-2.2606,-2.2324,-2.2324,-2.2042,-2.1405,-1.9989,-2.0692,-2.2047,-2.3384,-2.3327,-2.3395,-2.4821,-2.5125,-2.5125,-2.5125,-2.5106,-2.4969,-2.4492,-2.4062,-2.3633,-2.3159,-2.3101,-2.3101,-2.3101,-2.3101,-2.3101,-2.3101,-2.3101,-2.3101,-2.3101,-2.3101,-2.3296,-2.3769,-2.3789,-2.3984,-2.4414,-2.4844,-2.5125,-2.5125,-2.5508,-2.5693,-2.5693,-2.5693,-2.6332,-2.76,-2.76,-2.8602,-3.0351,-3.0351,-3.1064,-3.2148,-3.1637,-3.2064,-3.3018,-3.2441,-3.2215,-3.2265,-3.2842,-3.2692,-3.229,-3.0898,-3.0898,-3.0898,-3.0898,-3.0898,-3.0898,-3.0898,-3.0898,-3.0898,-3.0898,-3.0898,-3.0898,-3.0898,-3.0898,-3.0898,-3.0898,-3.0898,-3.0898,-3.0898,-3.0762,-3.0625,-3.0508,-2.9902,-2.9626,-2.9626,-2.9434,-2.9219,-2.8926,-2.8789,-2.8574,-2.8301,-2.8301,-2.8301,-2.8301,-2.8301,-2.8223,-2.8105,-2.8105,-2.7871,-2.748,-2.748,-2.7207,-2.6836,-2.6973,-2.6855,-2.6641,-2.6777,-2.6738,-2.666,-2.6777,-2.6836,-2.6582,-2.5356,-2.421,-2.3187,-2.2975,-2.2825,-2.2639,-2.2391,-2.2895,-2.3218,-2.1832,-2.1585,-2.2131,-2.3773,-2.3791,-2.3865,-2.5237,-2.5527,-2.5527,-2.5527,-2.5273,-2.5067,-2.4902,-2.4512,-2.4082,-2.3652,-2.3594,-2.3477,-2.314,-2.3101,-2.3101,-2.3101,-2.3418,-2.3594,-2.3594,-2.3867,-2.4082,-2.4219,-2.4512,-2.4793,-2.4863,-2.5312,-2.5527,-2.5527,-2.5615,-2.5693,-2.5693,-2.5693,-2.5917,-2.6304,-2.6304,-2.7043,-2.8416,-2.8416,-2.9579,-3.1467,-3.1322,-3.1743,-3.2466,-3.229,-3.1964,-3.1712,-3.2265,-3.2365,-3.234,-3.0898,-3.0898,-3.0898,-3.0898,-3.0898,-3.0898,-3.0898,-3.0898,-3.0898,-3.0898,-3.0898,-3.0898,-3.0898,-3.0898,-3.0898,-3.0898,-3.0898,-3.0898,-3.0898,-3.0898,-3.0898,-3.0898,-3.0371,-3.0098,-3.0098,-2.9922,-2.9609,-2.918,-2.9004,-2.8711,-2.8301,-2.8301,-2.8301,-2.8301,-2.8301,-2.8301,-2.8301,-2.8301,-2.8144,-2.791,-2.791,-2.7656,-2.7285,-2.7461,-2.7305,-2.7031,-2.7207,-2.7168,-2.7031,-2.7207,-2.7383,-2.7363,-2.6593,-2.5843,-2.5326,-2.5076,-2.4898,-2.4702,-2.4259,-2.4608,-2.4955,-2.4143,-2.3568,-2.3538,-2.4609,-2.4678,-2.4707,-2.5528,-2.5693,-2.5693,-2.5693,-2.5508,-2.5273,-2.5145,-2.4844,-2.4531,-2.4102,-2.4043,-2.3945,-2.3627,-2.3608,-2.3608,-2.3608,-2.3887,-2.4043,-2.4043,-2.4277,-2.4492,-2.4668,-2.4969,-2.5156,-2.5332,-2.5557,-2.5693,-2.5693,-2.5693,-2.5693,-2.5693,-2.5693,-2.5693,-2.5693,-2.5693,-2.638,-2.76,-2.76,-2.868,-3.0485,-3.0485,-3.0988,-3.181,-3.181,-3.1893,-3.2089,-3.2441,-3.2566,-3.2692,-3.0898,-3.0898,-3.0898,-3.0898,-3.0898,-3.0898,-3.0898,-3.0898,-3.0898,-3.0898,-3.0898,-3.0898,-3.0898,-3.0898,-3.0898,-3.0898,-3.0898,-3.0898,-3.0898,-3.0898,-3.0898,-3.0898,-3.0898,-3.0898,-3.0898,-3.0469,-3.0059,-2.9629,-2.9238,-2.8828,-2.8418,-2.8359,-2.834,-2.834,-2.832,-2.8301,-2.8301,-2.8301,-2.8301,-2.8301,-2.8301,-2.8066,-2.7806,-2.8144,-2.7812,-2.7187,-2.7578,-2.7461,-2.7187,-2.7578,-2.7969,-2.8301,-2.8301,-2.8301,-2.8301,-2.8301,-2.8027,-2.7637,-2.7187,-2.6797,-2.6484,-2.6445,-2.6113,-2.5752,-2.5791,-2.5771,-2.5752,-2.5752,-2.5752,-2.5732,-2.5693,-2.5693,-2.5605,-2.5195,-2.5137,-2.498,-2.4531,-2.4473,-2.4453,-2.4414,-2.4414,-2.4414,-2.4414,-2.4453,-2.4492,-2.4531,-2.4531,-2.4707,-2.5145,-2.5137,-2.5312,-2.5674,-2.5693,-2.5693,-2.5693,-2.5693,-2.5693,-2.5693,-2.5693,-2.5693,-2.5693,-2.5693,-2.6332,-2.7458,-2.7458,-2.8143,-2.9235,-2.9235,-2.9943,-3.1045,-3.1045,-3.1821,-3.2939,-3.2939,-3.2982,-3.3169,-3.0898,-3.0898,-3.0898,-3.0898,-3.0898,-3.0898,-3.0898,-3.0898,-3.0898,-3.0898,-3.0898,-3.0898,-3.0898,-3.0898,-3.0898,-3.0898,-3.0898,-3.0898,-3.0898,-3.0898,-3.0898,-3.0898,-3.0898,-3.0898,-3.0898,-3.0801,-3.0508,-3.0059,-2.9961,-2.9707,-2.9277,-2.8945,-2.8789,-2.8769,-2.8437,-2.8301,-2.8301,-2.8301,-2.8301,-2.8301,-2.8301,-2.8242,-2.8164,-2.8262,-2.8184,-2.8027,-2.8125,-2.8086,-2.8027,-2.8125,-2.8223,-2.8301,-2.8301,-2.8301,-2.8301,-2.8301,-2.8223,-2.8066,-2.7637,-2.7461,-2.7305,-2.6973,-2.6562,-2.6328,-2.666,-2.6484,-2.625,-2.625,-2.625,-2.6152,-2.5752,-2.5693,-2.5654,-2.5557,-2.5586,-2.543,-2.498,-2.4969,-2.4805,-2.4453,-2.4414,-2.4414,-2.4414,-2.4727,-2.5078,-2.5382,-2.5401,-2.544,-2.5538,-2.5586,-2.5596,-2.5693,-2.5693,-2.5693,-2.5693,-2.5693,-2.5693,-2.5693,-2.5693,-2.5693,-2.5693,-2.5693,-2.582,-2.611,-2.611,-2.6839,-2.8002,-2.8002,-2.868,-2.9761,-2.9761,-3.0553,-3.1601,-3.1601,-3.2239,-3.3262,-3.0898,-3.0898,-3.0898,-3.0898,-3.0898,-3.0898,-3.0898,-3.0898,-3.0898,-3.0898,-3.0898,-3.0898,-3.0898,-3.0898,-3.0898,-3.0898,-3.0898,-3.0898,-3.0898,-3.0898,-3.0898,-3.0898,-3.0898,-3.0898,-3.0898,-3.0898,-3.0664,-3.0195,-3.0195,-2.9883,-2.9258,-2.9023,-2.8809,-2.8613,-2.8398,-2.8301,-2.8301,-2.8301,-2.8301,-2.8301,-2.8301,-2.8301,-2.8301,-2.8301,-2.8301,-2.8301,-2.8301,-2.8301,-2.8301,-2.8301,-2.8301,-2.8301,-2.8301,-2.8301,-2.8301,-2.8301,-2.8301,-2.8203,-2.7826,-2.7728,-2.7611,-2.7129,-2.6855,-2.6738,-2.6973,-2.6699,-2.6387,-2.6387,-2.6387,-2.625,-2.5771,-2.5693,-2.5693,-2.5693,-2.5693,-2.5615,-2.543,-2.5391,-2.5312,-2.5078,-2.4992,-2.4992,-2.4992,-2.5254,-2.5488,-2.5674,-2.5937,-2.5957,-2.5693,-2.6083,-2.62,-2.6055,-2.625,-2.625,-2.6055,-2.625,-2.625,-2.6055,-2.5791,-2.5693,-2.5693,-2.5693,-2.5693,-2.5693,-2.5693,-2.6062,-2.6716,-2.6716,-2.7389,-2.8541,-2.8541,-2.9624,-3.1223,-3.1223,-3.2337,-3.3972,-3.0898,-3.0898,-3.0898,-3.0898,-3.0898,-3.0898,-3.0898,-3.0898,-3.0898,-3.0898,-3.0898,-3.0898,-3.0898,-3.0898,-3.0898,-3.0898,-3.0898,-3.0898,-3.0898,-3.0898,-3.0898,-3.0898,-3.0898,-3.0898,-3.0898,-3.0898,-3.0703,-3.0312,-3.0312,-2.9961,-2.9258,-2.9101,-2.8848,-2.8496,-2.8359,-2.8301,-2.8301,-2.8301,-2.8301,-2.8301,-2.8301,-2.8301,-2.8301,-2.8301,-2.8301,-2.8301,-2.8301,-2.8301,-2.8301,-2.8301,-2.8301,-2.8301,-2.8301,-2.8301,-2.8301,-2.8301,-2.8301,-2.8223,-2.7871,-2.7826,-2.7695,-2.7324,-2.7187,-2.7148,-2.7226,-2.6914,-2.6602,-2.6602,-2.6543,-2.6367,-2.5869,-2.5732,-2.5693,-2.5693,-2.5693,-2.5693,-2.5693,-2.5693,-2.5693,-2.5693,-2.5693,-2.5713,-2.5791,-2.581,-2.581,-2.581,-2.625,-2.6309,-2.583,-2.6582,-2.6855,-2.6504,-2.6836,-2.6855,-2.6504,-2.6836,-2.6836,-2.6484,-2.6133,-2.5908,-2.5908,-2.583,-2.581,-2.5791,-2.5713,-2.5693,-2.5693,-2.5693,-2.6332,-2.7268,-2.7268,-2.8634,-3.0643,-3.0822,-3.2157,-3.3991,-3.0898,-3.0898,-3.0898,-3.0898,-3.0898,-3.0898,-3.0898,-3.0898,-3.0898,-3.0898,-3.0898,-3.0898,-3.0898,-3.0898,-3.0898,-3.0898,-3.0898,-3.0898,-3.0898,-3.0898,-3.0898,-3.0898,-3.0898,-3.0898,-3.0898,-3.0898,-3.0859,-3.0801,-3.0801,-3.0742,-3.0605,-2.9844,-2.9453,-2.9375,-2.8633,-2.8301,-2.8301,-2.8301,-2.8301,-2.8301,-2.8301,-2.8301,-2.8301,-2.8301,-2.8301,-2.8301,-2.8301,-2.8301,-2.8301,-2.8301,-2.8301,-2.8301,-2.8301,-2.8301,-2.8301,-2.8301,-2.8301,-2.8281,-2.8223,-2.8203,-2.8203,-2.8144,-2.7851,-2.7676,-2.8027,-2.7793,-2.7552,-2.7552,-2.7187,-2.6797,-2.6387,-2.5996,-2.5693,-2.5693,-2.5693,-2.5693,-2.5693,-2.5693,-2.5693,-2.5693,-2.5693,-2.583,-2.6269,-2.6309,-2.6309,-2.6309,-2.6699,-2.6738,-2.6328,-2.6758,-2.6992,-2.6934,-2.6992,-2.6992,-2.6934,-2.6992,-2.6992,-2.6934,-2.6875,-2.6836,-2.6836,-2.6465,-2.6309,-2.6289,-2.5898,-2.5693,-2.5693,-2.5693,-2.5771,-2.5965,-2.5965,-2.6839,-2.8236,-2.9258,-3.0124,-3.0878,-3.0898,-3.0898,-3.0898,-3.0898,-3.0898,-3.0898,-3.0898,-3.0898,-3.0898,-3.0898,-3.0898,-3.0898,-3.0898,-3.0898,-3.0898,-3.0898,-3.0898,-3.0898,-3.0898,-3.0898,-3.0898,-3.0898,-3.0898,-3.0898,-3.0898,-3.0898,-3.0898,-3.0898,-3.0898,-3.0762,-3.0488,-2.9863,-2.9626,-2.9531,-2.8672,-2.8418,-2.8633,-2.8398,-2.8301,-2.8301,-2.8301,-2.8301,-2.8301,-2.8301,-2.8301,-2.8301,-2.8301,-2.8301,-2.8301,-2.8301,-2.8301,-2.8301,-2.8301,-2.8301,-2.8301,-2.8301,-2.8301,-2.8301,-2.8301,-2.8301,-2.8301,-2.8301,-2.8164,-2.8066,-2.8262,-2.8144,-2.7949,-2.7767,-2.7571,-2.7168,-2.6504,-2.623,-2.6016,-2.5732,-2.5693,-2.5693,-2.5693,-2.5937,-2.6191,-2.6426,-2.625,-2.6269,-2.6699,-2.6738,-2.6738,-2.6738,-2.6914,-2.6934,-2.6738,-2.7148,-2.7383,-2.7383,-2.7598,-2.7617,-2.7383,-2.7617,-2.7617,-2.7383,-2.7617,-2.748,-2.7012,-2.6816,-2.6738,-2.6719,-2.6289,-2.6094,-2.6074,-2.5791,-2.5693,-2.5693,-2.5693,-2.6476,-2.7783,-2.9601,-3.0382,-3.0676]},{"header":{"parameterUnit":"m.s-1","parameterCategory":1,"la1":30.6,"la2":28.766,"lo1":-90.7593,"lo2":-88.6598,"dy":0.0162,"dx":0.0183,"nx":116,"ny":114,"refTime":"2024-05-01T00:00:00:Z","depth":0,"parameterNumber":3,"parameterNumberName":"V-component_of_WINDS"},"data":[0.0,0.0,0.0,0.0,0.0,0.0,0.0,0.0,0.0,0.0,0.0,0.0,0.0,0.0,0.0,0.0,0.0,0.0,0.0,0.0,0.0,0.0,0.0,0.0,0.0,0.0,0.0,0.0,0.0,0.0,0.0,0.0,0.0,0.0,0.0,0.0,0.0,0.0,0.0,0.0,0.0,0.0,0.0,0.0,0.0,0.0,0.0,0.0,0.0,0.0,0.0,0.0,0.0,0.0,0.0,0.0,0.0,0.0,0.0,0.0,0.0,0.0,0.0,0.0,0.0,0.0,0.0,0.0,0.0,0.0,0.0,0.0,0.0,0.0,0.0,0.0,0.0,0.0,0.0,0.0,0.0,0.0,0.0,0.0,0.0,0.0,0.0,0.0,0.0,0.0,0.0,0.0,0.0,0.0,0.0,0.0,0.0,0.0,0.0,0.0,0.0,0.0,0.0,0.0,0.0,0.0,0.0,0.0,0.0,0.0,0.0,0.0,0.0,0.0,0.0,0.0,0.0,0.0,0.0,0.0,0.0,0.0,0.0,0.0,0.0,0.0,0.0,0.0,0.0,0.0,0.0,0.0,0.0,0.0,0.0,0.0,0.0,0.0,0.0,0.0,0.0,0.0,0.0,0.0,0.0,0.0,0.0,0.0,0.0,0.0,0.0,0.0,0.0,0.0,0.0,0.0,0.0,0.0,0.0,0.0,0.0,0.0,0.0,0.0,0.0,0.0,0.0,0.0,0.0,0.0,0.0,0.0,0.0,0.0,0.0,0.0,0.0,0.0,0.0,0.0,0.0,0.0,0.0,0.0,0.0,0.0,0.0,0.0,0.0,0.0,0.0,0.0,0.0,0.0,0.0,0.0,0.0,0.0,0.0,0.0,0.0,0.0,0.0,0.0,0.0,0.0,0.0,0.0,0.0,0.0,0.0,0.0,0.0,0.0,0.0,0.0,0.0,0.0,0.0,0.0,0.0,0.0,0.0,0.0,0.0,0.0,0.0,0.0,0.0,0.0,0.0,0.0,0.0,0.0,0.0,0.0,0.0,0.0,0.0,0.0,0.0,0.0,0.0,0.0,0.0,0.0,0.0,0.0,0.0,0.0,0.0,0.0,0.0,0.0,0.0,0.0,0.0,0.0,0.0,0.0,0.0,0.0,0.0,0.0,0.0,0.0,0.0,0.0,0.0,0.0,0.0,0.0,0.0,0.0,0.0,0.0,0.0,0.0,0.0,0.0,0.0,0.0,0.0,0.0,0.0,0.0,0.0,0.0,0.0,0.0,0.0,0.0,0.0,0.0,0.0,0.0,0.0,0.0,0.0,0.0,0.0,0.0,0.0,0.0,0.0,0.0,0.0,0.0,0.0,0.0,0.0,0.0,0.0,0.0,0.0,0.0,0.0,0.0,0.0,0.0,0.0,0.0,0.0,0.0,0.0,0.0,0.0,0.0,0.0,0.0,0.0,0.0,0.0,0.0,0.0,0.0,0.0,0.0,0.0,0.0,0.0,0.0,0.0,0.0,0.0,0.0,0.0,0.0,0.0,0.0,0.0,0.0,0.0,0.0,0.0,0.0,0.0,0.0,0.0,0.0,0.0,0.0,0.0,0.0,0.0,0.0,0.0,0.0,0.0,0.0,0.0,0.0,0.0,0.0,0.0,0.0,0.0,0.0,0.0,0.0,0.0,0.0,0.0,0.0,0.0,0.0,0.0,0.0,0.0,0.0,0.0,0.0,0.0,0.0,0.0,0.0,0.0,0.0,0.0,0.0,0.0,0.0,0.0,0.0,0.0,0.0,0.0,0.0,0.0,0.0,0.0,0.0,0.0,0.0,0.0,0.0,0.0,0.0,0.0,0.0,0.0,0.0,0.0,0.0,0.0,0.0,0.0,0.0,0.0,0.0,0.0,0.0,0.0,0.0,0.0,0.0,0.0,0.0,0.0,0.0,0.0,0.0,0.0,0.0,0.0,0.0,0.0,0.0,0.0,0.0,0.0,0.0,0.0,0.0,0.0,0.0,0.0,0.0,0.0,0.0,0.0,0.0,0.0,0.0,0.0,0.0,0.0,0.0,0.0,0.0,0.0,0.0,0.0,0.0,0.0,0.0,0.0,0.0,0.0,0.0,0.0,0.0,0.0,0.0,0.0,0.0,0.0,0.0,0.0,0.0,0.0,0.0,0.0,0.0,0.0,0.0,0.0,0.0,0.0,0.0,0.0,0.0,0.0,0.0,0.0,0.0,0.0,0.0,0.0,0.0,0.0,0.0,0.0,0.0,0.0,0.0,0.0,0.0,0.0,0.0,0.0,0.0,0.0,0.0,0.0,0.0,0.0,0.0,0.0,0.0,0.0,0.0,0.0,0.0,0.0,0.0,0.0,0.0,0.0,0.0,0.0,0.0,0.0,0.0,0.0,0.0,0.0,0.0,0.0,0.0,0.0,0.0,0.0,0.0,0.0,0.0,0.0,0.0,0.0,0.0,0.0,0.0,0.0,0.0,0.0,0.0,0.0,0.0,0.0,0.0,0.0,0.0,0.0,0.0,0.0,0.0,0.0,0.0,0.0,0.0,0.0,0.0,0.0,0.0,0.0,0.0,0.0,0.0,0.0,0.0,0.0,0.0,0.0,0.0,0.0,0.0,0.0,0.0,0.0,0.0,0.0,0.0,0.0,0.0,0.0,0.0,0.0,0.0,0.0,0.0,0.0,0.0,0.0,0.0,0.0,0.0,0.0,0.0,0.0,0.0,0.0,0.0,0.0,0.0,0.0,0.0,0.0,0.0,0.0,0.0,0.0,0.0,0.0,0.0,0.0,0.0,0.0,0.0,0.0,0.0,0.0,0.0,0.0,0.0,0.0,0.0,0.0,0.0,0.0,0.0,0.0,0.0,0.0,0.0,0.0,0.0,0.0,0.0,0.0,0.0,0.0,0.0,0.0,0.0,0.0,0.0,0.0,0.0,0.0,0.0,0.0,0.0,0.0,0.0,0.0,0.0,0.0,0.0,0.0,0.0,0.0,0.0,0.0,0.0,0.0,0.0,0.0,0.0,0.0,0.0,0.0,0.0,0.0,0.0,0.0,0.0,0.0,0.0,0.0,0.0,0.0,0.0,0.0,0.0,0.0,0.0,0.0,0.0,0.0,0.0,0.0,0.0,0.0,0.0,0.0,0.0,0.0,0.0,0.0,0.0,0.0,0.0,0.0,0.0,0.0,0.0,0.0,0.0,0.0,0.0,0.0,0.0,0.0,0.0,0.0,0.0,0.0,0.0,0.0,0.0,0.0,0.0,0.0,0.0,0.0,0.0,0.0,0.0,0.0,0.0,0.0,0.0,0.0,0.0,0.0,0.0,0.0,0.0,0.0,0.0,0.0,0.0,0.0,0.0,0.0,0.0,0.0,0.0,0.0,0.0,0.0,0.0,0.0,0.0,0.0,0.0,0.0,0.0,0.0,0.0,0.0,0.0,0.0,0.0,0.0,0.0,0.0,0.0,0.0,0.0,0.0,0.0,0.0,0.0,0.0,0.0,0.0,0.0,0.0,0.0,0.0,0.0,0.0,0.0,0.0,0.0,0.0,0.0,0.0,0.0,0.0,0.0,0.0,0.0,0.0,0.0,0.0,0.0,0.0,0.0,0.0,0.0,0.0,0.0,0.0,0.0,0.0,0.0,0.0,0.0,0.0,0.0,0.0,0.0,0.0,0.0,0.0,0.0,0.0,0.0,0.0,0.0,0.0,0.0,0.0,0.0,0.0,0.0,0.0,0.0,0.0,0.0,0.0,0.0,0.0,0.0,0.0,0.0,0.0,0.0,0.0,0.0,0.0,0.0,0.0,0.0,0.0,0.0,0.0,0.0,0.0,0.0,0.0,0.0,0.0,0.0,0.0,0.0,0.0,0.0,0.0,0.0,0.0,0.0,0.0,0.0,0.0,0.0,0.0,0.0,0.0,0.0,0.0,0.0,0.0,0.0,0.0,0.0,0.0,0.0,0.0,0.0,0.0,0.0,0.0,0.0,0.0,0.0,0.0,0.0,0.0,0.0,0.0,0.0,0.0,0.0,0.0,0.0,0.0,0.0,0.0,0.0,0.0,0.0,0.0,0.0,0.0,0.0,0.0,0.0,0.0,0.0,0.0,0.0,0.0,0.0,0.0,0.0,0.0,0.0,0.0,0.0,0.0,0.0,0.0,0.0,0.0,0.0,0.0,0.0,0.0,0.0,0.0,0.0,0.0,0.0,0.0,0.0,0.0,0.0,0.0,0.0,0.0,0.0,0.0,0.0,0.0,0.0,0.0,0.0,0.0,0.0,0.0,0.0,0.0,0.0,0.0,0.0,0.0,0.0,0.0,0.0,0.0,0.0,0.0,0.0,0.0,0.0,0.0,0.0,0.0,0.0,0.0,0.0,0.0,0.0,0.0,0.0,0.0,0.0,0.0,0.0,0.0,0.0,0.0,0.0,0.0,0.0,0.0,0.0,0.0,0.0,0.0,0.0,0.0,0.0,0.0,0.0,0.0,0.0,0.0,0.0,0.0,0.0,0.0,0.0,0.0,0.0,0.0,0.0,0.0,0.0,0.0,0.0,0.0,0.0,0.0,0.0,0.0,0.0,0.0,0.0,0.0,0.0,0.0,0.0,0.0,0.0,0.0,0.0,0.0,0.0,0.0,0.0,0.0,0.0,0.0,0.0,0.0,0.0,0.0,0.0,0.0,0.0,0.0,0.0,0.0,0.0,0.0,0.0,0.0,0.0,0.0,0.0,0.0,0.0,0.0,0.0,0.0,0.0,0.0,0.0,0.0,0.0,0.0,0.0,0.0,0.0,0.0,0.0,0.0,0.0,0.0,0.0,0.0,0.0,0.0,0.0,0.0,0.0,0.0,0.0,0.0,0.0,0.0,0.0,0.0,0.0,0.0,0.0,0.0,0.0,0.0,0.0,0.0,0.0,0.0,0.0,0.0,0.0,0.0,0.0,0.0,0.0,0.0,0.0,0.0,0.0,0.0,0.0,0.0,0.0,0.0,0.0,0.0,0.0,0.0,0.0,0.0,0.0,0.0,0.0,0.0,0.0,0.0,0.0,0.0,0.0,0.0,0.0,0.0,0.0,0.0,0.0,0.0,0.0,0.0,0.0,0.0,0.0,0.0,0.0,0.0,0.0,0.0,0.0,0.0,0.0,0.0,0.0,0.0,0.0,0.0,0.0,0.0,0.0,0.0,0.0,0.0,0.0,0.0,0.0,0.0,0.0,0.0,0.0,0.0,0.0,0.0,0.0,0.0,0.0,0.0,0.0,0.0,0.0,0.0,0.0,0.0,0.0,0.0,0.0,0.0,0.0,0.0,0.0,0.0,0.0,0.0,0.0,0.0,0.0,0.0,0.0,0.0,0.0,0.0,0.0,0.0,0.0,0.0,0.0,0.0,0.0,0.0,0.0,0.0,0.0,0.0,0.0,0.0,0.0,0.0,0.0,0.0,0.0,0.0,0.0,0.0,0.0,0.0,0.0,0.0,0.0,0.0,0.0,0.0,0.0,0.0,0.0,0.0,0.0,0.0,0.0,0.0,0.0,0.0,0.0,0.0,0.0,0.0,0.0,0.0,0.0,0.0,0.0,0.0,0.0,0.0,0.0,0.0,0.0,0.0,0.0,0.0,0.0,0.0,0.0,0.0,0.0,0.0,0.0,0.0,0.0,0.0,0.0,0.0,0.0,0.0,0.0,0.0,0.0,0.0,0.0,0.0,0.0,0.0,0.0,0.0,0.0,0.0,0.0,0.0,0.0,0.0,0.0,0.0,0.0,0.0,0.0,0.0,0.0,0.0,0.0,0.0,0.0,0.0,0.0,0.0,0.0,0.0,0.0,0.0,0.0,0.0,0.0,0.0,0.0,0.0,0.0,0.0,0.0,0.0,0.0,0.0,0.0,0.0,0.0,0.0,0.0,0.0,0.0,0.0,0.0,0.0,0.0,0.0,0.0,0.0,0.0,0.0,0.0,0.0,0.0,0.0,0.0,0.0,0.0,0.0,0.0,0.0,0.0,0.0,0.0,0.0,0.0,0.0,0.0,0.0,0.0,0.0,0.0,0.0,0.0,0.0,0.0,0.0,0.0,0.0,0.0,1.3605,0.0,0.0,0.0,0.0,0.0,0.0,0.0,0.0,0.0,0.0,0.0,0.0,0.0,0.0,0.0,0.0,0.0,0.0,0.0,0.0,0.0,0.0,0.0,0.0,2.0447,2.0652,2.0479,2.0991,2.1118,2.0705,0.0,0.0,0.0,0.0,0.0,2.0898,2.1073,2.1288,2.1543,2.1973,2.2402,2.2769,2.1423,2.0428,1.9887,0.0,0.0,0.0,0.0,0.0,0.0,0.0,0.0,0.0,0.0,0.0,0.0,0.0,0.0,0.0,0.0,0.0,0.0,0.0,0.0,0.0,0.0,0.0,0.0,0.0,0.0,0.0,0.0,0.0,0.0,0.0,0.0,0.0,0.0,0.0,0.0,0.0,0.0,0.0,0.0,0.0,0.0,0.0,0.0,0.0,0.0,0.0,0.0,0.0,0.0,0.0,0.0,0.0,0.0,0.0,0.0,0.0,0.0,0.0,0.0,0.0,0.0,0.0,0.0,0.0,0.0,0.0,0.0,0.0,0.0,0.0,1.5091,0.0,0.0,0.0,0.0,0.0,0.0,0.0,0.0,0.0,0.0,0.0,0.0,0.0,0.0,0.0,0.0,0.0,0.0,0.0,0.0,0.0,2.1484,2.1855,2.2324,2.2617,2.2617,2.2617,2.2526,2.2302,2.2117,0.0,0.0,0.0,2.1428,2.161,2.1487,2.1703,2.2304,2.2487,2.275,2.3101,2.3101,2.258,2.1551,2.0342,0.0,0.0,0.0,0.0,0.0,0.0,0.0,0.0,0.0,0.0,0.0,0.0,0.0,0.0,0.0,0.0,0.0,0.0,0.0,0.0,0.0,0.0,0.0,0.0,0.0,0.0,0.0,0.0,0.0,0.0,0.0,0.0,0.0,0.0,0.0,0.0,0.0,0.0,0.0,0.0,0.0,0.0,0.0,0.0,0.0,0.0,0.0,0.0,0.0,0.0,0.0,0.0,0.0,0.0,0.0,0.0,0.0,0.0,0.0,0.0,0.0,0.0,0.0,1.5802,1.6638,1.7089,1.8199,1.8744,1.8744,1.801,1.7688,1.7622,1.7141,0.0,0.0,0.0,0.0,0.0,0.0,0.0,0.0,0.0,0.0,0.0,0.0,0.0,0.0,0.0,0.0,0.0,0.0,0.0,2.1816,2.1875,2.2578,2.3003,2.3023,2.3023,2.3282,2.3867,2.295,2.2667,2.316,2.229,2.2228,2.3179,2.2629,2.2848,2.3908,2.3305,2.3042,2.3101,2.3101,2.3013,2.2862,2.2673,2.2585,2.2536,0.0,0.0,0.0,0.0,0.0,0.0,0.0,0.0,0.0,0.0,0.0,0.0,0.0,0.0,0.0,0.0,0.0,0.0,0.0,0.0,0.0,0.0,0.0,0.0,0.0,0.0,0.0,0.0,0.0,0.0,0.0,0.0,0.0,0.0,0.0,0.0,0.0,0.0,0.0,0.0,0.0,1.3957,1.4401,0.0,0.0,0.0,0.0,0.0,0.0,0.0,0.0,0.0,0.0,0.0,0.0,0.0,1.3709,1.4417,1.4494,1.5199,1.6606,1.7339,1.8237,1.9377,1.9567,1.9773,1.9987,1.9613,0.0,1.7929,1.7849,0.0,0.0,0.0,0.0,0.0,0.0,0.0,0.0,0.0,0.0,0.0,0.0,0.0,0.0,0.0,0.0,0.0,0.0,0.0,0.0,0.0,2.273,2.3343,2.4016,2.3474,2.3763,2.5389,2.443,2.4096,2.4752,2.4349,2.4309,2.477,2.3887,2.3804,2.4535,2.3591,2.343,2.4039,2.3387,2.3101,2.3101,2.3101,2.3101,2.3057,2.2536,0.0,0.0,0.0,0.0,0.0,0.0,0.0,0.0,0.0,0.0,0.0,0.0,0.0,0.0,0.0,0.0,0.0,0.0,0.0,0.0,0.0,0.0,0.0,0.0,0.0,0.0,0.0,0.0,0.0,0.0,0.0,0.0,0.0,0.0,0.0,0.0,0.0,0.0,0.0,1.6451,1.6742,1.677,1.6241,1.5784,0.0,0.0,0.0,0.0,0.0,0.0,0.0,0.0,0.0,1.5671,1.5009,1.5594,1.7716,1.698,1.7551,1.9287,1.943,1.9866,2.0535,2.0535,2.0521,2.0468,2.0347,1.9813,1.9011,1.8677,1.8009,1.7168,0.0,0.0,0.0,0.0,1.6326,1.6326,0.0,0.0,0.0,0.0,0.0,0.0,0.0,0.0,0.0,0.0,0.0,0.0,2.2864,2.3302,2.4016,2.5126,2.4467,2.4808,2.6789,2.588,2.5603,2.6325,2.6124,2.6124,2.6405,2.5617,2.522,2.521,2.4382,2.4382,2.521,2.4082,2.3541,2.3497,2.3212,2.3101,2.3101,2.3101,2.3101,2.3101,0.0,0.0,0.0,0.0,0.0,0.0,0.0,0.0,0.0,0.0,0.0,0.0,0.0,0.0,0.0,0.0,0.0,0.0,0.0,0.0,0.0,0.0,0.0,0.0,0.0,0.0,0.0,0.0,0.0,0.0,0.0,0.0,0.0,0.0,0.0,0.0,0.0,1.8531,1.9038,1.8744,1.8351,1.7968,0.0,0.0,0.0,0.0,0.0,0.0,1.73,1.6292,1.6501,1.8133,1.7241,1.7948,2.05,1.9423,1.96,2.1109,2.0895,2.0895,2.1109,2.1029,2.0882,2.0668,2.0601,2.0267,1.976,1.9252,1.8504,1.7675,1.7434,1.7085,1.67,1.662,1.6593,1.6643,0.0,0.0,0.0,0.0,0.0,0.0,0.0,0.0,0.0,0.0,0.0,2.2487,2.395,2.4472,2.5168,2.6318,2.6359,2.6789,2.7924,2.6994,2.6871,2.794,2.7012,2.693,2.7956,2.7917,2.7418,2.64,2.6359,2.6359,2.64,2.5252,2.4702,2.466,2.3584,2.3101,2.3101,2.3101,2.3101,2.3101,2.3101,0.0,0.0,0.0,0.0,0.0,0.0,0.0,0.0,0.0,0.0,0.0,0.0,0.0,0.0,0.0,0.0,0.0,0.0,0.0,0.0,0.0,0.0,0.0,0.0,0.0,0.0,0.0,0.0,0.0,0.0,0.0,0.0,0.0,0.0,0.0,0.0,0.0,0.0,1.9417,2.002,0.0,0.0,0.0,0.0,1.6894,1.7256,1.7673,1.8045,1.8235,1.9236,2.1275,2.1301,2.1328,2.1547,2.1419,2.1299,2.1109,2.1096,2.1096,2.1096,2.0828,2.0695,2.0655,2.0374,2.008,1.9773,1.9466,1.8824,1.7942,1.7675,1.7208,1.6673,1.6393,1.6348,1.6481,0.0,0.0,0.0,2.2358,2.2608,2.2861,2.2526,2.2489,2.2767,2.3559,2.3795,2.4363,2.5552,2.5834,2.6337,2.7441,2.6871,2.7261,2.9067,2.8148,2.8028,2.9145,2.8831,2.845,2.8084,2.8084,2.7924,2.7522,2.6853,2.6853,2.7481,2.565,2.4787,2.4745,2.3584,2.3101,2.3101,2.3101,2.3101,2.3101,2.3101,2.3101,0.0,0.0,0.0,0.0,0.0,0.0,0.0,0.0,0.0,0.0,0.0,0.0,0.0,0.0,0.0,0.0,0.0,0.0,0.0,0.0,0.0,0.0,0.0,0.0,0.0,0.0,0.0,0.0,0.0,0.0,0.0,0.0,0.0,0.0,0.0,0.0,0.0,2.0227,2.0989,0.0,2.0147,2.0321,2.0257,1.9575,1.9936,2.0271,2.0554,2.0735,2.0993,2.155,2.1614,2.1614,2.1614,2.1363,2.1309,2.139,2.1203,2.1109,2.1096,2.0815,2.0575,2.0374,2.008,1.9786,1.9506,1.9199,1.8784,1.8317,1.821,1.7796,1.7261,1.7154,1.7539,1.811,0.0,2.3449,0.0,2.2811,2.3221,2.3604,2.3279,2.3377,2.3884,2.487,2.5004,2.5521,2.6902,2.7035,2.7504,2.8569,2.8028,2.8251,2.9702,2.9106,2.9028,2.974,2.9804,2.9443,2.8688,2.8688,2.8688,2.8688,2.7947,2.7988,2.8648,2.6767,2.59,2.5859,2.4766,2.4274,2.4231,2.3961,2.3569,2.3101,2.3101,2.3179,2.332,0.0,0.0,0.0,0.0,0.0,0.0,0.0,0.0,0.0,0.0,0.0,0.0,0.0,0.0,0.0,0.0,0.0,0.0,0.0,0.0,0.0,0.0,0.0,0.0,0.0,0.0,0.0,0.0,0.0,0.0,0.0,0.0,0.0,0.0,0.0,2.0935,2.0842,2.1777,2.2084,2.1203,2.147,2.1657,2.1563,2.183,2.2097,2.2124,2.2231,2.2151,2.1857,2.1844,2.175,2.1614,2.1363,2.1309,2.1403,2.1203,2.1109,2.1096,2.0708,2.0414,2.0153,1.9826,1.9492,1.9199,1.8998,1.8957,1.8974,1.8495,1.8036,1.7555,1.7355,1.796,1.892,2.3095,2.3602,2.3697,2.2726,2.3508,2.3897,2.295,2.3248,2.3958,2.4947,2.5121,2.5874,2.7949,2.8124,2.8609,2.9702,2.9804,2.9804,2.9804,2.9804,2.9804,2.9804,2.9804,2.9804,2.9804,2.9804,2.9804,2.9804,2.9804,2.9804,2.9804,2.8648,2.8084,2.8044,2.6953,2.6524,2.6464,2.5765,2.4577,2.3188,2.3164,2.3393,2.3769,0.0,0.0,0.0,0.0,0.0,0.0,0.0,0.0,0.0,0.0,0.0,0.0,0.0,0.0,0.0,0.0,0.0,0.0,0.0,0.0,0.0,0.0,0.0,0.0,0.0,0.0,0.0,0.0,0.0,0.0,0.0,0.0,0.0,1.984,2.0842,2.1547,2.1229,2.2472,2.3006,2.2124,2.2565,2.2779,2.2472,2.2712,2.2752,2.2458,2.2712,2.2726,2.2418,2.2405,2.2124,2.1614,2.1601,2.139,2.1109,2.1109,2.1109,2.1096,2.0494,2.0167,2.0201,1.9626,1.9256,1.8988,1.8975,1.943,2.003,1.8629,1.7903,1.7673,1.7079,1.7584,1.8923,2.3095,2.3602,2.4035,2.4154,2.474,2.5274,2.5428,2.5589,2.6042,2.7115,2.7236,2.7789,2.9164,2.9326,2.9443,2.974,2.9804,2.9804,2.9804,2.9804,2.9804,2.9804,2.9804,2.9804,2.9804,2.9804,2.9804,2.9804,2.9804,2.9804,2.9804,2.8648,2.8084,2.8044,2.6953,2.6524,2.6483,2.6285,2.5928,2.5485,2.446,2.4141,2.4238,0.0,0.0,0.0,0.0,0.0,0.0,0.0,0.0,0.0,0.0,0.0,0.0,0.0,0.0,0.0,0.0,0.0,0.0,0.0,0.0,0.0,0.0,0.0,0.0,0.0,0.0,0.0,0.0,0.0,0.0,0.0,1.9613,2.0508,2.0722,2.1577,2.2392,2.2966,2.3581,2.3781,2.3327,2.3621,2.3621,2.3113,2.3153,2.3166,2.3086,2.2939,2.2632,2.2124,2.2111,2.183,2.1243,2.1229,2.1189,2.1109,2.1109,2.1109,2.1096,2.0494,2.0167,2.0201,1.9626,1.9927,2.0814,2.0294,2.0807,2.1825,2.0172,1.9964,2.0527,1.9987,2.0249,2.1095,2.3095,2.3602,2.4104,2.4431,2.5084,2.5711,2.6072,2.6348,2.6901,2.7971,2.8097,2.8524,2.9679,2.9804,2.9804,2.9804,2.9804,2.9804,2.9804,2.9804,2.9804,2.9804,2.9804,2.9804,2.9804,2.9804,2.9804,2.9804,2.9804,2.9804,2.9804,2.9106,2.8806,2.8767,2.8171,2.7891,2.7851,2.7574,2.7438,2.7382,2.6232,2.5517,2.5057,2.4795,2.4531,2.4316,2.4316,2.4199,2.3984,2.3555,0.0,0.0,0.0,0.0,0.0,0.0,0.0,0.0,0.0,0.0,0.0,0.0,0.0,0.0,0.0,0.0,0.0,0.0,0.0,0.0,0.0,0.0,0.0,0.0,2.0535,2.1456,2.2124,2.2552,2.3086,2.3861,2.4209,2.4315,2.4155,2.4289,2.4142,2.3554,2.3514,2.3407,2.314,2.2966,2.2645,2.2178,2.2044,2.1764,2.1296,2.1176,2.1109,2.1109,2.0989,2.0922,2.0909,2.0321,2.0054,2.0027,2.0247,2.0601,2.1152,2.1363,2.2091,0.0,0.0,0.0,0.0,0.0,2.1578,2.1735,2.3195,2.3703,2.4104,2.418,2.4958,2.5611,2.5686,2.6172,2.6901,2.7971,2.8097,2.8524,2.9679,2.9804,2.9804,2.9804,2.9804,2.9804,2.9804,2.9804,2.9804,2.9804,2.9804,2.9804,2.9804,2.9804,2.9804,2.9804,2.9804,2.9804,2.9804,2.9804,2.9804,2.9804,2.9804,2.9804,2.9752,2.9157,2.892,2.8845,2.8165,2.7305,2.6319,2.5558,2.5334,2.5374,2.5232,2.4883,2.4512,2.4082,0.0,0.0,0.0,0.0,0.0,0.0,0.0,0.0,0.0,0.0,0.0,0.0,0.0,0.0,0.0,0.0,0.0,0.0,0.0,0.0,0.0,0.0,0.0,0.0,2.1832,2.2754,2.3732,2.3594,2.3634,2.4182,2.4476,2.4609,2.4543,2.4569,2.4369,2.3808,2.3741,2.35,2.3062,0.0,0.0,0.0,0.0,2.1844,2.1614,2.1256,2.1109,2.1109,2.0815,2.0681,2.0655,2.0067,1.9918,2.0128,2.1075,2.1364,2.1132,2.2343,2.3272,2.38,2.2617,2.2097,2.2045,2.2476,2.2143,2.1658,2.3828,2.428,2.4782,2.5209,2.546,2.5762,2.6248,2.6424,2.6901,2.7971,2.8097,2.8524,2.9679,2.9804,2.9804,2.9804,2.9804,2.9804,2.9804,2.9804,2.9804,2.9804,2.9804,2.9804,2.9804,2.9804,2.9804,2.9804,2.9804,2.9804,2.9804,2.9804,2.9804,2.9804,2.9804,2.9804,2.9804,2.9646,2.9617,2.9574,2.9338,2.8774,2.8008,2.6844,2.6698,2.6981,2.5924,2.5499,2.541,2.4961,2.4871,2.4746,2.4316,2.416,0.0,0.0,0.0,0.0,0.0,0.0,0.0,0.0,0.0,0.0,0.0,0.0,0.0,0.0,0.0,0.0,0.0,0.0,0.0,2.3616,2.4174,2.4639,2.4197,2.4075,2.4168,2.4516,2.4609,2.4449,2.3981,2.4155,2.4142,2.3794,2.3554,2.346,2.3594,2.3126,2.2726,2.2432,2.2138,2.1844,2.1614,2.1256,2.1109,2.1109,0.0,0.0,2.0655,2.0067,2.0423,2.1525,2.1168,2.2308,2.4419,2.4017,2.4418,2.5284,2.502,2.4487,2.3909,2.399,2.3505,2.2775,2.4808,2.5034,2.5285,2.5561,2.5837,2.6147,2.6449,2.6499,2.6901,2.7971,2.8097,2.8524,2.9679,2.9804,2.9804,2.9804,2.9804,2.9804,2.9804,2.9804,2.9804,2.9804,2.9804,2.9804,2.9804,2.9804,2.9804,2.9804,3.008,3.0206,3.0206,3.0482,3.0457,3.0206,3.0482,3.0457,3.0206,3.0206,3.0206,3.0217,3.0114,2.988,2.9499,2.8652,2.8402,2.8373,2.7523,2.7126,2.6786,2.574,2.541,2.5332,2.4883,2.459,2.4375,0.0,0.0,0.0,0.0,0.0,0.0,0.0,0.0,0.0,0.0,0.0,0.0,0.0,0.0,2.716,2.6537,0.0,2.7729,2.6584,2.6167,2.6017,2.5869,2.4993,2.4422,2.4422,2.4422,2.4302,2.4022,2.4115,2.4142,2.3995,2.3714,2.3554,2.3554,2.2966,2.2579,2.2418,2.1991,2.1762,2.1614,2.1256,2.1109,2.1109,2.0668,2.0454,2.0428,1.9853,2.0422,2.1795,2.1973,2.3232,2.5071,2.4751,2.4754,2.5031,2.5031,2.4758,2.4394,2.418,2.3691,2.3101,2.5586,2.5686,2.5762,2.5762,2.6172,2.6499,2.6499,2.6499,2.6901,2.7971,2.8097,2.8524,2.9679,2.9804,2.9804,2.9804,2.9804,2.9804,2.9804,2.9905,2.9905,2.9804,2.9905,2.9955,2.9955,2.9955,3.0005,3.0105,3.0557,3.0758,3.0783,3.1185,3.116,3.0783,3.121,3.116,3.0758,3.0758,3.0758,3.0783,3.0884,3.0934,3.0867,3.0662,3.0239,2.96,2.8919,2.8404,2.7841,2.6328,2.5693,2.5566,2.5293,2.5019,2.4746,2.4492,2.4727,0.0,0.0,0.0,0.0,0.0,0.0,0.0,0.0,0.0,2.6055,2.7363,2.8262,2.8754,2.8637,2.9384,2.969,2.8993,2.7942,2.714,2.6982,2.5566,2.4529,2.4235,2.4249,2.4262,2.4209,2.4155,2.4115,2.4115,2.3794,2.3514,2.334,2.2752,2.2418,2.2418,2.1857,2.1614,2.1614,2.1203,2.1056,2.1096,2.0454,2.0174,2.0214,1.992,2.0616,2.1974,2.3277,2.4263,2.4977,2.5073,2.4863,2.4531,2.4355,2.4297,2.4258,2.3906,2.3516,2.3101,2.5586,2.6047,2.6399,2.6399,2.6449,2.6499,2.6499,2.6499,2.6901,2.7971,2.8097,2.8524,2.9679,2.9804,2.9804,2.9804,2.9804,2.9804,2.9804,3.0256,3.0306,2.9804,3.0256,3.0532,3.0532,3.0532,3.0758,3.121,3.126,3.1311,3.1311,3.1361,3.1361,3.1311,3.1361,3.1361,3.1311,3.1311,3.1311,3.1336,3.1838,3.2039,3.2072,3.2567,3.1957,3.0599,2.889,2.7992,2.7535,2.6635,2.5801,2.5195,2.5547,2.5898,2.5937,2.4766,2.4727,2.4785,2.3452,2.3535,2.418,2.5206,2.5499,2.6044,0.0,0.0,2.8301,2.957,3.0234,3.082,3.1597,3.239,3.2057,2.9378,2.9208,2.8318,2.5377,2.471,2.4529,2.4235,2.4436,2.4489,2.4222,2.3968,2.3821,2.3821,2.3287,2.3073,2.3313,2.2752,2.2418,2.2418,2.1857,2.1614,2.1614,2.1002,2.0855,2.1096,2.0254,1.9987,2.0214,2.0988,2.1984,2.3146,2.5179,2.5871,2.5576,2.5245,2.5086,2.4922,2.416,2.3867,2.3848,2.3809,2.3516,2.3101,2.6122,2.6323,2.6499,2.6499,2.6499,2.6499,2.6499,2.6499,2.6901,2.7971,2.8097,2.8524,2.9679,2.9804,2.9804,2.9804,2.9804,2.9804,2.9804,3.0306,3.0507,3.0281,3.0783,3.106,3.106,3.106,3.1185,3.1386,3.2039,3.2365,3.239,3.3018,3.3169,3.2867,3.3194,3.2968,3.2365,3.2365,3.219,3.1888,3.2114,3.2014,3.1788,3.2365,3.2003,3.1126,3.0192,2.9344,0.0,2.7022,2.5924,2.5145,2.5293,2.5293,2.5137,2.457,2.4727,2.5,2.468,2.4738,2.5117,0.0,2.6484,2.7168,2.8301,2.8613,2.8945,2.998,3.0957,3.1816,3.2422,3.3437,3.3835,0.0,3.1185,2.9579,2.8095,2.5991,2.4529,2.4235,2.4462,2.4516,2.4235,2.3941,2.3834,2.4008,2.3474,2.3193,2.3313,2.2592,2.2164,2.2164,2.1603,2.1296,2.1296,2.1056,2.0909,2.0855,2.0307,2.0479,2.1287,2.1508,2.2514,2.4245,2.6007,2.6211,2.5312,2.4863,2.4551,2.4258,2.3652,2.3418,2.3418,2.3418,2.3257,2.3101,2.6499,2.6499,2.6499,2.6499,2.6499,2.6499,2.6499,2.6499,2.6901,2.7971,2.8097,2.8524,2.9679,2.9804,2.9804,2.9804,2.9804,2.9804,2.9804,3.0432,3.0758,3.0633,3.126,3.1687,3.1863,3.1863,3.1989,3.2315,3.3144,3.352,3.3545,3.4349,3.45,3.4148,3.455,3.4274,3.352,3.352,3.3294,3.2918,3.2918,3.2566,3.2114,3.2365,3.2114,3.1522,3.086,3.0018,2.9037,2.7513,2.6202,2.5239,2.5358,2.5026,2.4551,2.4316,2.4375,2.4668,2.5215,2.5499,0.0,2.6562,2.7532,2.8354,2.8711,2.916,2.9668,3.041,3.1426,3.2363,3.3027,3.4004,3.4751,3.4777,3.2695,3.0876,3.038,2.7401,2.5212,2.4991,2.4593,2.4315,2.4102,2.3888,2.3821,2.3955,2.3407,2.3073,2.3073,2.2311,2.1871,2.1871,2.1376,2.1109,2.1109,2.1029,2.0882,2.0668,2.0294,2.075,2.1991,2.2317,2.3503,2.5279,2.6244,2.6133,2.5215,2.4785,2.4355,2.3926,2.3496,2.3198,2.3101,2.3101,2.3101,2.3101,2.6499,2.6499,2.6499,2.6499,2.6499,2.6499,2.6499,2.6499,2.6901,2.7971,2.8097,2.8524,2.9679,2.9804,2.9804,2.9804,2.9804,2.9804,2.9804,3.0783,3.1135,3.0633,3.1612,3.2441,3.3061,3.3061,3.3545,3.4625,3.4605,3.4675,3.4675,3.4655,3.468,3.47,3.468,3.4655,3.4675,3.4675,3.463,3.4605,3.4605,3.4324,3.3771,3.3244,3.2692,3.1947,3.0272,2.9326,2.8805,2.7955,2.6627,2.5451,2.5954,2.5614,2.493,2.4043,2.3516,2.3335,2.4219,2.5031,2.6035,2.7305,2.8628,2.9685,3.0039,3.0488,3.0957,3.1387,3.1836,3.2559,3.3809,3.4394,3.4365,3.344,3.3152,3.2455,3.0593,2.8388,2.6911,2.6911,2.5058,2.3794,0.0,2.3768,2.3661,2.338,2.2792,2.2445,2.2445,2.1884,2.1628,2.1628,2.1269,2.1109,2.1109,2.0828,2.0681,2.0668,2.0094,2.06,2.2034,2.3911,2.533,2.6337,2.5908,2.5713,2.5635,2.5234,2.4785,2.4355,2.3926,2.3516,2.3101,2.3101,2.3101,2.3101,2.6499,2.5955,2.5511,2.5511,2.4957,2.4505,2.4505,2.5652,2.6901,2.7971,2.875,0.0,0.0,0.0,0.0,0.0,2.9804,2.9804,2.9804,3.0482,3.0809,3.0633,3.1637,3.2491,3.3111,3.3445,3.3972,3.468,3.5056,3.5454,3.5805,3.5805,3.6207,3.686,3.6132,3.5805,3.578,3.5429,3.5006,3.47,3.4324,3.4073,3.3746,3.2441,3.1838,3.1496,0.0,2.9383,2.8804,2.8163,2.7133,2.6039,2.5422,2.507,2.4713,2.3659,2.3457,2.375,2.4609,2.5488,2.6543,2.8105,2.9043,2.9822,3.0488,3.0781,3.0937,3.1074,3.1211,3.1543,3.2246,3.2949,3.352,3.3764,3.3194,3.248,3.186,3.0057,2.8547,2.7777,2.6379,0.0,0.0,0.0,0.0,2.3046,2.2832,2.2619,2.2432,2.2044,2.1844,2.1844,2.1363,2.1109,2.1109,2.0815,2.0575,2.0374,2.1788,2.3087,2.434,2.6,2.6622,2.6387,2.623,2.5996,2.5635,2.4941,2.4551,2.4355,2.3588,2.3218,2.3101,2.3101,2.3101,2.3101,0.0,2.4921,2.4456,2.4456,2.424,0.0,0.0,0.0,0.0,0.0,0.0,0.0,0.0,0.0,0.0,0.0,0.0,2.9402,2.9202,2.9704,3.0105,3.0306,3.116,3.1989,3.2742,3.3119,3.3571,3.4148,3.47,3.5228,3.578,3.5981,3.6558,3.7387,3.6732,3.6405,3.638,3.578,3.5182,3.4675,3.4123,3.3646,3.3169,3.1863,3.1286,0.0,3.0105,2.9549,2.9189,2.8849,2.7988,2.6871,2.5755,2.483,2.4079,2.354,2.3574,2.4043,2.5215,2.6074,2.6992,2.8535,2.9355,2.9941,3.0508,3.0762,3.084,3.0684,3.0644,3.0781,3.1211,3.1875,3.2617,3.3476,3.3187,3.2866,3.3014,3.1343,2.9868,2.9289,2.7919,2.6571,0.0,0.0,0.0,2.278,2.2605,2.2418,2.2124,2.183,2.167,2.167,2.1309,2.1109,2.1109,2.0922,2.0875,2.1046,2.3303,2.4642,2.5234,2.6626,2.6816,2.6152,2.6152,2.5996,2.5635,2.4941,2.4551,2.4355,2.3652,2.3237,2.3101,2.3101,2.3101,2.3101,0.0,0.0,2.3415,0.0,0.0,0.0,0.0,0.0,0.0,0.0,0.0,0.0,0.0,0.0,0.0,0.0,0.0,0.0,2.8099,2.8562,2.9151,2.9729,3.0281,3.1085,3.2139,3.219,3.2491,3.3111,3.3596,3.4148,3.47,3.5132,3.573,3.6329,3.6254,3.6254,3.6254,3.5655,3.5082,3.46,3.4048,3.3169,3.2139,3.1562,3.1035,3.0532,2.998,2.9804,2.9804,2.9804,2.9028,2.7804,2.6794,0.0,0.0,2.3691,2.3828,2.4219,2.5898,2.668,2.7324,2.8574,2.9512,3.0137,3.0156,3.0508,3.0703,3.0234,3.0117,3.0234,0.0,0.0,3.1699,3.2559,3.3105,3.3574,3.4004,3.2263,3.1099,0.0,0.0,0.0,0.0,0.0,0.0,2.2794,0.0,2.1857,2.1628,2.1283,2.1136,2.1136,2.1122,2.1109,2.1109,2.1145,2.1616,2.2587,2.4527,2.5252,2.4959,2.5977,2.6172,2.5693,2.5693,2.5693,2.5654,2.5234,2.4785,2.4375,2.3926,2.3496,2.3101,2.3101,2.3101,2.3101,0.0,0.0,0.0,0.0,0.0,0.0,0.0,0.0,0.0,0.0,0.0,0.0,0.0,0.0,0.0,0.0,0.0,0.0,2.7517,2.8015,2.8574,2.9126,2.9704,3.0507,3.1587,3.2014,3.2491,3.3111,3.3262,3.3571,3.4098,3.3822,3.4223,3.5102,3.4274,3.4148,3.45,3.3947,3.3621,3.3445,3.2867,3.2466,3.2114,3.116,3.0733,3.0532,2.998,2.9804,2.9804,2.9804,0.0,0.0,0.0,2.4723,2.3711,0.0,0.0,2.4922,2.5703,2.6445,2.7246,2.8223,2.8848,2.9336,2.9648,2.9824,2.9785,2.9336,2.8984,2.8711,2.8516,2.9355,0.0,3.123,3.2519,0.0,3.4004,3.3579,0.0,3.2114,0.0,2.9702,2.8616,2.752,0.0,0.0,2.35,2.1857,2.1628,2.1547,2.1443,2.1443,2.1229,2.1109,2.1109,2.1765,2.2572,2.348,2.5151,2.6074,2.6481,2.6742,2.6445,2.5693,2.5693,2.5693,2.5635,2.4902,2.4512,2.4336,2.3549,2.3198,2.3101,2.3101,2.3101,2.3101,0.0,0.0,0.0,0.0,0.0,0.0,0.0,0.0,0.0,0.0,0.0,0.0,0.0,0.0,0.0,0.0,0.0,0.0,0.0,2.7287,2.7996,2.8549,2.8875,2.9553,3.0658,3.0984,3.1185,3.126,3.1763,3.2164,3.2466,3.2616,3.3169,3.3972,3.3345,3.3244,3.3495,3.2943,3.2566,0.0,0.0,3.1361,3.1085,3.0482,3.0256,3.0206,2.9905,2.9617,2.93,0.0,0.0,2.6282,2.6051,2.5229,2.4434,2.4863,0.0,2.5215,2.5859,2.6367,2.6953,2.7812,2.834,2.8711,2.8945,2.916,2.9121,2.8496,2.8027,2.7656,2.7422,2.8281,2.9238,0.0,0.0,0.0,3.3184,3.3398,3.3242,0.0,3.2003,0.0,2.9653,2.8699,2.7815,0.0,2.4385,2.2742,2.2497,2.1797,2.1363,2.1363,2.1203,2.1357,2.1894,2.2962,2.3995,2.5022,2.6245,2.6883,2.7012,2.6816,2.6367,2.5693,0.0,2.5693,2.5615,2.4738,2.4414,2.4336,2.3432,2.3101,2.3101,2.3101,2.3101,2.3101,0.0,0.0,0.0,0.0,0.0,0.0,0.0,0.0,0.0,0.0,2.3992,2.483,2.5922,2.6003,0.0,0.0,0.0,0.0,0.0,0.0,2.7512,2.7767,2.805,2.8625,2.956,2.9702,2.9451,2.8799,2.9952,3.0323,3.0109,3.1313,3.2081,3.2446,3.2599,3.2641,3.2659,3.2114,3.1612,3.1135,3.0683,3.0231,2.9804,0.0,2.9829,2.9905,2.9905,2.9444,2.8716,0.0,2.706,2.6247,2.6584,2.602,2.5312,2.5703,2.5547,2.5391,2.6113,2.6387,2.6641,2.7454,2.793,2.8281,2.8223,2.8496,2.8516,2.7728,2.7187,2.6914,2.6855,2.7539,2.8301,2.8828,0.0,3.1543,3.209,3.248,3.2695,3.2637,3.2676,3.1965,2.9934,2.9587,2.876,2.7193,2.5547,2.4422,2.3946,2.2514,2.1776,2.1776,2.1685,2.2128,2.3142,2.4322,2.5469,2.6457,2.7321,2.75,2.7012,2.6641,2.6211,2.5693,2.5693,2.5654,2.5538,2.4766,2.4375,2.4258,2.3413,2.3101,2.3101,2.3101,2.3101,2.3101,0.0,0.0,0.0,0.0,0.0,0.0,0.0,0.0,0.0,2.2619,2.25,2.2723,0.0,0.0,0.0,0.0,0.0,0.0,0.0,0.0,0.0,2.608,2.778,2.8658,2.8426,2.9326,2.9277,2.8242,2.9376,2.9016,2.7277,2.9291,2.9797,2.902,2.9975,3.0357,3.0357,3.0256,3.0156,3.0055,2.998,2.988,2.9804,2.9804,0.0,0.0,3.0482,2.9803,2.8805,2.8406,2.7558,2.6584,2.6463,2.63,2.6172,2.625,2.6211,2.6113,2.5898,2.6367,2.6934,2.709,2.7715,2.8203,2.7851,2.7885,0.0,0.0,2.6543,2.6387,2.6016,2.666,2.7598,2.873,2.9766,3.084,3.2012,3.2226,3.2148,0.0,3.2051,3.1988,3.1221,3.1125,0.0,0.0,2.8775,2.7021,2.568,2.5314,2.513,2.513,2.4782,2.4583,2.4541,2.5623,2.616,2.6208,2.7527,2.7773,2.7012,2.6934,2.6484,2.5693,2.5693,0.0,2.5137,2.4629,2.4219,2.3848,2.3296,2.3101,2.3101,2.3101,2.3101,2.3101,0.0,0.0,0.0,0.0,0.0,0.0,2.1132,2.1602,2.2031,2.2461,2.2344,2.2441,2.3023,2.2906,2.3126,0.0,0.0,0.0,0.0,0.0,0.0,2.5619,2.6635,2.7207,2.7279,2.7787,2.7949,2.768,0.0,2.7989,2.7767,2.8567,2.8949,2.9028,2.9585,2.9804,2.9804,2.9804,2.9804,2.9804,2.9804,2.9804,2.9829,0.0,0.0,0.0,0.0,0.0,0.0,2.9633,2.8538,2.7034,2.6774,2.6719,2.668,2.6445,2.623,2.5996,2.5752,2.6211,2.6738,2.6953,2.75,2.7851,2.7422,0.0,0.0,0.0,2.6055,2.5996,2.5732,2.6395,2.7207,2.7832,2.9023,3.0176,3.1016,3.1543,3.1758,3.1543,3.1699,3.166,3.123,3.1191,3.1191,3.1191,3.0252,2.8979,2.7314,2.647,2.5885,2.5644,2.5403,2.547,2.5737,2.6243,2.6737,2.7222,2.796,2.7851,2.7012,2.7012,2.6493,2.5693,2.5693,2.5557,2.5371,2.4687,2.4297,2.4043,2.3354,2.3101,2.3101,2.3101,2.3101,2.3101,0.0,0.0,0.0,0.0,0.0,0.0,2.1309,2.1738,2.2168,2.2598,2.2656,2.273,2.3062,2.3023,2.3071,0.0,0.0,0.0,0.0,0.0,0.0,0.0,0.0,0.0,0.0,0.0,0.0,2.6757,2.6608,0.0,0.0,0.0,0.0,0.0,2.9702,2.9804,2.9804,2.9804,2.9804,0.0,0.0,2.9854,0.0,0.0,0.0,0.0,0.0,0.0,0.0,0.0,2.967,2.7934,2.7586,2.724,2.6934,2.6523,2.6211,2.5966,2.5966,2.6328,2.6738,2.707,2.748,2.7656,2.7129,2.7012,0.0,2.5869,2.5693,2.5693,2.5693,2.6239,2.6836,2.7109,2.8281,2.9414,3.0098,3.0801,3.1269,3.1367,3.1387,0.0,3.0918,3.0898,0.0,3.0898,3.0801,3.0179,2.8832,2.761,2.6721,2.6209,2.6124,2.6394,2.7012,2.692,2.7342,2.8301,2.8203,2.7754,2.7012,2.6914,2.6465,2.5693,2.5693,2.5635,2.5527,2.4746,2.4355,2.4199,2.3393,2.3101,2.3101,2.3101,2.3101,2.3101,0.0,0.0,0.0,0.0,0.0,0.0,2.1758,2.2187,2.2598,2.2984,2.3042,2.3042,2.3081,2.275,2.3123,0.0,0.0,0.0,0.0,0.0,0.0,0.0,0.0,0.0,0.0,0.0,0.0,2.502,2.6025,0.0,0.0,0.0,0.0,0.0,0.0,2.9804,2.9804,2.9804,0.0,0.0,0.0,0.0,0.0,0.0,0.0,0.0,0.0,0.0,0.0,0.0,0.0,2.9836,2.9214,2.8077,2.6934,2.6523,0.0,0.0,2.6894,2.7226,2.7611,2.765,2.793,2.8027,2.7207,0.0,2.6777,2.5869,2.5693,2.5693,2.5693,2.5752,2.623,2.7422,2.7787,2.8452,2.998,3.0273,3.0469,3.0898,0.0,0.0,3.0898,3.0898,3.0898,3.0898,3.0508,3.0197,3.0025,2.9891,2.9641,2.9236,2.8776,2.86,2.8687,2.8319,2.816,2.8281,2.791,2.748,2.7012,2.6621,2.6191,2.5693,2.5693,2.5508,0.0,2.4609,2.4199,2.3789,2.3276,2.3101,2.3101,2.3101,2.3101,2.3101,0.0,0.0,0.0,0.0,0.0,0.0,2.1816,2.2246,2.2656,2.3042,2.3101,2.3101,2.3101,2.2945,2.3122,2.3737,2.38,0.0,0.0,0.0,0.0,0.0,0.0,0.0,0.0,0.0,2.4698,2.5185,2.5359,0.0,0.0,0.0,0.0,0.0,0.0,2.8767,2.8767,2.8767,0.0,0.0,0.0,0.0,0.0,0.0,0.0,0.0,0.0,0.0,3.2206,3.2241,0.0,0.0,2.9596,2.8589,0.0,0.0,2.6415,2.6309,2.6562,2.7148,2.7728,2.7728,2.7845,2.7695,2.6836,2.6641,2.6309,2.5176,2.5323,2.5615,2.5391,2.5547,2.5849,2.6426,2.6719,2.7226,2.8144,2.873,2.9316,3.0019,3.0098,0.0,0.0,0.0,3.0469,3.0469,3.0059,2.9707,2.9434,2.9687,2.9629,2.9199,2.9004,2.8789,2.8535,2.8379,2.8301,2.8281,2.7871,2.7441,2.6992,2.6582,2.6152,2.5693,2.5693,2.5488,0.0,2.459,2.418,2.375,2.3257,2.3101,2.3101,2.3101,2.3101,2.3101,0.0,0.0,0.0,0.0,0.0,2.1523,2.1836,2.2344,2.2769,2.3062,2.3101,2.3101,2.3101,2.3101,2.3101,2.3101,2.3101,0.0,0.0,0.0,0.0,0.0,0.0,0.0,0.0,0.0,2.3692,2.4951,2.4666,2.5486,0.0,0.0,2.7264,2.7222,0.0,0.0,0.0,0.0,0.0,0.0,0.0,0.0,0.0,0.0,0.0,0.0,0.0,0.0,0.0,0.0,0.0,0.0,0.0,0.0,0.0,0.0,2.6472,2.6388,2.6545,2.7207,2.7851,2.7851,2.7806,2.7532,2.6738,2.6484,2.6094,2.5019,2.5245,2.5596,2.5332,2.5527,2.5732,2.5849,2.6191,2.6582,2.7129,2.7734,2.8379,2.9101,0.0,2.9355,0.0,2.9941,3.0,3.0,2.9609,2.9238,2.8945,2.9101,2.9043,2.875,2.873,2.8594,2.8301,2.8301,2.8223,2.8105,2.7676,2.7246,2.6816,2.6387,2.5957,2.5547,2.5635,2.541,0.0,2.4551,2.418,2.375,2.3257,2.3101,2.3144,2.3474,2.3584,2.3627,0.0,0.0,0.0,0.0,0.0,2.1875,2.1894,2.2598,2.3081,2.3101,2.3101,2.3101,2.3101,2.3101,2.3101,2.3101,2.3101,0.0,0.0,0.0,0.0,0.0,0.0,0.0,2.3101,2.3101,2.3359,2.3834,2.3834,2.5201,2.7873,2.6172,2.6667,2.8845,0.0,0.0,0.0,0.0,0.0,0.0,0.0,0.0,3.2265,0.0,0.0,0.0,0.0,0.0,0.0,0.0,0.0,0.0,0.0,2.9429,2.7813,2.6495,2.6993,2.7819,2.7179,2.7637,2.8281,2.8281,2.7969,2.7611,2.7109,2.668,2.6269,2.5771,2.5674,2.5693,2.5674,2.5693,2.583,2.6309,2.6387,2.668,2.7591,2.7728,2.7885,0.0,0.0,2.8476,2.8887,2.9316,2.9626,2.9626,2.918,0.0,2.8926,2.8535,2.8301,2.8301,2.8301,2.8301,2.8301,2.8301,2.8086,2.7728,2.7226,2.6797,2.6387,2.5937,2.5508,2.5145,2.5547,2.5187,0.0,2.4414,2.418,2.375,2.3257,2.3101,2.3256,2.4382,2.4787,2.4957,0.0,0.0,0.0,0.0,0.0,0.0,2.2266,2.275,2.3101,2.3101,2.3101,2.3101,2.3101,2.3101,2.3101,2.3101,2.3101,0.0,0.0,0.0,0.0,0.0,0.0,0.0,2.3101,2.3437,2.3789,2.4219,2.4972,2.5603,2.6013,2.6642,2.7042,2.7151,2.7347,2.7869,0.0,0.0,0.0,0.0,0.0,3.2441,3.2817,0.0,0.0,0.0,0.0,0.0,0.0,0.0,0.0,0.0,0.0,0.0,0.0,2.7836,2.7086,2.6553,2.5884,2.6328,2.6992,2.6992,2.6894,2.6602,2.5859,2.582,2.5886,2.5676,2.6372,2.7164,2.7714,2.7369,2.7044,2.7188,2.6503,2.6035,0.0,0.0,0.0,2.7812,2.8379,2.8769,0.0,0.0,2.8828,2.9101,2.873,2.8496,2.8496,2.8359,2.8301,2.8301,2.8301,2.8301,2.8301,2.8008,2.7845,2.7708,2.6934,2.6523,2.6367,2.5625,2.5195,2.5106,2.4902,2.4512,2.3984,2.3984,2.373,2.3296,2.314,2.3584,2.4296,2.466,2.5294,2.6005,0.0,0.0,0.0,0.0,0.0,0.0,2.248,2.2828,2.3101,2.3101,2.3101,2.3101,2.3101,2.3101,2.3159,2.3379,2.3335,0.0,0.0,0.0,0.0,0.0,0.0,0.0,2.3379,2.3652,2.416,2.4875,2.5605,2.6141,2.6516,2.7483,2.7802,2.7471,2.8136,2.8715,0.0,0.0,0.0,0.0,3.2315,3.2742,3.3086,0.0,0.0,0.0,0.0,0.0,0.0,0.0,0.0,0.0,0.0,0.0,0.0,0.0,2.7511,2.6759,2.6198,2.6432,2.6878,2.7296,2.727,2.6982,2.6455,2.6413,2.6434,2.6385,2.7054,2.7774,2.8277,2.7983,2.7696,2.7936,2.7327,2.6934,0.0,0.0,0.0,2.8197,0.0,0.0,0.0,2.8359,2.8398,2.8652,2.8301,2.8125,2.8281,2.7988,2.7891,2.8047,2.8047,2.8047,2.8047,2.7637,2.7344,2.7168,2.6641,2.6309,2.6113,2.5391,2.498,2.4805,2.4531,2.4082,0.0,2.373,2.3535,2.3144,2.3541,2.4168,2.4914,2.5734,2.6479,2.718,0.0,0.0,0.0,0.0,0.0,0.0,2.2559,2.2847,2.3101,2.3101,2.3101,2.3101,2.3101,2.3101,2.3276,2.375,2.3789,0.0,0.0,0.0,0.0,0.0,0.0,2.3379,2.3828,2.3906,2.4531,2.5693,2.5849,2.6881,2.8674,2.8523,2.8826,2.9486,3.0152,3.0286,0.0,0.0,0.0,3.2265,3.2842,3.3043,0.0,0.0,0.0,0.0,0.0,0.0,0.0,0.0,0.0,0.0,0.0,0.0,0.0,0.0,0.0,0.0,0.0,2.7627,2.7598,2.853,2.8541,2.8321,2.8299,2.7988,0.0,2.7763,2.7785,2.7873,2.8005,2.7962,2.8075,2.8679,2.8724,0.0,0.0,3.0249,0.0,0.0,2.9606,0.0,2.7969,2.8206,2.8388,2.8281,2.791,2.7832,2.8223,2.7461,2.7207,2.7669,2.765,2.765,2.7669,2.7187,2.6777,2.6387,2.6367,2.6133,2.5674,2.5234,2.4805,0.0,2.4355,2.3822,2.312,2.3574,2.354,2.3343,2.4382,2.4914,2.5273,2.7337,2.8124,2.8386,0.0,0.0,0.0,0.0,0.0,0.0,0.0,0.0,0.0,0.0,2.3101,2.3101,2.3101,2.3101,2.3276,0.0,0.0,0.0,0.0,0.0,0.0,0.0,2.3809,2.3828,2.4258,2.4894,2.5382,2.5693,2.7386,2.7962,2.745,2.8413,2.9203,2.984,2.9624,3.0074,0.0,0.0,3.2215,3.2265,3.2842,3.2817,0.0,0.0,0.0,0.0,3.0984,3.106,0.0,0.0,0.0,0.0,0.0,0.0,0.0,0.0,2.8767,2.8275,2.9083,0.0,2.702,2.6405,2.7063,2.7766,0.0,2.7565,2.7892,2.8482,2.8907,2.956,3.0925,3.0377,2.9936,3.0496,0.0,2.9441,3.0092,0.0,0.0,3.0921,3.1362,3.1012,2.927,2.9539,2.9408,2.8408,2.791,2.7767,2.7865,2.7305,2.707,2.7168,2.6855,2.6836,2.7168,2.6758,2.6484,2.6387,2.6055,2.5791,2.5654,2.4922,2.4512,2.4375,2.3686,2.3276,2.3101,2.3198,2.3727,2.4425,2.4702,2.5817,2.74,2.7924,2.8648,2.9443,0.0,0.0,0.0,0.0,0.0,0.0,0.0,0.0,0.0,0.0,2.3101,2.3101,2.3101,2.3101,2.3354,0.0,0.0,0.0,0.0,0.0,0.0,2.4414,2.4199,2.4277,2.4707,2.5744,2.6284,2.6328,2.802,2.8773,2.8542,2.9642,3.0215,3.0401,3.0216,3.0914,3.219,3.2491,3.2616,3.2641,3.2943,0.0,0.0,0.0,0.0,0.0,3.0432,3.0407,0.0,2.998,2.998,3.0181,0.0,0.0,0.0,0.0,2.9365,2.8885,2.8988,2.8322,2.7617,2.7744,2.8254,2.8692,2.8687,2.8669,2.8786,0.0,0.0,0.0,3.0913,3.0754,0.0,0.0,3.0941,0.0,0.0,0.0,3.2912,3.2471,3.2676,3.2072,0.0,3.0675,3.0326,2.8166,2.8201,2.8013,2.7415,2.6777,2.6523,2.6719,2.6309,2.6289,2.6719,2.6309,2.6094,2.6094,2.581,2.5693,2.5654,2.4824,2.4414,2.4375,2.3471,2.3101,2.3144,2.3671,2.4253,2.4914,2.59,2.7052,2.8164,2.8688,2.9287,2.9804,0.0,0.0,0.0,0.0,0.0,0.0,0.0,0.0,0.0,0.0,0.0,0.0,0.0,0.0,0.0,0.0,0.0,0.0,0.0,0.0,2.5389,2.4908,2.4809,2.4987,2.5488,2.6563,2.7153,2.7247,2.8628,2.9619,3.0307,3.1406,3.1656,3.1188,3.1498,3.2181,3.3111,3.3111,3.3111,3.3111,3.3111,0.0,0.0,0.0,0.0,0.0,0.0,0.0,0.0,2.9804,2.9804,2.9804,2.9804,0.0,0.0,0.0,0.0,0.0,2.8648,2.8395,2.8762,2.992,3.0013,2.9905,3.0382,0.0,0.0,0.0,0.0,0.0,0.0,3.0407,0.0,0.0,0.0,0.0,3.3997,3.4625,3.4665,3.3886,3.3887,0.0,3.0874,3.1772,3.1265,2.8387,2.8631,2.8363,2.7249,2.6271,2.5849,2.6269,2.5937,2.5879,2.6191,2.5879,2.5693,2.5693,2.5615,2.5596,2.5605,2.4727,2.4316,2.4277,0.0,0.0,2.3188,2.4339,2.4914,2.5252,2.7296,2.8227,2.8466,2.9443,2.9804,2.9804,0.0,0.0,0.0,0.0,0.0,0.0,0.0,0.0,0.0,0.0,0.0,0.0,0.0,0.0,0.0,0.0,0.0,0.0,0.0,2.7702,2.766,2.7108,2.6713,2.6734,2.7191,2.7708,2.814,2.8495,3.0367,3.0946,3.0359,3.2837,3.3383,3.2418,3.315,3.3321,3.3111,3.3111,3.3111,3.3111,3.3111,0.0,0.0,0.0,0.0,0.0,0.0,0.0,0.0,2.9804,2.9804,2.9804,2.9804,0.0,0.0,0.0,0.0,0.0,2.9585,2.987,2.992,2.8762,2.914,2.9804,2.9905,0.0,0.0,0.0,0.0,0.0,0.0,3.121,3.1612,0.0,0.0,3.453,0.0,0.0,3.5909,3.5254,0.0,3.501,3.2581,3.2934,3.245,3.04,2.9046,2.823,2.8035,2.6563,2.5713,2.5791,2.5732,2.5586,2.5321,2.5586,2.5693,2.5693,2.5352,2.5176,2.5137,2.4277,2.3887,2.3848,0.0,2.3101,2.3188,2.4339,2.5378,2.6337,2.7602,2.8688,2.9585,2.974,2.9804,2.9804,0.0,0.0,0.0,0.0,0.0,0.0,0.0,0.0,0.0,0.0,0.0,0.0,0.0,0.0,0.0,0.0,0.0,0.0,0.0,2.8714,2.8852,2.7647,2.8956,2.9048,2.7626,2.8688,2.9476,2.9954,3.1757,3.2787,3.2966,3.3965,3.403,3.3371,3.3081,3.3,3.3136,3.3395,3.3345,3.3136,0.0,0.0,0.0,0.0,0.0,0.0,0.0,0.0,0.0,0.0,2.9804,2.9804,2.9804,0.0,0.0,0.0,0.0,0.0,2.9804,2.998,3.0038,2.9588,2.9851,3.0231,3.0231,3.0005,0.0,0.0,0.0,0.0,0.0,0.0,3.2315,3.3721,0.0,3.4781,3.5031,3.5328,3.5504,0.0,0.0,3.5167,3.3315,3.4026,3.3386,3.0516,3.0317,2.9601,2.7962,2.6907,2.6067,2.5371,2.5156,2.4922,2.4727,2.4922,2.5137,2.5371,2.5176,2.5106,2.5086,2.418,2.3789,2.3769,0.0,2.3101,2.3232,2.4999,2.6005,2.6689,2.8371,2.9326,2.9804,2.9804,2.9804,2.9804,0.0,0.0,0.0,0.0,0.0,0.0,0.0,0.0,0.0,0.0,0.0,0.0,0.0,0.0,0.0,0.0,0.0,0.0,0.0,2.9864,3.0139,2.8516,3.0651,3.0836,2.869,2.9956,3.0921,3.1488,3.3004,3.4485,3.5862,3.5235,3.4789,3.443,3.3353,3.3101,3.3495,3.3922,3.3847,3.3495,0.0,0.0,0.0,0.0,0.0,0.0,0.0,0.0,0.0,0.0,0.0,0.0,0.0,0.0,0.0,2.9804,2.9804,2.9804,2.9804,2.988,3.0055,3.0357,3.0432,3.0482,3.0733,3.0457,0.0,0.0,0.0,0.0,0.0,3.1964,0.0,3.4474,3.4826,3.4951,3.5102,3.5102,3.5253,3.5633,3.5583,3.5062,3.3883,3.4604,3.3882,3.0951,3.1454,3.088,2.8563,2.7462,2.647,2.5578,2.4788,2.4375,2.4277,2.4355,2.459,2.4922,2.4824,2.4812,2.4793,2.3984,2.3633,2.3613,2.3237,2.3256,2.3627,2.5694,2.6648,2.7098,2.9052,2.9804,2.9804,2.9804,2.9804,2.9804,0.0,0.0,0.0,0.0,0.0,0.0,0.0,0.0,0.0,0.0,0.0,0.0,0.0,0.0,0.0,0.0,0.0,0.0,3.005,3.1776,3.2201,3.0979,3.1019,3.1317,3.1756,3.1916,3.2414,3.3315,3.4077,3.5575,3.7766,3.6764,3.6235,3.6204,3.5562,3.5036,3.46,3.465,3.465,3.453,3.4098,0.0,0.0,0.0,0.0,0.0,0.0,0.0,0.0,0.0,0.0,0.0,0.0,0.0,2.9804,2.9804,2.9804,2.9804,2.9804,3.0156,3.0432,2.998,2.9854,3.0105,3.111,3.1311,0.0,3.1336,0.0,0.0,0.0,3.229,3.3395,3.4525,3.5107,3.5655,3.6229,0.0,3.6304,3.6355,3.5855,3.5261,3.469,3.4279,3.3683,3.2953,3.1869,3.1181,3.0956,2.8358,2.684,2.6748,2.5231,2.4238,2.3848,2.4219,2.4434,2.4453,2.4062,2.3887,2.3867,2.3398,2.314,2.314,2.3101,2.3714,2.4787,2.6005,2.7075,2.8108,2.9326,2.9804,2.9804,2.9804,2.9804,2.9804,0.0,0.0,0.0,0.0,0.0,0.0,0.0,0.0,0.0,0.0,0.0,2.5073,2.6288,0.0,0.0,0.0,0.0,0.0,3.0395,3.2366,3.2845,3.1247,3.2253,3.2929,3.3207,3.2064,3.2677,3.5276,3.6579,3.7345,3.7487,3.7412,3.6835,3.5855,3.5583,3.5182,3.4705,3.5031,3.4981,3.4655,3.45,3.3872,0.0,0.0,0.0,0.0,0.0,0.0,0.0,0.0,2.9804,2.9804,2.9804,2.9804,2.9804,2.9804,2.9804,2.9804,2.9804,2.9955,3.0131,3.0256,3.0055,0.0,0.0,3.0909,3.111,3.1763,3.1788,0.0,0.0,0.0,3.3847,3.46,3.5132,3.5683,3.6329,3.6081,3.5855,3.5855,3.5332,3.4781,3.4248,3.4022,3.3671,3.3162,3.2655,3.1918,3.0747,2.9445,2.7855,2.6025,2.508,2.4267,2.3379,2.3491,2.3569,2.3569,2.373,2.3789,2.3769,2.3296,2.3101,2.3101,2.3101,2.3757,2.4872,2.6005,2.7116,2.8227,2.9365,2.9804,2.9804,2.9804,2.9804,2.9804,0.0,0.0,0.0,0.0,0.0,0.0,0.0,0.0,2.4831,0.0,0.0,0.0,0.0,2.8029,0.0,0.0,0.0,0.0,3.0495,3.2463,3.3021,3.1579,3.2656,3.3518,3.3897,3.2392,3.3173,3.6383,3.7889,3.8291,3.7713,3.7739,3.7136,3.6009,3.5658,3.5282,3.4956,3.5157,3.5031,3.47,3.4525,3.3997,0.0,0.0,0.0,0.0,0.0,0.0,0.0,0.0,2.9804,2.9804,2.9804,2.9804,2.9804,2.9804,2.9804,2.9804,2.9804,2.9804,2.988,0.0,0.0,0.0,3.0482,3.0884,3.1336,3.2064,3.1913,0.0,3.239,0.0,0.0,0.0,3.4881,3.5382,3.578,3.5529,3.5232,3.5232,3.4756,3.4299,3.3947,3.3746,3.342,3.2842,3.2792,3.2201,3.0804,2.9978,2.8453,2.6066,2.521,2.4253,2.3101,2.3101,2.3101,2.3101,2.3437,2.3574,2.3574,2.3237,2.3101,2.3101,2.3101,2.3973,2.542,2.6193,2.7342,2.8727,2.9507,2.9804,2.9804,2.9804,2.9804,2.9804,0.0,0.0,0.0,0.0,0.0,0.0,0.0,0.0,2.6686,2.7743,2.7873,0.0,0.0,0.0,0.0,0.0,0.0,0.0,3.0528,3.2139,3.2817,3.224,3.2151,3.2665,3.3853,3.3268,3.4046,3.6405,3.7462,3.8291,3.8869,3.7713,3.7186,3.7111,3.5984,3.5508,3.5458,3.4906,3.468,3.4675,3.4123,3.3897,3.3771,0.0,0.0,0.0,0.0,0.0,0.0,0.0,2.9804,2.9804,2.9804,2.9804,2.9804,2.9804,2.9804,2.9804,2.9804,2.9804,2.9779,0.0,0.0,0.0,3.0482,3.1436,3.2215,3.2215,3.2215,3.239,3.2968,3.3111,0.0,3.3796,3.4349,3.468,3.468,3.4726,3.468,3.468,3.4223,3.3897,3.3897,3.3395,3.2842,3.2265,3.2215,3.1964,3.1411,2.9837,2.8415,2.7327,2.57,2.4296,2.3144,2.3144,2.3101,2.3101,2.3101,2.3101,2.3101,2.3101,2.3144,2.3144,2.3144,2.4382,2.6524,2.6524,2.781,2.9804,2.9804,2.9804,2.9804,2.9804,2.9804,2.9804,0.0,0.0,0.0,0.0,0.0,0.0,0.0,0.0,2.6973,2.7296,2.7563,0.0,0.0,0.0,0.0,0.0,0.0,0.0,3.0593,3.1411,3.1989,3.2215,3.2177,3.2549,3.3319,3.4239,3.5456,3.6935,3.7663,3.7889,3.7663,3.7337,3.6759,3.5984,3.5633,3.5282,3.4906,3.4801,3.468,3.4675,3.4123,3.3897,3.3771,0.0,0.0,0.0,0.0,0.0,0.0,0.0,0.0,0.0,2.9804,2.9804,2.9804,2.9804,2.9804,2.9804,2.9804,2.9503,0.0,2.9679,0.0,0.0,0.0,3.0583,0.0,0.0,3.2541,3.2742,3.2516,0.0,0.0,3.3294,3.3796,3.4274,3.4675,3.4399,3.4148,3.4148,3.3646,3.3319,3.3319,3.2792,3.239,3.2215,3.1863,3.1411,3.0884,3.0378,2.9399,2.7917,2.7389,2.6191,2.4296,2.4296,2.3887,2.3101,2.3101,2.3101,2.3144,2.393,2.4296,2.4296,2.4296,2.5566,2.7683,2.849,2.9209,2.9804,2.9804,2.9804,2.9804,2.9804,2.9804,2.9804,0.0,0.0,0.0,0.0,0.0,0.0,2.7373,2.7809,2.8188,2.8462,2.8696,2.9324,0.0,0.0,0.0,3.1646,3.1336,0.0,3.0633,3.0909,3.1311,3.1863,3.2089,3.2692,3.3696,3.4881,3.5834,3.6533,3.7312,3.7387,3.6908,3.6908,3.6383,3.5508,3.5508,3.5082,3.4374,3.4148,3.3947,3.3696,3.337,3.337,3.347,0.0,0.0,0.0,0.0,0.0,0.0,0.0,0.0,0.0,2.9804,2.9804,2.9804,2.9804,2.9804,2.9804,2.9804,2.9528,0.0,2.9704,2.9528,2.9352,2.9704,0.0,0.0,0.0,0.0,3.2365,3.224,3.2491,0.0,3.3043,3.3345,3.3696,3.4022,3.3796,3.3495,3.3269,3.2943,3.2641,3.2441,3.2089,3.1788,3.1587,3.126,3.0859,3.0306,3.0281,2.9609,2.8148,2.8084,2.7279,2.5504,2.5041,2.4467,2.3757,2.3299,2.3101,2.3144,2.4296,2.4787,2.483,2.5734,2.6849,2.8164,2.9326,2.9804,2.9804,2.9804,2.9804,2.9804,2.9804,2.9804,2.9804,0.0,0.0,2.5126,2.5126,0.0,0.0,2.8797,2.935,2.9825,3.0423,3.0532,3.0733,0.0,0.0,0.0,3.1989,3.1185,3.0583,0.0,3.0532,3.0809,3.1361,3.2014,3.3119,3.4731,3.5182,3.5458,3.5508,3.6558,3.6759,3.6254,3.6304,3.5981,3.5433,3.5433,3.4806,3.3796,3.3244,3.2667,3.2139,3.219,3.2541,3.2943,3.2416,0.0,0.0,0.0,0.0,0.0,0.0,0.0,0.0,2.9804,2.9804,2.9804,2.9804,2.9804,2.9804,2.9804,2.9754,0.0,2.9779,2.9804,0.0,2.9804,3.0181,3.0683,3.121,0.0,3.1537,3.2039,3.2139,3.2315,3.2842,3.3011,3.2993,3.2943,3.3011,3.2792,3.2215,3.2139,3.1938,3.1436,3.1361,3.111,3.0658,3.0557,3.0306,2.9829,2.9804,2.9326,2.8307,2.8267,2.7723,2.6648,2.563,2.4999,2.4787,2.3757,2.3256,2.3299,2.4425,2.4999,2.521,2.736,2.8227,2.8164,2.9326,2.9804,2.9804,2.9804,2.9804,2.9804,2.9804,2.9804,2.9804,0.0,0.0,2.7377,2.7377,0.0,0.0,2.9578,2.9677,2.9806,2.9941,2.998,3.0181,3.0708,3.0683,0.0,3.0934,3.0758,3.0432,3.0005,2.998,3.0407,3.1361,3.2767,3.4123,3.5282,3.5006,3.5056,3.5508,3.5734,3.5583,3.5077,3.5529,3.5382,3.4856,3.4856,3.4299,3.3219,3.2641,3.2089,3.1612,3.2039,3.229,3.239,3.2265,3.2139,0.0,0.0,0.0,0.0,0.0,0.0,0.0,2.9804,2.9804,2.9804,2.9804,2.9804,2.9804,2.9804,2.9453,0.0,0.0,2.9804,2.9804,2.9804,2.988,3.0131,3.0658,3.111,3.1436,3.1537,3.1562,3.1612,3.1738,3.2114,3.224,3.1813,3.2114,3.219,3.1637,3.1562,3.1512,3.1411,3.1009,3.0733,3.0633,3.0206,2.9905,2.9804,2.9804,2.9702,2.9443,2.9443,2.891,2.7763,2.7522,2.6521,2.4787,2.4532,2.4425,2.4447,2.5588,2.6584,2.7481,2.8846,2.8949,2.8164,2.9326,2.9804,2.9804,2.9804,2.9804,2.9804,2.9804,2.9804,2.9804,0.0,0.0,0.0,0.0,0.0,0.0,0.0,0.0,2.9804,2.9804,2.9804,3.0005,3.0557,3.0608,0.0,0.0,3.0758,3.0482,3.0206,2.993,3.0281,3.1336,3.2993,3.4173,3.4705,3.4726,3.4726,3.4705,3.4705,3.4705,3.4726,3.4981,3.4956,3.4726,3.4956,3.4154,3.2667,3.2641,3.2139,3.1411,3.1712,3.2139,3.2566,3.2014,3.1813,3.1712,3.0909,0.0,0.0,0.0,0.0,0.0,0.0,0.0,2.9804,2.9804,2.9804,2.9804,2.9804,0.0,0.0,2.9704,0.0,2.9804,2.9804,2.9804,2.988,3.0156,3.0432,3.0708,3.0959,3.1009,3.111,3.1361,3.1637,3.1712,3.1436,3.1637,3.1612,3.1085,3.1009,3.0909,3.0658,3.0382,3.0231,3.0231,2.9955,2.9804,2.9804,2.9804,2.9804,2.9804,2.9804,2.9482,2.8949,2.8386,2.7498,2.6356,2.588,2.588,2.6397,2.6994,2.7867,2.8949,2.9546,2.9443,2.8988,2.9585,2.9804,2.9804,2.9804,2.9804,2.9804,2.9804,2.9804,2.9804,0.0,0.0,0.0,0.0,0.0,0.0,0.0,0.0,0.0,2.9804,2.9804,2.9955,3.0432,3.0482,3.0658,0.0,0.0,0.0,3.0482,3.0131,3.0407,3.1486,3.2968,3.3847,3.4048,3.4399,3.4349,3.3897,3.3796,3.4148,3.4806,3.4675,3.4625,3.4751,3.5056,3.4079,3.224,3.2616,3.2139,3.111,3.121,3.1813,3.2541,3.1612,3.126,3.1185,3.0658,3.0181,2.9804,2.9804,0.0,0.0,0.0,0.0,2.9804,2.9804,2.9804,2.9804,2.9804,0.0,2.9804,2.9804,2.9804,0.0,2.9804,2.9804,2.9804,2.9804,2.9804,2.993,3.0382,3.0482,3.0608,3.1035,3.1185,3.121,3.1135,3.1185,3.106,3.0532,3.0482,3.0306,2.9829,2.9804,2.9804,2.9804,2.9804,2.9804,2.9804,2.9804,2.9804,2.9804,2.9804,2.9804,2.9804,2.8846,2.8307,2.8084,2.7197,2.7238,2.8084,2.8307,2.891,2.9804,2.9804,2.9729,2.9654,2.9754,2.9729,2.9654,2.9754,2.9804,2.9804,2.9804,2.9804,2.9804,0.0,0.0,0.0,0.0,0.0,0.0,0.0,0.0,0.0,0.0,2.9804,2.9829,2.9905,2.9905,2.993,3.0005,2.9955,2.9905,2.9905,0.0,0.0,3.2064,3.2792,3.3646,3.46,3.4223,3.3972,3.3897,3.342,3.3947,3.5357,3.4449,3.4248,3.4655,3.4299,3.342,3.219,3.1788,3.0984,3.0055,3.0532,3.0809,3.0934,3.0783,3.0708,3.0658,3.0105,2.9854,2.9804,2.9804,2.9804,0.0,0.0,0.0,2.9804,2.9804,2.9804,2.9804,0.0,0.0,2.9804,0.0,2.9804,2.9804,0.0,0.0,2.9804,0.0,2.9804,2.9804,2.988,2.9905,2.993,3.0005,3.0407,3.0557,3.008,3.0407,3.0507,2.9955,2.9905,2.988,2.9804,2.9804,2.9804,2.9804,2.9804,2.9804,2.9804,2.9804,2.9804,2.9804,2.9804,2.9804,2.9804,2.9663,2.9067,2.8084,2.7964,2.7964,2.8124,2.9106,2.9663,2.9804,2.9804,2.9503,2.9038,2.9578,2.9503,2.9063,2.9603,2.9804,2.9804,2.9804,2.9804,2.9804,0.0,0.0,0.0,0.0,0.0,0.0,0.0,0.0,0.0,0.0,0.0,2.9804,2.9804,2.9804,2.9804,2.9804,2.9804,2.9804,2.9804,3.0306,3.0834,3.1286,3.2139,3.2667,3.2842,3.2918,3.2817,3.2491,3.224,3.2993,3.46,3.3796,3.4223,3.5604,3.4751,3.3746,3.2667,3.2089,3.1411,3.0763,3.1214,3.1538,3.177,3.1164,3.1113,3.1267,3.0174,2.9804,2.9804,2.9804,2.9804,2.9804,2.9804,0.0,0.0,0.0,2.9804,2.9804,2.9804,2.9804,2.9804,0.0,2.9804,2.9804,2.9804,0.0,2.9804,2.9804,2.9804,2.9804,2.9804,2.9804,2.9804,2.9804,3.0005,3.008,2.9829,3.0005,3.0055,2.9829,2.9804,2.9804,2.9804,2.9804,2.9804,2.9804,2.9804,2.9804,2.9804,2.9804,2.9804,2.9804,2.9804,2.9804,2.9804,2.9804,2.9546,2.9067,2.9067,2.9067,2.9067,2.9585,2.9804,2.9804,2.9804,2.9654,2.9428,2.9679,2.9654,2.9428,2.9704,2.9804,2.9804,2.9804,2.9804,2.9804,0.0,0.0,0.0,0.0,0.0,0.0,0.0,0.0,0.0,0.0,0.0,2.9804,2.9804,0.0,0.0,0.0,2.9804,2.9804,2.9804,3.0181,3.0457,3.0608,3.1512,3.1813,3.1411,3.1938,3.1938,3.1386,3.1386,3.2315,3.4098,3.3868,3.4914,3.6955,3.5264,3.3897,3.2817,3.224,3.1928,3.1756,3.1771,3.2178,3.2661,3.1856,3.1803,3.1973,3.0649,3.0139,3.0101,2.9895,2.9804,2.9804,2.9804,2.9804,0.0,0.0,0.0,0.0,0.0,0.0,2.9804,2.9804,2.9804,2.9804,0.0,0.0,2.9804,0.0,2.9804,2.9804,2.9804,2.9804,2.9804,2.9804,2.9804,2.9804,2.9804,2.9804,2.9804,2.9804,2.9804,2.9804,2.9804,2.9804,2.9804,2.9804,2.9804,2.9804,2.9804,2.9804,2.9804,2.9804,2.9804,2.9804,2.9804,2.9654,2.9503,2.9352,2.9352,2.9352,2.9352,2.9352,2.9352,2.9377,2.9503,2.9402,2.9176,2.9302,2.9352,2.9377,2.9528,2.9654,2.9804,2.9804,2.9804,2.9804,0.0,0.0,0.0,0.0,0.0,0.0,0.0,0.0,0.0,0.0,0.0,2.9804,2.9804,2.9804,2.9804,2.9804,2.9804,2.9804,2.9804,2.9829,3.008,3.0583,3.1135,0.0,3.1386,3.1938,3.1938,3.1386,3.1386,3.2516,3.4675,3.5245,3.6639,3.8661,3.5417,3.3319,3.2215,3.1662,3.1954,3.2646,3.163,3.1773,3.2605,3.255,3.255,3.2434,3.1462,3.1156,3.1007,3.0101,2.9804,2.9804,2.9804,2.9804,2.9804,0.0,0.0,0.0,0.0,2.9804,0.0,2.9804,2.9804,0.0,0.0,0.0,0.0,2.9804,2.9804,2.9804,2.9804,2.9804,2.9804,2.9804,2.9804,2.9804,2.9804,2.9804,2.9804,2.9804,2.9804,2.9804,2.9804,2.9804,2.9804,2.9804,2.9804,2.9804,2.9804,2.9804,2.9804,2.9804,2.9804,2.9804,2.9804,2.9252,2.8662,2.8197,2.8197,2.8197,2.8197,2.8197,2.8197,2.8222,2.8712,2.8373,2.7444,2.7971,2.8197,2.8247,2.8775,2.9302,2.9804,2.9804,2.9804,2.9804,0.0,0.0,0.0,0.0,0.0,0.0,0.0,0.0,0.0,0.0,0.0,0.0,0.0,2.9804,2.9804,2.9804,2.9804,2.9804,2.9804,2.9804,2.988,3.008,3.0934,3.1235,3.0909,3.1411,3.1711,3.1798,3.1435,3.2346,3.4459,3.5116,3.5859,3.6591,3.6136,3.5957,3.5811,3.3619,3.3116,3.3778,3.3234,3.3192,3.3498,3.3498,3.3498,0.0,0.0,0.0,3.1974,3.1007,3.0696,3.0582,3.0011,2.9804,2.9804,2.9804,2.9804,0.0,0.0,0.0,0.0,2.9804,2.9804,2.9804,2.9804,2.9804,2.9804,2.9804,2.9804,2.9804,2.9804,2.9804,2.9804,2.9804,2.9804,2.9804,2.9804,2.9804,2.9804,2.9804,2.9804,2.9804,2.9804,2.9804,2.9804,2.9804,2.9804,2.9804,2.9804,2.9804,2.9628,2.9252,2.9603,2.9603,2.9252,2.8988,2.8612,2.8097,2.8097,2.8097,2.8097,2.8097,2.7921,2.7595,2.7795,2.7846,2.7821,2.8021,2.8323,2.8612,2.8813,2.9277,2.9804,2.9804,2.9804,2.9804,0.0,0.0,0.0,0.0,0.0,3.0809,3.0633,3.0306,3.0005,2.9804,0.0,0.0,0.0,0.0,2.9804,2.9804,2.9804,2.9804,2.9804,2.9804,2.9804,2.9804,3.1168,3.1672,3.1136,3.1978,3.2463,3.2541,3.1951,3.257,3.4321,3.5161,3.5741,3.6151,3.689,3.7192,3.704,3.471,3.4141,3.4789,3.4254,3.4211,3.4539,3.4743,0.0,0.0,0.0,0.0,0.0,3.1983,3.1683,3.1499,3.057,3.0024,2.9804,2.9804,2.9804,0.0,2.9804,0.0,0.0,0.0,0.0,2.9804,2.9804,0.0,2.9804,2.9804,2.9804,2.9804,2.9804,2.9804,2.9804,2.9804,2.9804,2.9804,2.9804,2.9804,2.9854,3.0055,2.9905,2.9854,3.0055,2.9905,2.9804,2.9804,2.9804,0.0,2.9804,2.9804,2.9628,2.9189,2.9227,2.9051,2.8612,2.8473,2.8097,2.7544,2.7544,2.7544,2.7544,2.7544,2.7344,2.7027,2.7027,2.7218,2.757,2.7745,2.8147,2.8637,2.8813,2.9277,2.9804,2.9804,2.9804,2.9804,0.0,0.0,3.2215,3.224,3.1763,3.121,3.0708,3.0633,3.0432,2.988,0.0,0.0,0.0,0.0,0.0,2.9804,2.9804,2.9804,2.9804,2.9818,2.9818,2.9818,3.1889,3.2788,3.2269,3.369,3.4177,3.3678,3.2996,3.3228,3.4351,3.5487,3.6583,3.7661,3.7488,3.6619,3.5283,3.4685,3.4947,3.5647,3.4496,3.4639,3.5609,0.0,0.0,0.0,3.5141,3.4629,0.0,3.2947,0.0,0.0,0.0,3.0545,2.9804,2.9779,2.9779,0.0,0.0,0.0,0.0,0.0,0.0,0.0,2.9804,0.0,2.9804,2.9804,2.9804,2.9804,2.9804,2.9804,2.9804,2.9804,2.9804,2.9804,2.9804,2.9804,3.0005,3.0557,3.0131,3.0005,3.0557,3.0105,2.9804,2.9804,2.9804,2.9804,2.9804,2.9754,2.9754,2.9754,2.8674,2.8072,2.8072,2.7544,2.7027,2.6499,2.6499,2.6499,2.6499,2.6499,2.6499,2.6499,2.6499,2.6499,2.6524,2.7077,2.7595,2.8147,2.8662,2.9252,2.9779,2.9779,2.9804,2.9804,0.0,3.2315,3.234,3.2767,3.1738,3.0909,3.1135,3.0859,3.0557,0.0,0.0,0.0,3.0432,3.0382,3.0382,3.0382,3.0382,3.0206,2.9829,3.0457,3.0782,3.0782,3.2885,3.3919,3.3793,3.4661,3.518,3.526,3.4633,3.464,3.5195,3.6005,3.6522,3.6842,3.7237,3.6916,3.6137,3.5463,3.5864,3.6808,3.557,3.5528,0.0,0.0,0.0,0.0,0.0,3.5248,3.4938,0.0,3.3602,3.3275,0.0,0.0,2.9704,2.9302,2.9478,0.0,2.9804,0.0,0.0,0.0,0.0,0.0,2.9804,2.9804,2.9804,2.9804,2.9804,2.9804,2.9804,2.9804,2.9804,2.9804,2.9804,2.9804,2.9804,2.9804,3.0005,3.0557,3.0131,3.0005,3.0557,3.0105,2.9804,0.0,2.9804,2.9804,2.9804,2.9026,2.8574,2.8574,2.7871,2.7519,2.7519,2.7344,2.7027,2.6499,2.6499,2.6499,2.6499,2.6499,2.6499,2.6499,2.6499,2.6499,2.6499,2.665,2.7052,2.757,2.8122,2.8674,2.9189,2.9628,2.9804,2.9804,3.2516,3.2566,3.2692,3.3061,3.229,3.1662,3.1712,3.1286,3.0934,0.0,0.0,0.0,3.0959,3.1473,3.1668,3.1227,3.1344,3.1325,3.0985,3.1462,3.1792,3.1792,3.39,3.5085,3.5085,3.5821,3.6324,3.6541,3.5668,3.5322,3.5519,3.5908,3.6088,3.6088,3.6447,3.6417,3.6058,3.5669,3.5938,0.0,3.5818,0.0,0.0,3.5968,3.5729,0.0,0.0,0.0,3.5392,3.4839,3.4346,3.3751,3.2347,3.1451,0.0,3.0083,0.0,0.0,0.0,0.0,0.0,0.0,0.0,0.0,2.9804,2.9804,2.9804,0.0,2.9804,2.9804,2.9804,2.9804,2.9804,2.9804,2.9804,2.9804,2.9804,2.9804,3.008,3.0859,3.0457,3.0432,3.121,3.0583,3.0131,3.0131,2.993,2.9804,2.9804,2.8725,2.8222,2.8448,2.7469,2.7077,2.7293,2.7077,2.6826,2.6499,2.6499,2.6499,2.6499,2.6499,2.6499,2.6499,2.6499,2.6499,2.6499,2.6499,2.6826,2.7404,2.8147,2.8612,2.8963,2.9578,2.9804,2.9804,0.0,3.3043,3.3111,3.3111,3.3018,3.286,3.2458,3.1994,3.1731,0.0,3.1563,3.1462,3.1996,3.3039,3.3293,3.2346,3.2554,3.2676,3.2593,3.27,3.2735,3.2735,3.4882,3.6077,3.6077,3.7025,3.7434,3.7315,3.6237,3.5639,3.5519,3.5519,3.5519,3.5519,3.5519,3.5519,3.5519,3.5519,3.5519,3.5519,3.5519,3.5549,0.0,0.0,3.6028,3.5579,3.6178,3.5998,3.5519,3.5519,3.4839,3.3979,3.3926,3.3338,0.0,0.0,3.1299,0.0,0.0,0.0,0.0,0.0,2.9804,0.0,2.9804,2.9804,2.9804,2.9804,2.9804,2.9804,2.9804,2.9804,2.9818,2.9934,2.9856,2.9804,2.9804,2.9854,3.0256,3.126,3.0984,3.111,3.2114,3.1235,3.0608,3.0608,3.0105,2.9754,2.9704,2.8674,2.8298,2.8687,2.7304,2.6725,2.7228,2.6751,2.6499,2.6499,2.6499,2.6499,2.6499,2.6499,2.6499,2.6499,2.6499,2.6499,2.6499,2.6499,2.6776,2.7329,2.8398,2.8787,2.8888,2.9553,2.9804,2.9804,3.2365,3.2767,3.3111,3.3111,3.2692,3.2608,3.3375,3.3392,3.3833,3.5234,3.5326,3.5489,3.5981,3.4997,3.4148,3.396,3.3523,3.3046,3.2648,3.3325,3.3739,3.3739,3.5473,3.6391,3.6391,3.7605,3.7704,3.6656,3.6926,3.6507,3.5519,3.5519,3.5519,3.5519,3.5519,3.5519,3.5519,3.5519,3.5519,3.5519,3.5519,0.0,3.6237,3.5848,3.5609,3.5519,3.5639,3.5609,3.5519,3.5519,3.4839,3.3926,3.3503,3.3004,0.0,3.1873,0.0,0.0,0.0,0.0,0.0,0.0,0.0,0.0,2.9804,2.9804,2.9804,2.9804,2.9804,2.9804,2.9804,2.9804,3.0049,3.0782,3.0266,2.9804,2.9804,3.0181,3.0683,3.1311,3.1311,3.1486,3.2139,3.1235,3.0608,3.0608,3.0105,2.9578,2.9088,2.8473,2.7946,2.762,2.6901,2.6549,2.665,2.6549,2.6499,2.6499,2.6499,2.6499,2.6499,2.6499,2.6499,2.6499,2.6499,2.6499,2.6499,2.6499,2.6549,2.6776,2.7846,2.8273,2.8398,2.9402,2.9804,2.9804,3.3348,3.3704,3.4079,3.4568,3.4386,3.4378,3.4914,3.4777,3.5002,3.6156,3.6749,3.7007,3.6733,3.6524,3.6049,3.5215,3.5018,3.4698,3.4099,3.4476,3.4773,3.4773,3.5856,3.6626,3.6926,3.7255,3.7285,3.6956,3.6626,3.6148,3.5519,3.5519,3.5519,3.5519,3.5519,3.5519,3.5519,3.5519,3.5519,3.5519,3.5519,0.0,3.5968,3.5639,3.5519,3.5519,3.5519,3.5519,3.5519,3.5519,3.5166,0.0,0.0,3.4214,3.3882,0.0,3.3105,3.3087,0.0,0.0,0.0,3.0733,0.0,0.0,0.0,2.9804,2.9804,2.9804,2.9804,2.9804,2.9804,2.9804,3.0101,3.1044,3.0419,3.0139,3.1071,3.0637,3.0507,3.1286,3.1386,3.1712,3.2566,3.1662,3.0783,3.0256,2.9955,2.9654,2.9377,2.8825,2.8273,2.772,2.7203,2.6776,2.6499,2.6499,2.6499,2.6499,2.6499,2.6499,2.6499,2.6499,2.6499,2.6499,2.6499,2.6499,2.6499,2.6499,2.6499,2.6575,2.7369,2.7871,2.8197,2.9051,2.9553,2.9804,3.4815,3.4979,3.5238,3.6053,3.6212,3.629,3.6487,3.6136,3.6168,3.6911,3.7644,3.7776,3.6916,3.7551,3.754,3.6286,3.6276,3.6118,3.5729,3.5579,3.5519,3.5519,3.5998,3.6537,3.7015,3.6686,3.6656,3.7045,3.6148,3.5639,3.5519,3.5519,3.5519,3.5519,3.5651,3.5651,3.5519,3.5651,0.0,3.5686,0.0,3.5651,3.5519,3.5519,3.5519,3.5519,3.5519,3.5519,3.5519,3.5519,3.5519,3.5519,3.5519,3.5519,0.0,0.0,0.0,0.0,0.0,0.0,0.0,0.0,0.0,3.1241,0.0,0.0,0.0,0.0,0.0,0.0,0.0,0.0,0.0,0.0,0.0,0.0,0.0,3.0884,0.0,3.18,3.1645,3.1921,3.3284,3.2164,3.0959,2.988,2.9804,2.9804,2.9804,2.9252,2.8687,2.8273,2.762,2.7102,2.665,2.6549,2.6499,2.6499,2.6499,2.6499,2.6499,2.6499,2.6499,2.6499,2.6499,2.6499,2.6499,2.6499,2.6499,2.6549,2.7193,2.772,2.8197,2.8813,2.9402,2.9804,3.6013,3.6053,3.6093,3.6172,3.6212,3.6526,3.7472,3.7567,3.811,3.9713,3.9512,3.9192,3.9053,3.7625,3.6862,3.7173,3.6231,3.5818,3.6327,3.5818,3.5519,3.5519,3.5579,3.5639,3.5729,3.6237,3.6237,3.5729,3.6178,3.6088,3.5519,3.5519,3.5519,3.5522,3.6196,3.6102,3.5522,0.0,3.6477,0.0,3.6477,3.6071,0.0,3.5519,3.5519,3.5519,3.5519,3.5519,3.5519,0.0,3.5519,3.5519,0.0,3.5519,3.5457,3.5359,0.0,0.0,0.0,0.0,0.0,0.0,3.2451,0.0,0.0,0.0,3.2046,3.123,0.0,0.0,0.0,0.0,0.0,0.0,0.0,0.0,3.123,3.0457,3.0855,3.3723,3.2475,3.2225,3.4323,3.2634,3.0959,2.988,2.9804,2.9804,2.9804,2.9252,2.8863,2.8787,2.7821,2.7278,2.7228,2.6751,2.6499,2.6499,2.6499,2.6499,2.6499,2.6499,2.6499,2.6499,2.6499,2.6499,2.6499,2.6499,2.6499,2.66,2.7595,2.8047,2.8222,2.9302,2.9729,2.9804,3.7252,3.7137,3.7329,3.7927,3.804,3.8219,3.8657,3.873,3.8996,3.9725,3.9553,3.9373,3.9373,0.0,0.0,0.0,0.0,3.6417,0.0,0.0,3.5908,3.5519,3.5878,3.6058,3.6058,3.5968,3.5968,3.6058,3.5968,3.5789,3.5519,3.5519,3.5519,3.5522,3.629,0.0,3.6165,0.0,3.66,0.0,0.0,0.0,0.0,3.6662,3.6845,3.6784,3.6321,3.6134,3.6071,0.0,3.5519,0.0,0.0,0.0,0.0,0.0,0.0,0.0,0.0,0.0,0.0,0.0,0.0,0.0,3.27,0.0,3.2486,0.0,0.0,0.0,0.0,0.0,0.0,0.0,3.1033,0.0,0.0,0.0,3.0405,0.0,0.0,0.0,3.2254,3.1468,3.0608,2.9854,2.9804,2.9804,2.9804,2.9553,2.9277,2.8888,2.8172,2.7595,2.7293,2.6776,2.6499,2.6499,2.6499,2.6499,2.6499,2.6499,2.6499,2.6499,2.6499,2.6499,2.6499,2.6499,2.6675,2.7052,2.7795,2.8097,2.8197,2.9001,2.9503,2.9804,3.8397,3.8219,3.8472,3.9265,3.9373,3.9373,3.9373,3.926,3.92,3.9409,3.926,3.914,3.914,3.896,0.0,0.0,3.7345,3.6836,0.0,0.0,3.5998,3.5519,3.5968,0.0,3.6207,3.5759,3.5729,3.6207,3.5729,3.5519,3.5519,3.5519,3.5519,3.5522,3.629,3.66,3.66,0.0,3.7054,3.7231,3.7231,3.735,3.7584,3.7732,3.7793,3.7735,3.7144,3.6783,3.6538,3.5975,3.5683,0.0,3.5519,0.0,3.5519,0.0,0.0,0.0,3.5519,0.0,0.0,0.0,0.0,0.0,0.0,0.0,0.0,0.0,0.0,0.0,0.0,0.0,0.0,0.0,0.0,3.0292,0.0,3.0684,0.0,0.0,0.0,0.0,0.0,3.0532,3.0382,2.9829,2.9804,2.9804,2.9804,2.9804,2.9603,2.9176,2.8624,2.8072,2.7519,2.7002,2.665,2.6499,2.6499,2.6499,2.6499,2.6499,2.6499,2.6499,2.6499,2.6575,2.6725,2.6725,2.7052,2.757,2.8122,2.8323,2.8398,2.8913,2.9428,2.9804,3.9337,3.9337,3.9337,3.9373,3.9373,3.9373,3.9373,3.8841,3.8661,3.932,0.0,0.0,0.0,0.0,0.0,0.0,0.0,3.6746,3.7315,0.0,3.5519,0.0,0.0,3.5549,0.0,3.5519,3.5519,3.5549,3.5519,3.5519,3.5519,3.5519,3.5519,3.5522,3.629,3.66,3.663,3.7411,3.8161,3.8827,3.8827,3.9289,3.9825,0.0,3.7793,3.7793,3.7764,0.0,0.0,3.6569,3.6071,0.0,0.0,0.0,0.0,0.0,0.0,0.0,0.0,0.0,0.0,3.5457,0.0,0.0,0.0,0.0,3.5133,0.0,0.0,0.0,0.0,0.0,0.0,3.2451,0.0,0.0,0.0,0.0,0.0,0.0,0.0,0.0,0.0,3.0306,3.0382,0.0,2.9804,2.9804,2.9804,2.9804,2.9779,2.9754,2.9202,2.8612,2.8072,2.7519,2.7027,2.6499,2.6499,2.6499,2.6499,2.6499,2.6499,2.6499,2.6499,2.6801,2.7243,2.7243,2.757,2.8122,2.8637,2.8863,2.8938,2.9553,2.9779,2.9804,3.9373,3.9373,3.9373,3.9373,3.9373,3.9373,3.9373,3.923,3.932,0.0,0.0,0.0,0.0,3.9529,3.911,0.0,0.0,3.7464,3.6836,3.7195,0.0,0.0,0.0,3.6806,0.0,0.0,3.5938,3.5519,3.5519,3.5519,3.5519,3.5519,3.5519,3.5522,3.629,3.6904,0.0,0.0,0.0,0.0,0.0,3.9368,4.0028,0.0,3.9322,3.9236,3.8718,3.8358,0.0,3.6964,3.6446,3.6134,3.5651,3.5519,3.5519,3.5519,3.5519,3.5519,0.0,0.0,3.5519,3.5519,0.0,0.0,0.0,0.0,0.0,0.0,0.0,0.0,0.0,0.0,3.1499,3.2451,3.1033,0.0,0.0,0.0,0.0,0.0,0.0,0.0,0.0,0.0,0.0,0.0,2.9783,0.0,2.9779,2.9804,2.9804,2.9804,2.9189,2.8787,2.8612,2.7745,2.7228,2.7027,2.6675,2.6499,2.6499,2.6499,2.6499,2.6499,2.6499,2.6801,2.7293,2.7293,2.7821,2.8674,2.8813,2.9113,2.9528,2.9729,2.9804,2.9804,3.9433,3.9373,3.9373,0.0,0.0,3.914,3.9343,3.9373,0.0,0.0,4.0606,0.0,4.0756,0.0,4.0038,0.0,3.8661,3.7943,3.6896,3.7375,0.0,3.5579,3.6686,0.0,0.0,0.0,3.5938,3.5519,3.5519,3.5519,3.5519,3.5519,3.5519,3.5522,3.6006,3.6814,3.7793,3.7793,3.8386,0.0,0.0,3.9636,0.0,0.0,4.0113,4.0003,0.0,3.9156,3.8745,3.7758,3.7263,3.6873,3.6102,3.5879,3.5846,3.5587,3.5519,3.5519,3.5519,3.5519,0.0,3.5519,3.5519,0.0,3.5519,0.0,3.5519,0.0,0.0,0.0,0.0,0.0,0.0,3.2982,3.1499,3.0177,0.0,2.9804,0.0,0.0,0.0,0.0,0.0,0.0,2.9905,3.0358,2.9968,2.9656,0.0,2.9679,2.9804,2.9804,2.9428,2.9126,2.8888,2.8222,2.767,2.7304,2.6952,2.6675,2.6499,2.6499,2.66,2.6776,2.6776,2.7203,2.7871,2.7871,2.8398,2.9227,2.9227,2.9478,2.9804,2.9804,2.9804,2.9804,3.9559,3.9373,3.9403,0.0,3.8931,0.0,0.0,0.0,3.9781,0.0,4.1145,4.1603,4.1603,4.0995,4.0604,4.0544,3.9373,3.8322,3.7631,3.703,0.0,0.0,3.5709,3.5679,3.5619,0.0,0.0,3.5554,3.5549,3.5549,3.5519,3.5519,3.5519,3.5519,3.5522,3.6414,3.7793,3.7851,3.8723,4.0113,4.0113,4.0113,4.0113,4.0113,4.0113,4.0113,4.0113,3.961,3.8962,3.8908,3.8442,3.7703,3.6904,3.6661,3.6538,3.5814,3.5619,3.5587,3.5554,3.5554,3.5554,3.5519,3.5519,0.0,0.0,0.0,3.5519,0.0,0.0,0.0,0.0,0.0,0.0,3.3979,3.2415,0.0,0.0,0.0,0.0,0.0,0.0,0.0,0.0,3.0568,3.0496,2.9114,3.0332,3.0496,0.0,2.9516,2.9856,2.9804,2.9804,2.9528,2.8938,2.8913,2.8398,2.7369,2.7354,2.7052,2.6575,2.6549,2.6826,2.7318,2.7318,2.7921,2.8888,2.8888,2.9277,2.9804,2.9804,2.9804,2.9804,2.9804,2.9804,2.9804,3.9403,3.9373,3.9738,0.0,3.9918,3.92,0.0,0.0,0.0,0.0,4.3368,4.4201,4.4201,4.4078,4.3573,4.2498,4.209,0.0,0.0,0.0,0.0,3.8084,3.8464,3.8245,3.7237,3.759,0.0,3.6321,3.6265,3.5998,3.5519,3.5519,3.5519,3.5522,3.6071,3.6874,3.7851,3.8386,3.9183,4.0113,4.0113,4.0113,4.0113,0.0,4.0113,4.0113,4.0113,3.9952,3.9688,3.9096,3.8772,3.8497,3.7732,3.7469,3.744,3.7265,3.7205,3.7086,3.6477,3.6321,3.6196,3.5651,3.5519,3.5519,0.0,0.0,0.0,0.0,0.0,0.0,0.0,0.0,0.0,0.0,0.0,0.0,0.0,0.0,0.0,2.9804,0.0,0.0,0.0,2.9685,2.9369,3.0522,3.0188,2.9845,2.9566,0.0,3.0533,2.9818,2.9804,2.9729,2.9578,2.9113,2.8737,2.8499,2.767,2.7419,2.767,2.7304,2.7369,2.7896,2.7896,2.8298,2.8888,2.8888,2.9277,2.9804,2.9804,2.9804,2.9804,2.9804,2.9804,2.9804,4.0583,4.1019,0.0,4.2504,0.0,0.0,4.0944,4.1076,0.0,4.2643,4.3831,0.0,4.4591,4.4944,4.4866,4.4096,4.3489,0.0,4.1564,0.0,0.0,3.8969,3.923,3.8912,3.7825,3.8082,0.0,3.66,3.6909,3.6531,3.5519,3.5846,3.5814,3.5522,3.5911,3.6753,3.7879,3.8968,3.9688,4.0113,4.0113,4.0113,0.0,4.0113,4.0113,4.0113,4.0113,4.0113,4.0003,3.9584,3.942,3.9289,3.8525,3.8274,3.8218,3.7876,3.7793,3.7706,3.7233,3.7114,3.6994,3.66,3.6538,3.6538,3.6538,3.6258,3.5975,0.0,3.5718,3.5519,0.0,0.0,0.0,0.0,0.0,0.0,0.0,0.0,0.0,0.0,2.9745,0.0,0.0,2.9439,2.9119,3.0143,3.0,2.9948,3.0071,0.0,3.0733,3.1033,3.0646,3.0419,3.0419,3.0085,2.9578,2.8888,2.8298,2.8047,2.8097,2.7795,2.7946,2.8473,2.8473,2.8775,2.9302,2.9302,2.9503,2.9804,2.9804,2.9804,2.9804,2.9804,2.9804,2.9804,4.2473,4.3303,0.0,0.0,0.0,0.0,0.0,4.2171,0.0,4.3122,0.0,4.4468,4.4468,4.5208,4.5656,4.5559,0.0,4.3396,4.2619,4.1877,4.0877,3.9551,3.9421,3.9005,3.827,3.8248,3.7748,0.0,3.7535,3.715,3.5683,3.6384,3.6446,3.5782,3.591,0.0,0.0,3.9532,4.0113,4.0113,4.0113,4.0113,4.0113,4.0113,4.0113,4.0113,4.0113,4.0113,4.0113,4.0113,4.0113,3.9978,3.9289,3.9043,3.8935,3.8274,3.8108,3.808,3.7994,3.7966,3.7937,3.7822,3.7793,3.7793,3.7793,3.7263,3.6752,3.6752,3.6228,3.575,0.0,0.0,0.0,0.0,0.0,0.0,0.0,0.0,0.0,0.0,0.0,0.0,0.0,2.9626,2.9284,2.9038,2.988,3.0401,3.0335,0.0,3.0846,3.2379,3.1756,3.1315,3.1204,3.1315,3.0634,2.9214,2.9138,2.8886,2.8481,2.8321,2.8524,2.9013,2.9013,2.9327,2.9804,2.9804,2.9804,2.9804,2.9804,2.9804,2.9804,2.9804,2.9804,2.9804,4.4532,0.0,0.0,0.0,0.0,4.4781,4.6516,4.6026,4.5636,4.5898,4.7207,4.8089,4.8089,4.8249,4.8077,4.7474,4.7206,0.0,0.0,0.0,0.0,4.2646,4.2036,4.1366,4.0601,4.0507,3.9498,3.7618,3.828,3.7861,3.6415,3.7235,3.7531,3.7413,3.8048,0.0,3.9688,3.9978,0.0,4.0113,4.0113,4.0113,4.0113,4.0113,4.0113,4.0113,4.0113,4.0113,4.0113,4.0113,4.0113,4.0087,3.9927,3.9901,3.9876,3.9747,3.9722,3.9558,3.8881,3.8718,3.8553,3.7966,3.7793,3.7793,3.7793,3.7706,3.7618,3.7618,3.7501,3.7016,3.5796,0.0,0.0,0.0,0.0,0.0,0.0,0.0,0.0,0.0,0.0,2.9876,0.0,0.0,2.9189,2.9603,3.0088,3.0257,2.991,0.0,3.1901,0.0,3.2019,3.1983,0.0,0.0,3.1847,3.0813,3.0367,3.0315,3.0618,2.9351,2.9101,2.9628,2.9628,2.9704,2.9804,2.9804,2.9804,2.9804,2.9804,2.9804,2.9804,2.9804,2.9804,2.9804,0.0,0.0,0.0,0.0,0.0,0.0,0.0,4.9189,4.8425,4.6779,4.7266,4.7753,4.7753,4.85,4.8849,4.8511,4.8108,4.7462,4.6346,4.5568,4.4654,4.3443,4.3064,4.2354,4.1238,4.1137,4.0222,3.8358,3.9106,3.8715,3.7233,3.8019,3.8161,3.7851,0.0,3.9129,0.0,0.0,0.0,4.0113,4.0113,4.0113,4.0113,4.0113,4.0113,4.0113,4.0113,4.0113,4.0113,4.0113,4.0113,4.0113,4.0113,4.0113,4.0113,4.0113,4.0113,4.0003,3.9636,3.9532,3.9454,3.9076,3.8995,3.8995,3.8995,3.8663,3.8358,3.8358,3.7758,3.6797,3.5291,3.4756,0.0,0.0,0.0,0.0,0.0,0.0,0.0,0.0,0.0,0.0,0.0,0.0,0.0,0.0,0.0,3.0734,3.1469,0.0,3.2869,0.0,0.0,0.0,3.2664,0.0,3.2841,3.1911,3.164,3.1414,3.1167,3.0422,2.9973,2.9804,2.9804,2.9804,2.9804,2.9804,2.9804,2.9804,2.9804,2.9804,2.9804,2.9804,2.9804,2.9804,0.0,5.0608,0.0,0.0,5.071,0.0,5.1116,5.1185,5.0316,4.793,4.7435,4.7402,4.7568,4.8409,4.9052,4.9221,4.8578,4.7834,4.709,4.6346,4.5331,4.395,4.3741,4.3031,4.1711,4.1508,4.0695,3.9139,3.9815,3.9401,3.8048,3.8799,3.8859,3.8334,0.0,0.0,0.0,0.0,4.0113,4.0113,4.0113,4.0113,4.0113,4.0113,4.0113,4.0113,4.0113,4.0113,4.0113,4.0113,4.0113,4.0113,4.0113,4.0113,4.0113,4.0113,4.0113,4.0113,4.0113,4.0113,4.0113,4.0113,4.0113,4.0113,4.0113,3.961,3.9183,3.9183,3.7998,3.6602,3.5411,3.5279,0.0,0.0,0.0,0.0,0.0,0.0,0.0,0.0,0.0,0.0,3.1721,0.0,0.0,0.0,0.0,3.102,3.2619,3.2688,3.3385,0.0,0.0,3.4143,3.3705,0.0,3.3842,3.2876,3.2876,3.2486,3.1792,3.1389,3.0809,3.0101,2.9895,2.9804,2.9804,2.9804,2.9804,2.9804,2.9804,2.9804,2.9804,2.9804,2.9804,2.9804,0.0,0.0,0.0,0.0,0.0,0.0,5.1217,5.1185,5.1117,5.0816,5.0208,5.004,5.0683,4.97,4.9255,4.9932,4.9323,4.8578,4.7868,4.7124,4.6312,4.5534,4.4823,4.4079,4.3206,4.2523,4.146,0.0,4.005,3.9636,3.8827,3.961,3.9952,0.0,0.0,0.0,0.0,4.0087,4.0113,4.0113,4.0113,4.0113,4.0113,4.0113,4.0113,4.0113,4.0113,4.0113,4.0113,4.0113,4.0113,4.0113,4.0113,4.0113,4.0113,4.0113,4.0113,4.0113,4.0113,4.0113,4.0113,4.0113,4.0113,4.0113,4.0113,4.0028,3.9978,3.9978,3.8861,3.7801,3.7544,3.5996,3.4714,0.0,0.0,0.0,0.0,0.0,3.3212,3.2557,0.0,0.0,0.0,3.2255,0.0,0.0,3.0326,3.056,3.1319,3.2416,3.3027,3.2876,3.4476,3.4509,3.2735,3.4476,3.4872,3.3876,3.3876,3.3808,3.3671,3.1983,3.113,3.1007,3.0177,2.9804,2.9804,2.9804,2.9804,2.9804,2.9804,2.9804,2.9804,2.9804,2.9804,2.9804,0.0,0.0,0.0,0.0,0.0,0.0,0.0,5.2604,5.2435,5.1928,5.0811,5.0202,5.0507,4.9627,4.912,4.9424,4.9187,4.8714,4.7939,4.7225,4.6481,4.5737,4.4993,4.4215,4.3409,4.2692,4.1782,0.0,0.0,0.0,3.9636,4.0399,4.0493,0.0,0.0,4.0113,4.0113,4.0113,4.0113,4.0113,4.0113,4.0113,4.0113,4.0113,4.0113,4.0113,4.0113,4.0113,4.0113,4.0113,4.0113,4.0113,4.0113,4.0113,4.0113,4.0113,4.0113,4.0113,4.0113,4.0113,4.0113,4.0113,4.0113,4.0113,4.0113,4.0113,4.0113,4.0113,3.9303,3.8329,3.7364,3.6469,3.5629,3.4745,0.0,0.0,0.0,0.0,0.0,3.2018,0.0,3.2634,0.0,3.2306,0.0,0.0,0.0,3.1853,3.2305,3.3175,3.385,3.4341,0.0,3.5133,3.4341,3.51,3.5294,3.4905,3.4905,3.4576,3.3979,3.3192,3.2272,3.1156,3.0216,2.9804,2.9804,2.9804,2.9804,2.9804,2.9804,2.9804,2.9804,2.9804,2.9804,2.9895,5.3416,0.0,5.257,0.0,5.3044,5.2841,5.3416,5.3315,5.3044,5.2706,5.1352,5.0405,5.0405,4.956,4.9086,4.9289,4.912,4.8781,4.8244,4.753,4.6786,4.6075,4.5297,0.0,4.3775,4.2997,4.2252,4.1508,4.1305,0.0,0.0,0.0,0.0,0.0,4.0113,4.0113,4.0113,4.0113,4.0113,4.0113,4.0113,4.0113,4.0113,4.0113,4.0113,4.0113,4.0113,4.0113,4.0113,4.0113,4.0113,4.0113,4.0113,4.0113,4.0113,4.0113,4.0113,4.0113,4.0113,4.0113,4.0113,4.0113,4.0113,4.0113,4.0113,4.0113,4.0113,4.0113,3.9706,3.8949,3.7661,3.7402,3.7008,3.5811,0.0,0.0,0.0,3.4022,0.0,3.2575,3.3003,3.3156,3.2557,3.2691,0.0,0.0,0.0,3.282,3.297,3.371,3.4405,0.0,0.0,0.0,3.5067,3.5359,3.5519,3.5519,3.5519,3.5133,3.4442,3.4143,3.2982,3.1167,3.0495,3.0088,2.9804,2.9804,2.9804,2.9804,2.9804,2.9804,2.9804,2.9804,2.9972,3.033,5.3213,5.2841,5.257,5.3382,5.3484,5.3484,5.3518,5.2841,5.2604,5.3382,5.2164,5.1217,5.1217,4.9898,4.9289,4.9999,4.9424,4.9018,4.8984,4.8308,4.7564,0.0,0.0,4.5331,4.4615,4.3809,4.3031,4.2286,0.0,0.0,4.0113,0.0,4.0113,4.0113,4.0113,4.0113,4.0113,4.0113,4.0113,4.0113,4.0113,4.0113,4.0113,4.0113,4.0113,4.0113,4.0113,4.0113,4.0113,4.0113,4.0113,4.0113,4.0113,4.0113,4.0113,4.0113,4.0113,4.0113,4.0113,4.0113,4.0113,4.0113,4.0113,4.0113,4.0113,4.0113,4.0113,4.0113,4.0079,3.9876,3.9106,3.8971,3.8715,3.7873,0.0,0.0,0.0,3.6153,0.0,3.4761,3.5146,3.4666,3.2676,3.3694,0.0,0.0,0.0,0.0,0.0,0.0,0.0,3.4047,3.4971,0.0,3.4013,3.4971,3.5519,3.5519,3.5519,3.5519,3.5424,3.4476,3.2982,3.1204,3.1167,3.0658,2.9804,2.9804,2.9804,2.9804,2.9804,2.9804,2.9804,2.9804,3.0381,3.1167,5.3416,5.3281,5.3213,5.345,5.3518,5.3518,5.3518,5.3281,5.2841,5.2063,5.1961,5.1386,4.9864,4.9729,4.983,0.0,4.9424,4.9018,0.0,4.8308,4.78,4.7564,4.638,4.5602,4.5365,4.4079,4.3274,4.3064,0.0,0.0,0.0,4.0587,4.0113,4.0113,4.0113,4.0113,4.0113,4.0113,4.0113,4.0113,4.0113,4.0113,4.0113,4.0113,4.0113,4.0113,4.0113,4.0113,4.0113,4.0113,4.0113,4.0154,4.0528,4.0392,4.0113,4.0113,4.0113,4.0113,4.0113,4.0113,4.0113,4.0113,4.0113,4.0113,4.0113,4.0113,4.0113,4.0113,4.0113,4.0045,3.9808,3.9334,3.8897,3.864,3.8011,0.0,3.62,0.0,3.5104,3.345,3.4258,3.4321,3.2726,3.4175,0.0,0.0,0.0,0.0,0.0,0.0,0.0,0.0,3.5326,0.0,3.5034,3.5359,3.5519,3.5519,3.5519,3.5519,3.5457,3.4476,3.3671,3.3017,3.1756,3.1389,3.1636,3.033,3.0177,3.0696,3.0024,2.9804,2.9804,2.9804,3.0381,3.1278,5.3518,5.3518,5.3518,5.3518,5.3518,5.3518,5.3518,5.3247,5.2807,5.2164,5.1961,5.1488,5.0371,5.0168,0.0,4.9695,4.9255,4.9018,4.9018,4.8578,4.8176,4.7906,4.7022,4.6278,4.5703,4.4756,0.0,4.3375,4.3132,4.276,4.2252,4.1068,4.0493,4.0493,4.0214,4.0113,4.0113,4.0113,4.0113,4.0113,4.0113,4.0113,4.0113,4.0113,4.0113,4.0113,4.0113,4.0113,4.0113,4.0113,4.0229,4.0466,4.0803,4.0827,4.072,4.072,4.072,4.0672,4.0466,4.0417,4.0343,4.0129,4.0113,4.0113,4.0113,4.0113,4.0113,4.0113,4.0113,4.0113,4.0113,3.974,3.9411,3.9411,3.9005,3.8308,3.7111,0.0,3.6042,0.0,0.0,0.0,0.0,3.5294,3.5531,0.0,0.0,0.0,0.0,0.0,3.4839,3.5457,3.5519,3.5519,3.5519,3.5519,3.5519,3.5519,3.5519,3.5519,3.5457,3.4839,3.4346,3.391,3.2735,3.2379,3.2486,3.1341,3.1193,3.1646,3.0696,3.0305,3.0305,3.0305,3.0921,3.1865,5.3518,5.3518,5.3518,0.0,5.3518,5.3518,5.3518,5.2875,5.2638,5.3348,5.2232,5.1589,5.2164,5.098,4.9864,4.9154,0.0,0.0,4.9018,4.9018,4.8714,4.8007,4.7906,4.7229,4.5872,4.5805,4.506,4.3544,4.276,4.2388,4.2354,4.161,4.1271,4.1238,4.0561,4.0214,4.018,4.018,4.0146,4.0113,4.0113,4.0113,4.0113,4.0113,4.0113,4.0113,4.0113,4.0113,4.0113,4.0113,4.0466,4.092,4.0932,4.1362,4.1853,4.181,4.181,4.1682,4.1093,4.0955,4.0827,4.0269,4.0138,4.0113,4.0113,4.0113,4.0113,4.0113,4.0113,4.0113,4.0113,4.0113,4.0113,4.0113,4.0113,3.9842,3.9039,3.8396,3.7892,0.0,0.0,0.0,3.6796,3.6901,3.6649,0.0,0.0,0.0,0.0,0.0,3.5519,3.5519,3.5519,3.5519,3.5519,3.5519,3.5519,3.5519,3.5519,3.5519,3.5519,3.5519,3.5001,3.4109,3.4013,3.3533,3.277,3.2664,3.2629,3.2593,3.1683,3.1278,3.1278,3.1278,3.1901,3.2806,0.0,0.0,5.3518,5.3518,5.3518,5.3518,5.3518,5.3348,5.3078,5.2638,5.2807,5.257,5.1589,5.115,5.0642,4.9898,4.9323,4.9018,4.9018,4.9018,4.8917,4.8748,4.8206,4.7736,4.7365,4.6819,4.6075,4.5162,4.3809,4.3166,4.3132,4.2388,4.2049,4.2016,4.1847,4.1474,4.0933,4.0933,4.0595,4.0113,4.0113,4.0113,4.0113,4.0113,4.0113,4.0113,4.0113,4.0113,4.0113,4.0113,4.0466,4.0955,4.1429,4.2,4.2382,4.1937,4.181,4.1789,4.1639,4.1595,4.1464,4.085,4.0417,4.0113,4.0113,4.0113,4.0113,4.0113,4.0113,4.0113,4.0113,4.0113,4.0113,4.0113,4.0113,3.9673,3.8328,3.8497,3.8109,0.0,3.7519,3.8029,3.6901,3.7773,3.7888,0.0,0.0,3.6138,3.554,3.5497,3.5519,3.5519,3.5519,3.5519,3.5519,3.5519,3.5519,3.5519,3.5519,3.5519,3.5519,3.5519,3.5359,3.51,3.4312,3.4312,3.4706,3.322,3.3017,3.3602,3.2629,3.2272,3.2272,3.2272,3.2841,3.3705,5.3518,5.3518,5.3518,5.3518,5.3518,5.3518,5.3518,5.3518,5.3348,5.2909,5.2909,5.2638,5.1792,5.1116,5.0541,5.0135,4.9424,4.9018,4.9018,4.9018,4.9018,4.9018,4.8612,4.8274,4.7906,4.753,4.6786,4.5703,4.4857,4.4282,4.3944,4.3166,4.2794,4.2794,4.2455,4.2083,4.1677,4.1339,4.0967,4.0561,4.0248,4.0113,4.0113,4.0113,4.0113,4.0113,4.0113,4.0316,4.0578,4.0504,4.1069,4.184,4.2107,4.2599,4.2995,4.2676,4.2599,4.2505,4.2302,4.2221,4.2,4.1115,4.0662,4.0417,4.0154,4.0113,4.0113,4.0113,4.0113,4.0113,4.0113,4.0113,4.0113,4.0113,4.0113,3.9706,3.8565,3.8734,3.8544,3.736,3.8268,3.8814,3.8355,3.8979,3.8964,3.7806,3.7648,0.0,3.66,3.6538,3.6352,3.6006,3.5683,3.5683,3.6006,3.5954,3.6088,3.6387,3.6387,3.6387,3.6357,3.6088,3.5968,3.5905,3.5053,3.5001,3.5424,3.4375,3.424,3.4576,3.3636,3.3227,3.3227,3.3227,3.3567,3.4075,5.3518,5.3518,5.3518,5.3518,5.3518,5.3518,5.3518,5.3518,5.3518,5.3518,5.2909,5.2469,5.2469,5.1251,5.0439,5.0439,4.9763,4.9255,4.9018,4.9018,4.9018,4.9018,4.9018,4.8714,4.8075,4.7939,4.7263,4.6041,4.5805,4.5365,4.475,4.3944,4.3606,4.3572,4.2929,4.2557,4.2422,4.1813,4.1474,4.1305,4.0663,4.0451,4.0451,4.0451,4.0451,4.0451,4.0451,4.0832,4.1349,4.1174,4.194,4.2948,4.2936,4.3284,4.374,4.3847,4.3864,4.3758,4.3139,4.2932,4.2622,4.1442,4.1024,4.078,4.0319,4.0154,4.0113,4.0113,4.0113,4.0113,4.0113,4.0113,4.0113,4.0113,4.0113,3.9842,3.9106,0.0,3.9106,3.9005,3.9073,3.9436,4.0045,4.0113,3.9765,3.8962,3.8908,3.858,3.7851,3.7793,3.7528,3.6964,3.635,3.6284,3.6909,3.6858,3.7,3.7404,3.7404,3.7404,3.7375,3.6866,3.6567,3.6447,3.5908,3.5579,3.5519,3.5519,3.5519,3.5424,3.4543,3.4245,3.4245,3.4245,3.4245,3.4346,5.3518,5.3518,5.3518,5.3518,5.3518,5.3518,5.3518,5.3518,5.3518,5.3518,5.3382,5.3315,5.3315,5.2503,5.1961,5.1961,5.1285,5.0338,4.9086,4.9018,4.9018,4.9018,4.9018,4.8951,4.8849,4.824,4.777,4.7534,4.6312,4.5635,4.55,4.4756,4.4384,4.4412,4.431,4.3876,4.3206,4.3132,4.2692,4.2117,4.1982,4.1948,4.1948,4.1948,4.1948,4.1948,4.1948,4.2016,4.211,4.2079,4.2542,4.3252,4.3726,4.4313,4.4877,4.5388,4.5516,4.5351,4.4619,4.4051,4.3504,4.2641,4.1625,4.0897,4.0803,4.0441,4.0113,4.0113,4.0113,4.0113,4.0113,4.0113,4.0113,4.0113,4.0113,3.9842,3.9106,0.0,3.9706,3.9073,3.9571,3.9977,4.0079,4.0113,3.9765,3.8962,3.8908,3.858,3.7851,3.7793,3.8019,3.8553,3.8453,3.8369,3.8367,3.8362,3.8027,3.7404,3.7404,3.7404,3.7404,3.7315,3.6985,3.6477,3.6387,3.6028,3.5519,3.5519,3.5519,3.5457,3.5326,3.5294,3.5294,3.5294,3.5294,3.5294,5.3518,5.3518,5.3518,5.3518,5.3518,5.3518,5.3518,5.3518,5.3518,5.3518,5.3518,5.3518,5.3518,5.2773,5.23,5.23,5.1623,5.0881,5.0236,4.9796,4.9424,4.9018,4.9018,4.9018,4.9018,4.868,4.8308,4.7906,4.7196,4.6481,4.5703,4.5365,4.4959,4.4615,4.4615,4.4384,4.4012,4.3606,4.3172,4.2861,4.2455,4.2286,4.2286,4.2286,4.2286,4.2286,4.2286,4.2557,4.2881,4.2808,4.3219,4.3895,4.4409,4.4776,4.512,4.5736,4.5883,4.581,4.5443,4.5169,4.4797,4.4164,4.3596,4.3006,4.2323,4.1698,4.1106,4.0798,4.0383,4.0113,4.0113,4.0113,4.0113,4.0113,4.0113,3.9977,3.9639,3.991,3.9977,3.9639,3.991,4.0113,4.0113,4.0113,3.9765,3.8962,3.9315,3.9209,3.8442,3.8805,3.9381,4.01,3.9747,3.9656,3.9945,3.9464,3.9223,3.9184,3.8697,3.8482,3.8482,3.8093,3.7793,3.7464,3.6776,3.6507,3.6507,3.6178,3.6028,3.6028,3.6028,3.5818,3.5519,3.5519,3.5519,3.5519,5.3518,5.3518,5.3518,5.3518,5.3518,5.3518,5.3518,5.3518,5.3518,5.3518,5.3518,5.3518,5.3518,5.2942,5.257,5.257,5.2063,5.1691,5.1488,5.0913,5.0202,4.9289,4.9086,4.9018,4.9018,4.9018,4.8714,4.8173,4.7973,4.7297,4.621,4.6041,4.5635,4.5122,4.5122,4.5021,4.4818,4.4215,4.3842,4.3639,4.3064,4.2828,4.2828,4.2828,4.2828,4.2828,4.2828,4.32,4.3654,4.3546,4.3872,4.4482,4.5125,4.5315,4.5462,4.6247,4.6471,4.6397,4.5993,4.603,4.6048,4.545,4.518,4.4818,4.3734,4.2821,4.2013,4.1359,4.073,4.0383,4.0383,4.0383,4.0383,4.0383,0.0,4.0113,4.0113,4.0113,4.0113,4.0113,4.0113,4.0113,4.0113,4.0113,3.985,3.9236,3.974,3.985,3.9209,3.974,4.0426,4.117,4.0969,4.0992,4.1299,4.0801,4.0695,4.0964,4.0309,3.9915,3.9672,3.9194,3.8632,3.8093,3.7135,3.6896,3.7135,3.6507,3.6417,3.6686,3.6537,3.6178,3.5759,3.5908,3.5848,3.5759,5.3518,5.3518,5.3518,5.3518,5.3518,5.3518,5.3518,5.3518,5.3518,5.3518,5.3518,5.3518,5.3518,5.345,5.3416,5.3416,5.3382,5.301,5.2266,5.2164,5.1488,5.0067,4.9357,4.9018,4.9018,4.9018,4.8984,4.8917,4.824,4.7838,4.7703,4.7056,4.6684,4.6616,4.6616,4.6244,4.5635,4.5568,4.5128,4.4513,4.4445,4.4445,4.4445,4.4445,4.4445,4.4445,4.4445,4.4479,4.4513,4.4501,4.4535,4.4783,4.5912,4.6318,4.655,4.7736,4.8122,4.7792,4.6287,4.6434,4.6819,4.603,4.5472,4.4901,4.4201,4.3069,4.2013,4.1359,4.117,4.1136,4.1136,4.1136,4.1136,4.1136,0.0,0.0,4.0113,4.0113,4.0113,4.0113,4.0113,4.0113,4.0113,4.0113,4.0087,4.0003,4.0087,4.0087,4.0003,4.0087,4.0426,4.117,4.2469,4.2825,4.2114,4.2712,4.2675,4.1885,4.182,4.1395,4.0588,4.056,3.9405,3.7464,3.7375,3.7045,3.6507,3.5848,3.6267,3.7285,3.6716,3.6447,3.6477,3.7045,3.6896,3.6507,5.3518,5.3518,5.3518,5.3518,5.3518,5.3518,5.3518,5.3518,5.3518,5.3518,5.3518,5.3518,5.3518,5.3518,5.3518,5.3518,5.3518,5.3382,5.3078,5.257,5.1623,5.0135,4.939,4.9018,4.9018,4.9018,4.9018,4.9018,4.8714,4.8376,4.7872,4.7631,4.7259,4.6786,4.6786,4.665,4.638,4.638,4.5974,4.5263,4.5263,4.4993,4.4615,4.4615,4.4615,4.4615,4.4615,4.4615,4.4615,4.4615,4.4615,4.4899,4.666,4.6838,4.6646,4.7919,4.8306,4.8159,4.7572,4.7609,4.7773,4.7462,4.7255,4.6807,4.5734,4.48,4.3849,4.2796,4.2219,4.188,4.188,4.1508,4.1204,4.1204,0.0,4.0113,4.0113,4.0113,4.0113,4.0113,4.0113,4.0113,4.0113,4.0113,4.0113,4.0113,4.0113,4.0113,4.0113,4.0527,4.0899,4.1204,4.2632,4.3238,4.2925,4.3197,4.3139,4.28,4.2269,4.182,4.1495,4.1495,4.0749,3.9409,3.9014,3.8645,3.8242,3.7584,3.7345,3.7375,3.7165,3.6567,3.5968,3.6596,3.6686,3.6567,5.3518,5.3518,5.3518,5.3518,5.3518,5.3518,5.3518,5.3518,5.3518,5.3518,5.3518,5.3518,5.3518,5.3518,5.3518,5.3518,5.3518,5.3518,5.3518,5.2739,5.1758,5.0507,4.9965,4.9695,4.9695,4.9458,4.9357,4.9357,4.912,4.8748,4.8274,4.8274,4.8003,4.7496,4.7496,4.7361,4.7158,4.7158,4.6718,4.6041,4.6041,4.5602,4.4987,4.5224,4.5021,4.4649,4.4857,4.4818,4.4649,4.4886,4.4925,4.5252,4.7107,4.7446,4.7275,4.815,4.8239,4.8078,4.8078,4.7897,4.7756,4.7939,4.7858,4.7413,4.6342,4.5563,4.4712,4.3613,4.2997,4.2658,4.2658,4.2219,4.1813,4.1576,4.0933,4.0383,4.0146,4.0113,4.0113,4.0113,4.0113,4.0113,4.0113,4.0113,4.0113,4.0113,4.0113,4.0214,4.0451,4.0933,4.1305,4.1542,4.276,4.3375,4.3375,4.3576,4.371,4.368,4.3108,4.2676,4.2426,4.2426,4.1693,4.0383,3.9918,3.947,3.905,3.8362,3.8063,3.8003,3.7793,3.7195,3.6477,3.7165,3.7285,3.7165,5.3518,5.3518,5.3518,5.3518,5.3518,5.3518,5.3518,5.3518,5.3518,5.3518,5.3518,5.3518,5.3518,5.3518,5.3518,5.3518,5.3518,5.3518,5.3518,5.2739,5.1995,5.1219,5.1217,5.1185,5.1185,5.0473,5.0101,5.0101,4.9357,4.9018,4.9018,4.9018,4.9018,4.9018,4.9018,4.8612,4.7906,4.7906,4.7496,4.6819,4.6819,4.638,4.5805,4.6515,4.5901,4.4716,4.5466,4.5229,4.475,4.5466,4.5703,4.5919,4.73,4.8173,4.871,4.871,4.8204,4.7603,4.7603,4.7002,4.6566,4.7234,4.6887,4.6222,4.5648,4.493,4.4233,4.3539,4.3409,4.3409,4.3409,4.3375,4.3139,4.2422,4.1677,4.0933,4.0214,4.0113,4.0113,4.0113,4.0113,4.0113,4.0113,4.0113,4.0113,4.0113,4.0113,4.0451,4.117,4.1204,4.1542,4.2286,4.3031,4.3409,4.3409,4.4181,4.4615,4.4615,4.4615,4.415,4.3323,4.3323,4.2007,3.9734,3.9734,3.9229,3.8397,3.7704,3.8212,3.9349,3.8661,3.8392,3.8452,3.914,3.896,3.8482,5.3518,5.3518,5.3518,5.3518,5.3518,5.3518,5.3518,5.3518,5.3518,5.3518,5.3518,5.3518,5.3518,5.3518,5.3518,5.3518,5.3518,5.3518,5.3518,5.3281,5.3044,5.2841,5.1792,5.1185,5.1185,5.098,5.0608,5.0101,4.9864,4.9492,4.9018,4.9018,4.9018,4.9018,4.9018,4.8883,4.868,4.868,4.8274,4.7597,4.7597,4.7124,4.6481,4.6718,4.6515,4.6143,4.638,4.6312,4.6177,4.638,4.6481,4.6627,4.7438,4.8557,4.9442,4.8851,4.8533,4.8275,4.7745,4.7071,4.6695,4.7358,4.6956,4.6398,4.6283,4.5702,4.5001,4.4381,4.4215,4.4215,4.4215,4.3775,4.3308,4.3132,4.2455,4.1711,4.0967,4.0865,4.0663,4.018,4.0113,4.0113,4.0113,4.0561,4.0865,4.0865,4.1339,4.1711,4.1948,4.2455,4.2834,4.3064,4.3842,4.4215,4.4215,4.4479,4.4615,4.4615,4.4615,4.444,4.4212,4.4212,4.3488,4.2228,4.2228,4.1373,4.0006,3.9821,3.9286,3.8691,3.8482,3.8093,3.7793,3.8452,3.8571,3.8542,5.3518,5.3518,5.3518,5.3518,5.3518,5.3518,5.3518,5.3518,5.3518,5.3518,5.3518,5.3518,5.3518,5.3518,5.3518,5.3518,5.3518,5.3518,5.3518,5.3518,5.3518,5.3518,5.2604,5.2131,5.2131,5.1826,5.1285,5.0541,5.0236,4.9729,4.9018,4.9018,4.9018,4.9018,4.9018,4.9018,4.9018,4.9018,4.8748,4.8342,4.8342,4.7902,4.7259,4.7564,4.7293,4.6819,4.7124,4.7056,4.6819,4.7124,4.7428,4.7755,4.8099,4.886,4.9437,4.8951,4.8603,4.8221,4.7482,4.6773,4.6323,4.6751,4.6256,4.5701,4.5799,4.5451,4.5035,4.4665,4.4615,4.4615,4.4615,4.4181,4.3775,4.3443,4.3031,4.2489,4.1745,4.1644,4.1474,4.1027,4.0993,4.0993,4.0993,4.1373,4.1644,4.1644,4.2049,4.2422,4.2726,4.3139,4.3572,4.3876,4.4378,4.4615,4.4615,4.4615,4.4615,4.4615,4.4615,4.4615,4.4615,4.4615,4.4121,4.3323,4.3323,4.252,4.1198,4.1198,4.0476,3.9282,3.9282,3.8862,3.8242,3.8661,3.8811,3.896,5.3518,5.3518,5.3518,5.3518,5.3518,5.3518,5.3518,5.3518,5.3518,5.3518,5.3518,5.3518,5.3518,5.3518,5.3518,5.3518,5.3518,5.3518,5.3518,5.3518,5.3518,5.3518,5.3518,5.3518,5.3518,5.2773,5.2063,5.1319,5.0642,4.9932,4.9221,4.912,4.9086,4.9086,4.9052,4.9018,4.9018,4.9018,4.9018,4.9018,4.9018,4.8612,4.8041,4.8748,4.8173,4.709,4.7767,4.7564,4.709,4.7767,4.8443,4.9018,4.9018,4.9018,4.9018,4.9018,4.8545,4.7868,4.709,4.6413,4.5872,4.5805,4.5229,4.4716,4.4784,4.475,4.4716,4.4716,4.4716,4.4682,4.4615,4.4615,4.435,4.3639,4.3538,4.3267,4.2489,4.2388,4.2354,4.2286,4.2286,4.2286,4.2286,4.2354,4.2422,4.2489,4.2489,4.2794,4.3443,4.3538,4.3842,4.4581,4.4615,4.4615,4.4615,4.4615,4.4615,4.4615,4.4615,4.4615,4.4615,4.4615,4.415,4.3413,4.3413,4.2925,4.2141,4.2141,4.1593,4.0826,4.0826,4.0274,3.9517,3.9517,3.9481,3.9529,5.3518,5.3518,5.3518,5.3518,5.3518,5.3518,5.3518,5.3518,5.3518,5.3518,5.3518,5.3518,5.3518,5.3518,5.3518,5.3518,5.3518,5.3518,5.3518,5.3518,5.3518,5.3518,5.3518,5.3518,5.3518,5.3348,5.2841,5.2063,5.1894,5.1454,5.071,5.0135,4.9864,4.983,4.9255,4.9018,4.9018,4.9018,4.9018,4.9018,4.9018,4.8917,4.8781,4.8951,4.8815,4.8545,4.8714,4.8646,4.8545,4.8714,4.8883,4.9018,4.9018,4.9018,4.9018,4.9018,4.8883,4.8612,4.7868,4.7564,4.7293,4.6718,4.6007,4.5602,4.6177,4.5872,4.5466,4.5466,4.5466,4.5297,4.4716,4.4615,4.4547,4.4378,4.4316,4.4045,4.3267,4.3139,4.2963,4.2354,4.2286,4.2286,4.2286,4.2828,4.3436,4.4073,4.4107,4.4175,4.4344,4.4316,4.4445,4.4615,4.4615,4.4615,4.4615,4.4615,4.4615,4.4615,4.4615,4.4615,4.4615,4.4615,4.4497,4.4327,4.4327,4.3798,4.3017,4.3017,4.252,4.1723,4.1723,4.1196,4.0447,4.0447,3.999,3.9553,5.3518,5.3518,5.3518,5.3518,5.3518,5.3518,5.3518,5.3518,5.3518,5.3518,5.3518,5.3518,5.3518,5.3518,5.3518,5.3518,5.3518,5.3518,5.3518,5.3518,5.3518,5.3518,5.3518,5.3518,5.3518,5.3518,5.3112,5.23,5.23,5.1758,5.0676,5.027,4.9898,4.956,4.9187,4.9018,4.9018,4.9018,4.9018,4.9018,4.9018,4.9018,4.9018,4.9018,4.9018,4.9018,4.9018,4.9018,4.9018,4.9018,4.9018,4.9018,4.9018,4.9018,4.9018,4.9018,4.9018,4.8849,4.8075,4.7906,4.7703,4.6989,4.6515,4.6312,4.6718,4.6244,4.5703,4.5703,4.5703,4.5466,4.475,4.4615,4.4615,4.4615,4.4615,4.4479,4.4045,4.3978,4.3842,4.3436,4.3396,4.3396,4.3396,4.3741,4.4147,4.4581,4.4925,4.4959,4.4615,4.5292,4.5495,4.5128,4.5466,4.5466,4.5128,4.5466,4.5466,4.5128,4.4784,4.4615,4.4615,4.4615,4.4615,4.4615,4.4615,4.4355,4.3919,4.3919,4.341,4.2614,4.2614,4.182,4.069,4.069,4.0562,4.0487,5.3518,5.3518,5.3518,5.3518,5.3518,5.3518,5.3518,5.3518,5.3518,5.3518,5.3518,5.3518,5.3518,5.3518,5.3518,5.3518,5.3518,5.3518,5.3518,5.3518,5.3518,5.3518,5.3518,5.3518,5.3518,5.3518,5.3179,5.2503,5.2503,5.1894,5.0676,5.0405,4.9965,4.9357,4.912,4.9018,4.9018,4.9018,4.9018,4.9018,4.9018,4.9018,4.9018,4.9018,4.9018,4.9018,4.9018,4.9018,4.9018,4.9018,4.9018,4.9018,4.9018,4.9018,4.9018,4.9018,4.9018,4.8883,4.8274,4.8075,4.797,4.7327,4.709,4.7022,4.7158,4.6616,4.6075,4.6075,4.5974,4.5669,4.4919,4.4682,4.4615,4.4615,4.4615,4.4615,4.4615,4.4615,4.4615,4.4615,4.4615,4.4649,4.4784,4.4818,4.4818,4.4818,4.5466,4.5568,4.4852,4.6041,4.6515,4.5906,4.6481,4.6515,4.5906,4.6481,4.6481,4.5872,4.5263,4.4987,4.4987,4.4852,4.4818,4.4784,4.4649,4.4615,4.4615,4.4615,4.415,4.3532,4.3532,4.2552,4.1129,4.0995,4.1252,4.1789,5.3518,5.3518,5.3518,5.3518,5.3518,5.3518,5.3518,5.3518,5.3518,5.3518,5.3518,5.3518,5.3518,5.3518,5.3518,5.3518,5.3518,5.3518,5.3518,5.3518,5.3518,5.3518,5.3518,5.3518,5.3518,5.3518,5.345,5.3348,5.3348,5.3247,5.301,5.1691,5.1014,5.0879,4.9593,4.9018,4.9018,4.9018,4.9018,4.9018,4.9018,4.9018,4.9018,4.9018,4.9018,4.9018,4.9018,4.9018,4.9018,4.9018,4.9018,4.9018,4.9018,4.9018,4.9018,4.9018,4.9018,4.8984,4.8883,4.8849,4.8849,4.8748,4.824,4.7936,4.8545,4.8139,4.7601,4.7601,4.709,4.6413,4.5703,4.5026,4.4615,4.4615,4.4615,4.4615,4.4615,4.4615,4.4615,4.4615,4.4615,4.4852,4.55,4.5568,4.5568,4.5568,4.6244,4.6312,4.5602,4.6346,4.6752,4.665,4.6752,4.6752,4.665,4.6752,4.6752,4.665,4.6549,4.6481,4.6481,4.5838,4.5568,4.5534,4.4857,4.4615,4.4615,4.4615,4.4525,4.4412,4.4412,4.3798,4.2863,4.2077,4.2232,4.2893,5.3518,5.3518,5.3518,5.3518,5.3518,5.3518,5.3518,5.3518,5.3518,5.3518,5.3518,5.3518,5.3518,5.3518,5.3518,5.3518,5.3518,5.3518,5.3518,5.3518,5.3518,5.3518,5.3518,5.3518,5.3518,5.3518,5.3518,5.3518,5.3518,5.3281,5.2807,5.1725,5.1185,5.115,4.9661,4.9221,4.9593,4.9187,4.9018,4.9018,4.9018,4.9018,4.9018,4.9018,4.9018,4.9018,4.9018,4.9018,4.9018,4.9018,4.9018,4.9018,4.9018,4.9018,4.9018,4.9018,4.9018,4.9018,4.9018,4.9018,4.9018,4.9018,4.8781,4.8612,4.8951,4.8748,4.8409,4.7973,4.7635,4.7056,4.5906,4.5432,4.506,4.4682,4.4615,4.4615,4.4615,4.4925,4.5365,4.5771,4.5466,4.55,4.6244,4.6312,4.6312,4.6312,4.6616,4.665,4.6312,4.7022,4.7428,4.7428,4.78,4.7834,4.7428,4.7834,4.7834,4.7428,4.7834,4.7597,4.6786,4.6447,4.6312,4.6278,4.5534,4.5196,4.5162,4.4784,4.4615,4.4615,4.4615,4.4064,4.3298,4.317,4.3389,4.3708]}]]